<?xml version="1.0" encoding="UTF-8" standalone="yes"?>
<gpx
 xmlns="http://www.topografix.com/GPX/1/1"
 creator="OziExplorer Version 3956f - http://www.oziexplorer.com"
 version="1.1"
 xmlns:xsi="http://www.w3.org/2001/XMLSchema-instance"
 xsi:schemaLocation="http://www.topografix.com/GPX/1/1 http://www.topografix.com/GPX/1/1/gpx.xsd">
<metadata>
 <time>2024-03-23T11:52:56Z</time>
 <bounds minlat="30.602000" minlon="34.740960" maxlat="30.854330" maxlon="34.813720"/>
</metadata>
<wpt lat="30.6132100" lon="34.8033500">
 <time>2024-03-23T13:52:00.650Z</time>
 <name>St.</name>
 <sym>Bike Trail</sym>
</wpt>
<wpt lat="30.6062700" lon="34.8044200">
 <time>2024-03-23T13:52:00.674Z</time>
 <name>Mirpeset</name>
 <sym>Flag, Red</sym>
</wpt>
<wpt lat="30.7921300" lon="34.7688000">
 <time>2024-03-23T13:52:00.675Z</time>
 <name>Avdat</name>
 <sym>Flag, Red</sym>
</wpt>
<wpt lat="30.8408900" lon="34.7518900">
 <time>2024-03-23T13:52:00.676Z</time>
 <name>Tatspit</name>
 <sym>Flag, Red</sym>
</wpt>
<wpt lat="30.8491800" lon="34.7791700">
 <time>2024-03-23T13:52:00.676Z</time>
 <name>Fin</name>
 <sym>Pin, Blue</sym>
</wpt>
<trk>
 <name>MRamon-BGurion_Sin,53km.420m</name>
 <desc>MRamon-BGurion_Sin,53km.420m</desc>
<trkseg>
<trkpt lat="30.6132100" lon="34.8033100">
<ele>825.630005</ele>
<time>2024-03-23T13:52:00.676Z</time>
</trkpt>
<trkpt lat="30.6132100" lon="34.8033000">
<ele>825.709961</ele>
<time>2024-03-23T13:52:00.676Z</time>
</trkpt>
<trkpt lat="30.6131700" lon="34.8033200">
<ele>825.669983</ele>
<time>2024-03-23T13:52:00.676Z</time>
</trkpt>
<trkpt lat="30.6131500" lon="34.8033300">
<ele>825.679993</ele>
<time>2024-03-23T13:52:00.676Z</time>
</trkpt>
<trkpt lat="30.6131300" lon="34.8033300">
<ele>825.740051</ele>
<time>2024-03-23T13:52:00.676Z</time>
</trkpt>
<trkpt lat="30.6131100" lon="34.8033300">
<ele>825.809998</ele>
<time>2024-03-23T13:52:00.676Z</time>
</trkpt>
<trkpt lat="30.6130800" lon="34.8033200">
<ele>825.929993</ele>
<time>2024-03-23T13:52:00.676Z</time>
</trkpt>
<trkpt lat="30.6130300" lon="34.8032800">
<ele>825.999939</ele>
<time>2024-03-23T13:52:00.676Z</time>
</trkpt>
<trkpt lat="30.6129700" lon="34.8033900">
<ele>826.550049</ele>
<time>2024-03-23T13:52:00.676Z</time>
</trkpt>
<trkpt lat="30.6129400" lon="34.8034000">
<ele>826.619995</ele>
<time>2024-03-23T13:52:00.676Z</time>
</trkpt>
<trkpt lat="30.6129000" lon="34.8034000">
<ele>826.589966</ele>
<time>2024-03-23T13:52:00.676Z</time>
</trkpt>
<trkpt lat="30.6128000" lon="34.8033400">
<ele>826.049988</ele>
<time>2024-03-23T13:52:00.676Z</time>
</trkpt>
<trkpt lat="30.6127700" lon="34.8033800">
<ele>826.420044</ele>
<time>2024-03-23T13:52:00.676Z</time>
</trkpt>
<trkpt lat="30.6127000" lon="34.8034500">
<ele>827.679993</ele>
<time>2024-03-23T13:52:00.676Z</time>
</trkpt>
<trkpt lat="30.6126000" lon="34.8035500">
<ele>829.480042</ele>
<time>2024-03-23T13:52:00.676Z</time>
</trkpt>
<trkpt lat="30.6126200" lon="34.8035800">
<ele>829.480042</ele>
<time>2024-03-23T13:52:00.676Z</time>
</trkpt>
<trkpt lat="30.6126900" lon="34.8036200">
<ele>829.030029</ele>
<time>2024-03-23T13:52:00.676Z</time>
</trkpt>
<trkpt lat="30.6125400" lon="34.8036900">
<ele>831.179993</ele>
<time>2024-03-23T13:52:00.676Z</time>
</trkpt>
<trkpt lat="30.6124800" lon="34.8038900">
<ele>832.859985</ele>
<time>2024-03-23T13:52:00.676Z</time>
</trkpt>
<trkpt lat="30.6123100" lon="34.8038900">
<ele>831.630005</ele>
<time>2024-03-23T13:52:00.676Z</time>
</trkpt>
<trkpt lat="30.6121800" lon="34.8039500">
<ele>830.919983</ele>
<time>2024-03-23T13:52:00.676Z</time>
</trkpt>
<trkpt lat="30.6121400" lon="34.8039600">
<ele>830.960022</ele>
<time>2024-03-23T13:52:00.676Z</time>
</trkpt>
<trkpt lat="30.6121400" lon="34.8039600">
<ele>830.960022</ele>
<time>2024-03-23T13:52:00.676Z</time>
</trkpt>
<trkpt lat="30.6119700" lon="34.8040100">
<ele>830.399963</ele>
<time>2024-03-23T13:52:00.676Z</time>
</trkpt>
<trkpt lat="30.6118900" lon="34.8040700">
<ele>829.859985</ele>
<time>2024-03-23T13:52:00.676Z</time>
</trkpt>
<trkpt lat="30.6118100" lon="34.8041600">
<ele>829.530029</ele>
<time>2024-03-23T13:52:00.676Z</time>
</trkpt>
<trkpt lat="30.6116600" lon="34.8042800">
<ele>830.820007</ele>
<time>2024-03-23T13:52:00.676Z</time>
</trkpt>
<trkpt lat="30.6114700" lon="34.8043500">
<ele>831.440002</ele>
<time>2024-03-23T13:52:00.676Z</time>
</trkpt>
<trkpt lat="30.6112700" lon="34.8043100">
<ele>833.520020</ele>
<time>2024-03-23T13:52:00.676Z</time>
</trkpt>
<trkpt lat="30.6111800" lon="34.8043500">
<ele>833.780029</ele>
<time>2024-03-23T13:52:00.676Z</time>
</trkpt>
<trkpt lat="30.6111600" lon="34.8043700">
<ele>833.669983</ele>
<time>2024-03-23T13:52:00.676Z</time>
</trkpt>
<trkpt lat="30.6108400" lon="34.8046800">
<ele>831.980042</ele>
<time>2024-03-23T13:52:00.676Z</time>
</trkpt>
<trkpt lat="30.6108100" lon="34.8047200">
<ele>832.169983</ele>
<time>2024-03-23T13:52:00.676Z</time>
</trkpt>
<trkpt lat="30.6107800" lon="34.8046900">
<ele>832.359985</ele>
<time>2024-03-23T13:52:00.676Z</time>
</trkpt>
<trkpt lat="30.6106700" lon="34.8046300">
<ele>832.979980</ele>
<time>2024-03-23T13:52:00.676Z</time>
</trkpt>
<trkpt lat="30.6104200" lon="34.8045400">
<ele>834.640015</ele>
<time>2024-03-23T13:52:00.676Z</time>
</trkpt>
<trkpt lat="30.6095900" lon="34.8042100">
<ele>845.190002</ele>
<time>2024-03-23T13:52:00.676Z</time>
</trkpt>
<trkpt lat="30.6095300" lon="34.8041600">
<ele>847.060059</ele>
<time>2024-03-23T13:52:00.676Z</time>
</trkpt>
<trkpt lat="30.6093700" lon="34.8040500">
<ele>847.679993</ele>
<time>2024-03-23T13:52:00.676Z</time>
</trkpt>
<trkpt lat="30.6092000" lon="34.8039100">
<ele>848.779968</ele>
<time>2024-03-23T13:52:00.676Z</time>
</trkpt>
<trkpt lat="30.6086100" lon="34.8031600">
<ele>854.129944</ele>
<time>2024-03-23T13:52:00.676Z</time>
</trkpt>
<trkpt lat="30.6086100" lon="34.8031600">
<ele>854.129944</ele>
<time>2024-03-23T13:52:00.676Z</time>
</trkpt>
<trkpt lat="30.6084800" lon="34.8029800">
<ele>853.130005</ele>
<time>2024-03-23T13:52:00.676Z</time>
</trkpt>
<trkpt lat="30.6082800" lon="34.8027300">
<ele>851.420044</ele>
<time>2024-03-23T13:52:00.676Z</time>
</trkpt>
<trkpt lat="30.6082100" lon="34.8027900">
<ele>850.799988</ele>
<time>2024-03-23T13:52:00.676Z</time>
</trkpt>
<trkpt lat="30.6080000" lon="34.8029500">
<ele>850.740051</ele>
<time>2024-03-23T13:52:00.676Z</time>
</trkpt>
<trkpt lat="30.6074000" lon="34.8034100">
<ele>854.539978</ele>
<time>2024-03-23T13:52:00.676Z</time>
</trkpt>
<trkpt lat="30.6071100" lon="34.8036200">
<ele>854.939941</ele>
<time>2024-03-23T13:52:00.676Z</time>
</trkpt>
<trkpt lat="30.6068700" lon="34.8038200">
<ele>854.019958</ele>
<time>2024-03-23T13:52:00.676Z</time>
</trkpt>
<trkpt lat="30.6067600" lon="34.8038800">
<ele>855.970032</ele>
<time>2024-03-23T13:52:00.676Z</time>
</trkpt>
<trkpt lat="30.6066600" lon="34.8039700">
<ele>858.719971</ele>
<time>2024-03-23T13:52:00.676Z</time>
</trkpt>
<trkpt lat="30.6064200" lon="34.8041900">
<ele>859.380005</ele>
<time>2024-03-23T13:52:00.676Z</time>
</trkpt>
<trkpt lat="30.6063500" lon="34.8043000">
<ele>854.939941</ele>
<time>2024-03-23T13:52:00.676Z</time>
</trkpt>
<trkpt lat="30.6063500" lon="34.8043000">
<ele>854.939941</ele>
<time>2024-03-23T13:52:00.676Z</time>
</trkpt>
<trkpt lat="30.6063000" lon="34.8043700">
<ele>850.220032</ele>
<time>2024-03-23T13:52:00.676Z</time>
</trkpt>
<trkpt lat="30.6062700" lon="34.8044200">
<ele>846.379944</ele>
<time>2024-03-23T13:52:00.676Z</time>
</trkpt>
<trkpt lat="30.6063000" lon="34.8043700">
<ele>850.220032</ele>
<time>2024-03-23T13:52:00.676Z</time>
</trkpt>
<trkpt lat="30.6062600" lon="34.8043300">
<ele>850.549988</ele>
<time>2024-03-23T13:52:00.676Z</time>
</trkpt>
<trkpt lat="30.6062600" lon="34.8043300">
<ele>850.549988</ele>
<time>2024-03-23T13:52:00.676Z</time>
</trkpt>
<trkpt lat="30.6061100" lon="34.8042000">
<ele>855.250000</ele>
<time>2024-03-23T13:52:00.676Z</time>
</trkpt>
<trkpt lat="30.6060200" lon="34.8039600">
<ele>855.600037</ele>
<time>2024-03-23T13:52:00.676Z</time>
</trkpt>
<trkpt lat="30.6059600" lon="34.8038900">
<ele>856.049988</ele>
<time>2024-03-23T13:52:00.676Z</time>
</trkpt>
<trkpt lat="30.6058100" lon="34.8038400">
<ele>850.700012</ele>
<time>2024-03-23T13:52:00.676Z</time>
</trkpt>
<trkpt lat="30.6057800" lon="34.8037600">
<ele>850.350037</ele>
<time>2024-03-23T13:52:00.676Z</time>
</trkpt>
<trkpt lat="30.6057100" lon="34.8036900">
<ele>847.940002</ele>
<time>2024-03-23T13:52:00.676Z</time>
</trkpt>
<trkpt lat="30.6057000" lon="34.8036200">
<ele>850.830017</ele>
<time>2024-03-23T13:52:00.676Z</time>
</trkpt>
<trkpt lat="30.6056300" lon="34.8033600">
<ele>859.369995</ele>
<time>2024-03-23T13:52:00.676Z</time>
</trkpt>
<trkpt lat="30.6055200" lon="34.8032200">
<ele>858.440002</ele>
<time>2024-03-23T13:52:00.676Z</time>
</trkpt>
<trkpt lat="30.6053800" lon="34.8031300">
<ele>853.579956</ele>
<time>2024-03-23T13:52:00.676Z</time>
</trkpt>
<trkpt lat="30.6053200" lon="34.8029500">
<ele>857.270020</ele>
<time>2024-03-23T13:52:00.676Z</time>
</trkpt>
<trkpt lat="30.6053600" lon="34.8027300">
<ele>863.790039</ele>
<time>2024-03-23T13:52:00.676Z</time>
</trkpt>
<trkpt lat="30.6053900" lon="34.8026600">
<ele>865.890015</ele>
<time>2024-03-23T13:52:00.676Z</time>
</trkpt>
<trkpt lat="30.6054200" lon="34.8025200">
<ele>869.040039</ele>
<time>2024-03-23T13:52:00.676Z</time>
</trkpt>
<trkpt lat="30.6054600" lon="34.8022100">
<ele>867.890015</ele>
<time>2024-03-23T13:52:00.676Z</time>
</trkpt>
<trkpt lat="30.6055100" lon="34.8021600">
<ele>865.969971</ele>
<time>2024-03-23T13:52:00.676Z</time>
</trkpt>
<trkpt lat="30.6055100" lon="34.8021600">
<ele>865.969971</ele>
<time>2024-03-23T13:52:00.676Z</time>
</trkpt>
<trkpt lat="30.6055100" lon="34.8021600">
<ele>865.969971</ele>
<time>2024-03-23T13:52:00.676Z</time>
</trkpt>
<trkpt lat="30.6056700" lon="34.8020300">
<ele>858.860046</ele>
<time>2024-03-23T13:52:00.676Z</time>
</trkpt>
<trkpt lat="30.6051900" lon="34.8011700">
<ele>860.750000</ele>
<time>2024-03-23T13:52:00.676Z</time>
</trkpt>
<trkpt lat="30.6050800" lon="34.8009900">
<ele>857.679993</ele>
<time>2024-03-23T13:52:00.676Z</time>
</trkpt>
<trkpt lat="30.6049500" lon="34.8008300">
<ele>854.090027</ele>
<time>2024-03-23T13:52:00.676Z</time>
</trkpt>
<trkpt lat="30.6049200" lon="34.8008000">
<ele>853.469971</ele>
<time>2024-03-23T13:52:00.676Z</time>
</trkpt>
<trkpt lat="30.6048600" lon="34.8007500">
<ele>852.329956</ele>
<time>2024-03-23T13:52:00.676Z</time>
</trkpt>
<trkpt lat="30.6048300" lon="34.8007200">
<ele>851.779968</ele>
<time>2024-03-23T13:52:00.676Z</time>
</trkpt>
<trkpt lat="30.6047000" lon="34.8007400">
<ele>849.840027</ele>
<time>2024-03-23T13:52:00.676Z</time>
</trkpt>
<trkpt lat="30.6046300" lon="34.8007700">
<ele>849.340027</ele>
<time>2024-03-23T13:52:00.676Z</time>
</trkpt>
<trkpt lat="30.6045600" lon="34.8008100">
<ele>848.829956</ele>
<time>2024-03-23T13:52:00.676Z</time>
</trkpt>
<trkpt lat="30.6043600" lon="34.8008300">
<ele>847.099976</ele>
<time>2024-03-23T13:52:00.676Z</time>
</trkpt>
<trkpt lat="30.6042500" lon="34.8008700">
<ele>845.860046</ele>
<time>2024-03-23T13:52:00.676Z</time>
</trkpt>
<trkpt lat="30.6041600" lon="34.8008600">
<ele>844.989990</ele>
<time>2024-03-23T13:52:00.676Z</time>
</trkpt>
<trkpt lat="30.6040600" lon="34.8007800">
<ele>845.680054</ele>
<time>2024-03-23T13:52:00.676Z</time>
</trkpt>
<trkpt lat="30.6040600" lon="34.8007800">
<ele>845.680054</ele>
<time>2024-03-23T13:52:00.676Z</time>
</trkpt>
<trkpt lat="30.6039100" lon="34.8006700">
<ele>848.349976</ele>
<time>2024-03-23T13:52:00.676Z</time>
</trkpt>
<trkpt lat="30.6037700" lon="34.8005900">
<ele>852.820007</ele>
<time>2024-03-23T13:52:00.676Z</time>
</trkpt>
<trkpt lat="30.6036400" lon="34.8004900">
<ele>856.850037</ele>
<time>2024-03-23T13:52:00.676Z</time>
</trkpt>
<trkpt lat="30.6036000" lon="34.8004300">
<ele>857.840027</ele>
<time>2024-03-23T13:52:00.676Z</time>
</trkpt>
<trkpt lat="30.6036200" lon="34.8004100">
<ele>857.859985</ele>
<time>2024-03-23T13:52:00.676Z</time>
</trkpt>
<trkpt lat="30.6037200" lon="34.8003300">
<ele>856.269958</ele>
<time>2024-03-23T13:52:00.676Z</time>
</trkpt>
<trkpt lat="30.6037900" lon="34.8002200">
<ele>854.880005</ele>
<time>2024-03-23T13:52:00.676Z</time>
</trkpt>
<trkpt lat="30.6038200" lon="34.8001700">
<ele>853.809998</ele>
<time>2024-03-23T13:52:00.676Z</time>
</trkpt>
<trkpt lat="30.6038200" lon="34.8000900">
<ele>853.300049</ele>
<time>2024-03-23T13:52:00.676Z</time>
</trkpt>
<trkpt lat="30.6037800" lon="34.7999600">
<ele>853.670044</ele>
<time>2024-03-23T13:52:00.676Z</time>
</trkpt>
<trkpt lat="30.6037800" lon="34.7998900">
<ele>852.559998</ele>
<time>2024-03-23T13:52:00.676Z</time>
</trkpt>
<trkpt lat="30.6037800" lon="34.7998600">
<ele>852.080017</ele>
<time>2024-03-23T13:52:00.676Z</time>
</trkpt>
<trkpt lat="30.6037900" lon="34.7998300">
<ele>851.119995</ele>
<time>2024-03-23T13:52:00.676Z</time>
</trkpt>
<trkpt lat="30.6038400" lon="34.7996400">
<ele>846.330017</ele>
<time>2024-03-23T13:52:00.676Z</time>
</trkpt>
<trkpt lat="30.6038600" lon="34.7993500">
<ele>843.509949</ele>
<time>2024-03-23T13:52:00.676Z</time>
</trkpt>
<trkpt lat="30.6039800" lon="34.7990700">
<ele>838.920044</ele>
<time>2024-03-23T13:52:00.676Z</time>
</trkpt>
<trkpt lat="30.6040300" lon="34.7989500">
<ele>838.350037</ele>
<time>2024-03-23T13:52:00.676Z</time>
</trkpt>
<trkpt lat="30.6040500" lon="34.7988000">
<ele>839.190002</ele>
<time>2024-03-23T13:52:00.676Z</time>
</trkpt>
<trkpt lat="30.6040300" lon="34.7987200">
<ele>840.579956</ele>
<time>2024-03-23T13:52:00.676Z</time>
</trkpt>
<trkpt lat="30.6040200" lon="34.7986600">
<ele>841.549988</ele>
<time>2024-03-23T13:52:00.676Z</time>
</trkpt>
<trkpt lat="30.6039600" lon="34.7985000">
<ele>845.270020</ele>
<time>2024-03-23T13:52:00.676Z</time>
</trkpt>
<trkpt lat="30.6039600" lon="34.7985000">
<ele>845.270020</ele>
<time>2024-03-23T13:52:00.676Z</time>
</trkpt>
<trkpt lat="30.6039200" lon="34.7983900">
<ele>847.690002</ele>
<time>2024-03-23T13:52:00.676Z</time>
</trkpt>
<trkpt lat="30.6038800" lon="34.7983100">
<ele>849.179993</ele>
<time>2024-03-23T13:52:00.676Z</time>
</trkpt>
<trkpt lat="30.6037900" lon="34.7983100">
<ele>850.119995</ele>
<time>2024-03-23T13:52:00.676Z</time>
</trkpt>
<trkpt lat="30.6035500" lon="34.7984200">
<ele>854.119995</ele>
<time>2024-03-23T13:52:00.676Z</time>
</trkpt>
<trkpt lat="30.6035300" lon="34.7984300">
<ele>854.829956</ele>
<time>2024-03-23T13:52:00.676Z</time>
</trkpt>
<trkpt lat="30.6034500" lon="34.7985100">
<ele>857.959961</ele>
<time>2024-03-23T13:52:00.676Z</time>
</trkpt>
<trkpt lat="30.6033700" lon="34.7985400">
<ele>861.100037</ele>
<time>2024-03-23T13:52:00.676Z</time>
</trkpt>
<trkpt lat="30.6032200" lon="34.7985100">
<ele>863.270020</ele>
<time>2024-03-23T13:52:00.676Z</time>
</trkpt>
<trkpt lat="30.6030800" lon="34.7984000">
<ele>865.159973</ele>
<time>2024-03-23T13:52:00.676Z</time>
</trkpt>
<trkpt lat="30.6029600" lon="34.7982500">
<ele>860.720032</ele>
<time>2024-03-23T13:52:00.676Z</time>
</trkpt>
<trkpt lat="30.6028300" lon="34.7980500">
<ele>857.590027</ele>
<time>2024-03-23T13:52:00.676Z</time>
</trkpt>
<trkpt lat="30.6028500" lon="34.7979400">
<ele>859.489990</ele>
<time>2024-03-23T13:52:00.676Z</time>
</trkpt>
<trkpt lat="30.6028800" lon="34.7978900">
<ele>860.330017</ele>
<time>2024-03-23T13:52:00.676Z</time>
</trkpt>
<trkpt lat="30.6029400" lon="34.7977900">
<ele>860.820007</ele>
<time>2024-03-23T13:52:00.676Z</time>
</trkpt>
<trkpt lat="30.6031200" lon="34.7976300">
<ele>860.939941</ele>
<time>2024-03-23T13:52:00.676Z</time>
</trkpt>
<trkpt lat="30.6032300" lon="34.7974400">
<ele>861.940002</ele>
<time>2024-03-23T13:52:00.676Z</time>
</trkpt>
<trkpt lat="30.6032700" lon="34.7973800">
<ele>862.429993</ele>
<time>2024-03-23T13:52:00.676Z</time>
</trkpt>
<trkpt lat="30.6033500" lon="34.7972300">
<ele>864.210022</ele>
<time>2024-03-23T13:52:00.676Z</time>
</trkpt>
<trkpt lat="30.6033600" lon="34.7972100">
<ele>864.559998</ele>
<time>2024-03-23T13:52:00.676Z</time>
</trkpt>
<trkpt lat="30.6033600" lon="34.7972100">
<ele>864.559998</ele>
<time>2024-03-23T13:52:00.676Z</time>
</trkpt>
<trkpt lat="30.6034700" lon="34.7970200">
<ele>867.559998</ele>
<time>2024-03-23T13:52:00.676Z</time>
</trkpt>
<trkpt lat="30.6035300" lon="34.7969400">
<ele>868.830017</ele>
<time>2024-03-23T13:52:00.676Z</time>
</trkpt>
<trkpt lat="30.6035700" lon="34.7968600">
<ele>869.409973</ele>
<time>2024-03-23T13:52:00.676Z</time>
</trkpt>
<trkpt lat="30.6036000" lon="34.7968200">
<ele>869.839966</ele>
<time>2024-03-23T13:52:00.676Z</time>
</trkpt>
<trkpt lat="30.6035800" lon="34.7968100">
<ele>869.549988</ele>
<time>2024-03-23T13:52:00.676Z</time>
</trkpt>
<trkpt lat="30.6035300" lon="34.7967700">
<ele>868.830017</ele>
<time>2024-03-23T13:52:00.676Z</time>
</trkpt>
<trkpt lat="30.6035000" lon="34.7967200">
<ele>868.399963</ele>
<time>2024-03-23T13:52:00.676Z</time>
</trkpt>
<trkpt lat="30.6034900" lon="34.7966600">
<ele>868.159973</ele>
<time>2024-03-23T13:52:00.676Z</time>
</trkpt>
<trkpt lat="30.6034900" lon="34.7966000">
<ele>867.310059</ele>
<time>2024-03-23T13:52:00.676Z</time>
</trkpt>
<trkpt lat="30.6035100" lon="34.7965400">
<ele>866.510010</ele>
<time>2024-03-23T13:52:00.676Z</time>
</trkpt>
<trkpt lat="30.6035400" lon="34.7964900">
<ele>865.659973</ele>
<time>2024-03-23T13:52:00.676Z</time>
</trkpt>
<trkpt lat="30.6034100" lon="34.7961900">
<ele>861.910034</ele>
<time>2024-03-23T13:52:00.676Z</time>
</trkpt>
<trkpt lat="30.6033300" lon="34.7960600">
<ele>860.539978</ele>
<time>2024-03-23T13:52:00.676Z</time>
</trkpt>
<trkpt lat="30.6032200" lon="34.7959800">
<ele>858.440002</ele>
<time>2024-03-23T13:52:00.676Z</time>
</trkpt>
<trkpt lat="30.6031000" lon="34.7957900">
<ele>852.989990</ele>
<time>2024-03-23T13:52:00.676Z</time>
</trkpt>
<trkpt lat="30.6029500" lon="34.7957000">
<ele>851.140015</ele>
<time>2024-03-23T13:52:00.676Z</time>
</trkpt>
<trkpt lat="30.6027900" lon="34.7956800">
<ele>850.590027</ele>
<time>2024-03-23T13:52:00.676Z</time>
</trkpt>
<trkpt lat="30.6026800" lon="34.7956300">
<ele>846.679993</ele>
<time>2024-03-23T13:52:00.676Z</time>
</trkpt>
<trkpt lat="30.6026200" lon="34.7954900">
<ele>842.019958</ele>
<time>2024-03-23T13:52:00.676Z</time>
</trkpt>
<trkpt lat="30.6026600" lon="34.7953500">
<ele>841.299988</ele>
<time>2024-03-23T13:52:00.676Z</time>
</trkpt>
<trkpt lat="30.6027800" lon="34.7952100">
<ele>844.489990</ele>
<time>2024-03-23T13:52:00.676Z</time>
</trkpt>
<trkpt lat="30.6028500" lon="34.7950500">
<ele>843.009949</ele>
<time>2024-03-23T13:52:00.676Z</time>
</trkpt>
<trkpt lat="30.6028800" lon="34.7948700">
<ele>841.519958</ele>
<time>2024-03-23T13:52:00.676Z</time>
</trkpt>
<trkpt lat="30.6028800" lon="34.7948700">
<ele>841.519958</ele>
<time>2024-03-23T13:52:00.676Z</time>
</trkpt>
<trkpt lat="30.6028500" lon="34.7947600">
<ele>840.789978</ele>
<time>2024-03-23T13:52:00.676Z</time>
</trkpt>
<trkpt lat="30.6028400" lon="34.7947500">
<ele>840.769958</ele>
<time>2024-03-23T13:52:00.676Z</time>
</trkpt>
<trkpt lat="30.6027600" lon="34.7946600">
<ele>841.530029</ele>
<time>2024-03-23T13:52:00.676Z</time>
</trkpt>
<trkpt lat="30.6025400" lon="34.7945600">
<ele>840.540039</ele>
<time>2024-03-23T13:52:00.676Z</time>
</trkpt>
<trkpt lat="30.6024100" lon="34.7944900">
<ele>840.349976</ele>
<time>2024-03-23T13:52:00.676Z</time>
</trkpt>
<trkpt lat="30.6023600" lon="34.7944300">
<ele>841.029968</ele>
<time>2024-03-23T13:52:00.676Z</time>
</trkpt>
<trkpt lat="30.6023200" lon="34.7943800">
<ele>841.079956</ele>
<time>2024-03-23T13:52:00.676Z</time>
</trkpt>
<trkpt lat="30.6023200" lon="34.7942800">
<ele>841.209961</ele>
<time>2024-03-23T13:52:00.676Z</time>
</trkpt>
<trkpt lat="30.6023200" lon="34.7942800">
<ele>841.209961</ele>
<time>2024-03-23T13:52:00.676Z</time>
</trkpt>
<trkpt lat="30.6023900" lon="34.7939700">
<ele>845.290039</ele>
<time>2024-03-23T13:52:00.676Z</time>
</trkpt>
<trkpt lat="30.6024000" lon="34.7937600">
<ele>847.679993</ele>
<time>2024-03-23T13:52:00.676Z</time>
</trkpt>
<trkpt lat="30.6023500" lon="34.7936200">
<ele>847.789978</ele>
<time>2024-03-23T13:52:00.676Z</time>
</trkpt>
<trkpt lat="30.6023400" lon="34.7935800">
<ele>847.809998</ele>
<time>2024-03-23T13:52:00.676Z</time>
</trkpt>
<trkpt lat="30.6022600" lon="34.7934500">
<ele>847.119995</ele>
<time>2024-03-23T13:52:00.676Z</time>
</trkpt>
<trkpt lat="30.6022100" lon="34.7933800">
<ele>846.529968</ele>
<time>2024-03-23T13:52:00.676Z</time>
</trkpt>
<trkpt lat="30.6020600" lon="34.7931400">
<ele>848.420044</ele>
<time>2024-03-23T13:52:00.676Z</time>
</trkpt>
<trkpt lat="30.6020000" lon="34.7929400">
<ele>851.320007</ele>
<time>2024-03-23T13:52:00.676Z</time>
</trkpt>
<trkpt lat="30.6020800" lon="34.7928300">
<ele>851.829956</ele>
<time>2024-03-23T13:52:00.676Z</time>
</trkpt>
<trkpt lat="30.6021900" lon="34.7927000">
<ele>851.970032</ele>
<time>2024-03-23T13:52:00.676Z</time>
</trkpt>
<trkpt lat="30.6022100" lon="34.7926600">
<ele>852.299988</ele>
<time>2024-03-23T13:52:00.676Z</time>
</trkpt>
<trkpt lat="30.6022300" lon="34.7926300">
<ele>852.549988</ele>
<time>2024-03-23T13:52:00.676Z</time>
</trkpt>
<trkpt lat="30.6022300" lon="34.7926300">
<ele>852.549988</ele>
<time>2024-03-23T13:52:00.676Z</time>
</trkpt>
<trkpt lat="30.6023500" lon="34.7924100">
<ele>852.470032</ele>
<time>2024-03-23T13:52:00.676Z</time>
</trkpt>
<trkpt lat="30.6024500" lon="34.7922300">
<ele>850.740051</ele>
<time>2024-03-23T13:52:00.676Z</time>
</trkpt>
<trkpt lat="30.6024500" lon="34.7922300">
<ele>850.740051</ele>
<time>2024-03-23T13:52:00.676Z</time>
</trkpt>
<trkpt lat="30.6026100" lon="34.7919300">
<ele>852.899963</ele>
<time>2024-03-23T13:52:00.676Z</time>
</trkpt>
<trkpt lat="30.6026500" lon="34.7916700">
<ele>855.059998</ele>
<time>2024-03-23T13:52:00.676Z</time>
</trkpt>
<trkpt lat="30.6027100" lon="34.7915600">
<ele>854.840027</ele>
<time>2024-03-23T13:52:00.676Z</time>
</trkpt>
<trkpt lat="30.6028100" lon="34.7915000">
<ele>854.890015</ele>
<time>2024-03-23T13:52:00.676Z</time>
</trkpt>
<trkpt lat="30.6028100" lon="34.7915000">
<ele>854.890015</ele>
<time>2024-03-23T13:52:00.676Z</time>
</trkpt>
<trkpt lat="30.6028600" lon="34.7914700">
<ele>854.920044</ele>
<time>2024-03-23T13:52:00.676Z</time>
</trkpt>
<trkpt lat="30.6030100" lon="34.7912900">
<ele>855.140015</ele>
<time>2024-03-23T13:52:00.676Z</time>
</trkpt>
<trkpt lat="30.6030500" lon="34.7911300">
<ele>854.970032</ele>
<time>2024-03-23T13:52:00.676Z</time>
</trkpt>
<trkpt lat="30.6031400" lon="34.7908900">
<ele>853.830017</ele>
<time>2024-03-23T13:52:00.676Z</time>
</trkpt>
<trkpt lat="30.6032700" lon="34.7906400">
<ele>852.620056</ele>
<time>2024-03-23T13:52:00.676Z</time>
</trkpt>
<trkpt lat="30.6035300" lon="34.7902800">
<ele>848.459961</ele>
<time>2024-03-23T13:52:00.676Z</time>
</trkpt>
<trkpt lat="30.6035300" lon="34.7902800">
<ele>848.459961</ele>
<time>2024-03-23T13:52:00.676Z</time>
</trkpt>
<trkpt lat="30.6036500" lon="34.7901200">
<ele>847.079956</ele>
<time>2024-03-23T13:52:00.676Z</time>
</trkpt>
<trkpt lat="30.6038000" lon="34.7899900">
<ele>848.569946</ele>
<time>2024-03-23T13:52:00.676Z</time>
</trkpt>
<trkpt lat="30.6040200" lon="34.7896700">
<ele>846.789978</ele>
<time>2024-03-23T13:52:00.676Z</time>
</trkpt>
<trkpt lat="30.6043000" lon="34.7893100">
<ele>846.979980</ele>
<time>2024-03-23T13:52:00.676Z</time>
</trkpt>
<trkpt lat="30.6044400" lon="34.7891200">
<ele>845.279968</ele>
<time>2024-03-23T13:52:00.676Z</time>
</trkpt>
<trkpt lat="30.6047000" lon="34.7887600">
<ele>842.799988</ele>
<time>2024-03-23T13:52:00.676Z</time>
</trkpt>
<trkpt lat="30.6049900" lon="34.7882300">
<ele>844.950012</ele>
<time>2024-03-23T13:52:00.676Z</time>
</trkpt>
<trkpt lat="30.6050100" lon="34.7882000">
<ele>844.929993</ele>
<time>2024-03-23T13:52:00.676Z</time>
</trkpt>
<trkpt lat="30.6051300" lon="34.7879500">
<ele>842.349976</ele>
<time>2024-03-23T13:52:00.676Z</time>
</trkpt>
<trkpt lat="30.6052600" lon="34.7877000">
<ele>840.700012</ele>
<time>2024-03-23T13:52:00.676Z</time>
</trkpt>
<trkpt lat="30.6053000" lon="34.7875200">
<ele>837.599976</ele>
<time>2024-03-23T13:52:00.676Z</time>
</trkpt>
<trkpt lat="30.6053500" lon="34.7874200">
<ele>835.929993</ele>
<time>2024-03-23T13:52:00.676Z</time>
</trkpt>
<trkpt lat="30.6054400" lon="34.7872400">
<ele>832.389954</ele>
<time>2024-03-23T13:52:00.676Z</time>
</trkpt>
<trkpt lat="30.6054400" lon="34.7872400">
<ele>832.389954</ele>
<time>2024-03-23T13:52:00.676Z</time>
</trkpt>
<trkpt lat="30.6055000" lon="34.7870800">
<ele>830.769958</ele>
<time>2024-03-23T13:52:00.676Z</time>
</trkpt>
<trkpt lat="30.6056300" lon="34.7869300">
<ele>830.039978</ele>
<time>2024-03-23T13:52:00.676Z</time>
</trkpt>
<trkpt lat="30.6059100" lon="34.7867600">
<ele>832.339966</ele>
<time>2024-03-23T13:52:00.676Z</time>
</trkpt>
<trkpt lat="30.6061100" lon="34.7867600">
<ele>830.669983</ele>
<time>2024-03-23T13:52:00.676Z</time>
</trkpt>
<trkpt lat="30.6063200" lon="34.7867800">
<ele>831.119995</ele>
<time>2024-03-23T13:52:00.676Z</time>
</trkpt>
<trkpt lat="30.6064200" lon="34.7867800">
<ele>831.139954</ele>
<time>2024-03-23T13:52:00.676Z</time>
</trkpt>
<trkpt lat="30.6065900" lon="34.7867200">
<ele>830.780029</ele>
<time>2024-03-23T13:52:00.676Z</time>
</trkpt>
<trkpt lat="30.6068500" lon="34.7866900">
<ele>829.840027</ele>
<time>2024-03-23T13:52:00.676Z</time>
</trkpt>
<trkpt lat="30.6068600" lon="34.7865800">
<ele>831.549988</ele>
<time>2024-03-23T13:52:00.676Z</time>
</trkpt>
<trkpt lat="30.6068000" lon="34.7864300">
<ele>833.929993</ele>
<time>2024-03-23T13:52:00.676Z</time>
</trkpt>
<trkpt lat="30.6065900" lon="34.7862300">
<ele>838.270020</ele>
<time>2024-03-23T13:52:00.676Z</time>
</trkpt>
<trkpt lat="30.6063100" lon="34.7860100">
<ele>845.099976</ele>
<time>2024-03-23T13:52:00.676Z</time>
</trkpt>
<trkpt lat="30.6062900" lon="34.7859700">
<ele>845.739990</ele>
<time>2024-03-23T13:52:00.676Z</time>
</trkpt>
<trkpt lat="30.6062900" lon="34.7859700">
<ele>845.739990</ele>
<time>2024-03-23T13:52:00.676Z</time>
</trkpt>
<trkpt lat="30.6061200" lon="34.7857200">
<ele>847.989990</ele>
<time>2024-03-23T13:52:00.676Z</time>
</trkpt>
<trkpt lat="30.6059200" lon="34.7851100">
<ele>843.830017</ele>
<time>2024-03-23T13:52:00.676Z</time>
</trkpt>
<trkpt lat="30.6058000" lon="34.7849700">
<ele>840.429993</ele>
<time>2024-03-23T13:52:00.676Z</time>
</trkpt>
<trkpt lat="30.6055900" lon="34.7847500">
<ele>835.229980</ele>
<time>2024-03-23T13:52:00.676Z</time>
</trkpt>
<trkpt lat="30.6055400" lon="34.7843400">
<ele>838.770020</ele>
<time>2024-03-23T13:52:00.676Z</time>
</trkpt>
<trkpt lat="30.6055400" lon="34.7843400">
<ele>838.770020</ele>
<time>2024-03-23T13:52:00.676Z</time>
</trkpt>
<trkpt lat="30.6054900" lon="34.7839700">
<ele>843.150024</ele>
<time>2024-03-23T13:52:00.676Z</time>
</trkpt>
<trkpt lat="30.6054500" lon="34.7838000">
<ele>844.700012</ele>
<time>2024-03-23T13:52:00.676Z</time>
</trkpt>
<trkpt lat="30.6053300" lon="34.7836500">
<ele>845.239990</ele>
<time>2024-03-23T13:52:00.676Z</time>
</trkpt>
<trkpt lat="30.6050700" lon="34.7835500">
<ele>841.940002</ele>
<time>2024-03-23T13:52:00.676Z</time>
</trkpt>
<trkpt lat="30.6047400" lon="34.7836300">
<ele>842.609985</ele>
<time>2024-03-23T13:52:00.676Z</time>
</trkpt>
<trkpt lat="30.6044800" lon="34.7835900">
<ele>849.289978</ele>
<time>2024-03-23T13:52:00.676Z</time>
</trkpt>
<trkpt lat="30.6042300" lon="34.7834400">
<ele>850.460022</ele>
<time>2024-03-23T13:52:00.676Z</time>
</trkpt>
<trkpt lat="30.6040000" lon="34.7833600">
<ele>849.780029</ele>
<time>2024-03-23T13:52:00.676Z</time>
</trkpt>
<trkpt lat="30.6040000" lon="34.7833600">
<ele>849.780029</ele>
<time>2024-03-23T13:52:00.676Z</time>
</trkpt>
<trkpt lat="30.6038700" lon="34.7833100">
<ele>848.640015</ele>
<time>2024-03-23T13:52:00.676Z</time>
</trkpt>
<trkpt lat="30.6036400" lon="34.7833200">
<ele>845.320007</ele>
<time>2024-03-23T13:52:00.676Z</time>
</trkpt>
<trkpt lat="30.6034800" lon="34.7833900">
<ele>844.200012</ele>
<time>2024-03-23T13:52:00.676Z</time>
</trkpt>
<trkpt lat="30.6033800" lon="34.7835200">
<ele>844.519958</ele>
<time>2024-03-23T13:52:00.676Z</time>
</trkpt>
<trkpt lat="30.6033000" lon="34.7834400">
<ele>842.789978</ele>
<time>2024-03-23T13:52:00.676Z</time>
</trkpt>
<trkpt lat="30.6032600" lon="34.7833900">
<ele>841.820007</ele>
<time>2024-03-23T13:52:00.676Z</time>
</trkpt>
<trkpt lat="30.6030900" lon="34.7831900">
<ele>840.210022</ele>
<time>2024-03-23T13:52:00.676Z</time>
</trkpt>
<trkpt lat="30.6029200" lon="34.7830200">
<ele>842.550049</ele>
<time>2024-03-23T13:52:00.676Z</time>
</trkpt>
<trkpt lat="30.6028100" lon="34.7830500">
<ele>842.880005</ele>
<time>2024-03-23T13:52:00.676Z</time>
</trkpt>
<trkpt lat="30.6028100" lon="34.7830500">
<ele>842.880005</ele>
<time>2024-03-23T13:52:00.676Z</time>
</trkpt>
<trkpt lat="30.6026400" lon="34.7831000">
<ele>843.670044</ele>
<time>2024-03-23T13:52:00.676Z</time>
</trkpt>
<trkpt lat="30.6023700" lon="34.7831200">
<ele>844.280029</ele>
<time>2024-03-23T13:52:00.676Z</time>
</trkpt>
<trkpt lat="30.6021700" lon="34.7831600">
<ele>842.270020</ele>
<time>2024-03-23T13:52:00.676Z</time>
</trkpt>
<trkpt lat="30.6021000" lon="34.7831200">
<ele>839.310059</ele>
<time>2024-03-23T13:52:00.676Z</time>
</trkpt>
<trkpt lat="30.6021000" lon="34.7831200">
<ele>839.310059</ele>
<time>2024-03-23T13:52:00.676Z</time>
</trkpt>
<trkpt lat="30.6020600" lon="34.7831000">
<ele>837.340027</ele>
<time>2024-03-23T13:52:00.676Z</time>
</trkpt>
<trkpt lat="30.6020300" lon="34.7829700">
<ele>832.400024</ele>
<time>2024-03-23T13:52:00.676Z</time>
</trkpt>
<trkpt lat="30.6020600" lon="34.7827900">
<ele>829.380005</ele>
<time>2024-03-23T13:52:00.676Z</time>
</trkpt>
<trkpt lat="30.6021800" lon="34.7826400">
<ele>835.500061</ele>
<time>2024-03-23T13:52:00.676Z</time>
</trkpt>
<trkpt lat="30.6023000" lon="34.7825600">
<ele>840.330017</ele>
<time>2024-03-23T13:52:00.676Z</time>
</trkpt>
<trkpt lat="30.6025800" lon="34.7822300">
<ele>848.059998</ele>
<time>2024-03-23T13:52:00.676Z</time>
</trkpt>
<trkpt lat="30.6027000" lon="34.7819900">
<ele>846.119934</ele>
<time>2024-03-23T13:52:00.676Z</time>
</trkpt>
<trkpt lat="30.6027900" lon="34.7819500">
<ele>846.219971</ele>
<time>2024-03-23T13:52:00.676Z</time>
</trkpt>
<trkpt lat="30.6028900" lon="34.7819400">
<ele>846.750000</ele>
<time>2024-03-23T13:52:00.676Z</time>
</trkpt>
<trkpt lat="30.6029300" lon="34.7820300">
<ele>848.070007</ele>
<time>2024-03-23T13:52:00.676Z</time>
</trkpt>
<trkpt lat="30.6029300" lon="34.7821000">
<ele>848.869995</ele>
<time>2024-03-23T13:52:00.676Z</time>
</trkpt>
<trkpt lat="30.6029300" lon="34.7821900">
<ele>849.890015</ele>
<time>2024-03-23T13:52:00.676Z</time>
</trkpt>
<trkpt lat="30.6029600" lon="34.7822100">
<ele>849.609985</ele>
<time>2024-03-23T13:52:00.676Z</time>
</trkpt>
<trkpt lat="30.6029600" lon="34.7822100">
<ele>849.609985</ele>
<time>2024-03-23T13:52:00.676Z</time>
</trkpt>
<trkpt lat="30.6030200" lon="34.7822600">
<ele>848.760010</ele>
<time>2024-03-23T13:52:00.676Z</time>
</trkpt>
<trkpt lat="30.6031300" lon="34.7823300">
<ele>847.969971</ele>
<time>2024-03-23T13:52:00.676Z</time>
</trkpt>
<trkpt lat="30.6032900" lon="34.7824400">
<ele>846.139954</ele>
<time>2024-03-23T13:52:00.676Z</time>
</trkpt>
<trkpt lat="30.6034200" lon="34.7824600">
<ele>845.880005</ele>
<time>2024-03-23T13:52:00.676Z</time>
</trkpt>
<trkpt lat="30.6038000" lon="34.7824500">
<ele>850.109985</ele>
<time>2024-03-23T13:52:00.676Z</time>
</trkpt>
<trkpt lat="30.6039800" lon="34.7824800">
<ele>851.900024</ele>
<time>2024-03-23T13:52:00.676Z</time>
</trkpt>
<trkpt lat="30.6041300" lon="34.7824500">
<ele>853.430054</ele>
<time>2024-03-23T13:52:00.676Z</time>
</trkpt>
<trkpt lat="30.6041900" lon="34.7824200">
<ele>854.489990</ele>
<time>2024-03-23T13:52:00.676Z</time>
</trkpt>
<trkpt lat="30.6042500" lon="34.7823300">
<ele>856.650024</ele>
<time>2024-03-23T13:52:00.676Z</time>
</trkpt>
<trkpt lat="30.6043500" lon="34.7822900">
<ele>858.659973</ele>
<time>2024-03-23T13:52:00.676Z</time>
</trkpt>
<trkpt lat="30.6044200" lon="34.7823200">
<ele>859.239990</ele>
<time>2024-03-23T13:52:00.676Z</time>
</trkpt>
<trkpt lat="30.6044700" lon="34.7823900">
<ele>858.730042</ele>
<time>2024-03-23T13:52:00.676Z</time>
</trkpt>
<trkpt lat="30.6045200" lon="34.7825500">
<ele>857.140015</ele>
<time>2024-03-23T13:52:00.676Z</time>
</trkpt>
<trkpt lat="30.6046000" lon="34.7826700">
<ele>856.549988</ele>
<time>2024-03-23T13:52:00.676Z</time>
</trkpt>
<trkpt lat="30.6047700" lon="34.7827800">
<ele>855.979980</ele>
<time>2024-03-23T13:52:00.676Z</time>
</trkpt>
<trkpt lat="30.6050700" lon="34.7828500">
<ele>854.849976</ele>
<time>2024-03-23T13:52:00.676Z</time>
</trkpt>
<trkpt lat="30.6052800" lon="34.7828400">
<ele>853.750000</ele>
<time>2024-03-23T13:52:00.676Z</time>
</trkpt>
<trkpt lat="30.6054600" lon="34.7827200">
<ele>851.589966</ele>
<time>2024-03-23T13:52:00.676Z</time>
</trkpt>
<trkpt lat="30.6056300" lon="34.7826800">
<ele>850.059937</ele>
<time>2024-03-23T13:52:00.676Z</time>
</trkpt>
<trkpt lat="30.6057500" lon="34.7827200">
<ele>850.669983</ele>
<time>2024-03-23T13:52:00.676Z</time>
</trkpt>
<trkpt lat="30.6058200" lon="34.7828100">
<ele>852.479980</ele>
<time>2024-03-23T13:52:00.676Z</time>
</trkpt>
<trkpt lat="30.6058100" lon="34.7829300">
<ele>854.530029</ele>
<time>2024-03-23T13:52:00.676Z</time>
</trkpt>
<trkpt lat="30.6057900" lon="34.7830500">
<ele>856.440002</ele>
<time>2024-03-23T13:52:00.676Z</time>
</trkpt>
<trkpt lat="30.6061300" lon="34.7835500">
<ele>858.270020</ele>
<time>2024-03-23T13:52:00.676Z</time>
</trkpt>
<trkpt lat="30.6062700" lon="34.7838300">
<ele>856.659973</ele>
<time>2024-03-23T13:52:00.676Z</time>
</trkpt>
<trkpt lat="30.6062700" lon="34.7838300">
<ele>856.659973</ele>
<time>2024-03-23T13:52:00.676Z</time>
</trkpt>
<trkpt lat="30.6063400" lon="34.7839700">
<ele>856.119995</ele>
<time>2024-03-23T13:52:00.676Z</time>
</trkpt>
<trkpt lat="30.6065000" lon="34.7843800">
<ele>855.309998</ele>
<time>2024-03-23T13:52:00.676Z</time>
</trkpt>
<trkpt lat="30.6065800" lon="34.7845100">
<ele>856.090027</ele>
<time>2024-03-23T13:52:00.676Z</time>
</trkpt>
<trkpt lat="30.6067300" lon="34.7845600">
<ele>856.969971</ele>
<time>2024-03-23T13:52:00.676Z</time>
</trkpt>
<trkpt lat="30.6070000" lon="34.7845500">
<ele>857.630005</ele>
<time>2024-03-23T13:52:00.676Z</time>
</trkpt>
<trkpt lat="30.6072200" lon="34.7846300">
<ele>858.329956</ele>
<time>2024-03-23T13:52:00.676Z</time>
</trkpt>
<trkpt lat="30.6074400" lon="34.7846500">
<ele>857.270020</ele>
<time>2024-03-23T13:52:00.676Z</time>
</trkpt>
<trkpt lat="30.6077300" lon="34.7845800">
<ele>854.519958</ele>
<time>2024-03-23T13:52:00.676Z</time>
</trkpt>
<trkpt lat="30.6080300" lon="34.7846400">
<ele>852.080017</ele>
<time>2024-03-23T13:52:00.676Z</time>
</trkpt>
<trkpt lat="30.6084500" lon="34.7846400">
<ele>845.019958</ele>
<time>2024-03-23T13:52:00.676Z</time>
</trkpt>
<trkpt lat="30.6086300" lon="34.7847000">
<ele>842.080017</ele>
<time>2024-03-23T13:52:00.676Z</time>
</trkpt>
<trkpt lat="30.6087800" lon="34.7848300">
<ele>841.859985</ele>
<time>2024-03-23T13:52:00.676Z</time>
</trkpt>
<trkpt lat="30.6089700" lon="34.7852800">
<ele>846.210022</ele>
<time>2024-03-23T13:52:00.676Z</time>
</trkpt>
<trkpt lat="30.6090600" lon="34.7855600">
<ele>852.320007</ele>
<time>2024-03-23T13:52:00.676Z</time>
</trkpt>
<trkpt lat="30.6092300" lon="34.7858300">
<ele>860.599976</ele>
<time>2024-03-23T13:52:00.676Z</time>
</trkpt>
<trkpt lat="30.6099100" lon="34.7864400">
<ele>859.430054</ele>
<time>2024-03-23T13:52:00.676Z</time>
</trkpt>
<trkpt lat="30.6101200" lon="34.7865900">
<ele>853.619995</ele>
<time>2024-03-23T13:52:00.676Z</time>
</trkpt>
<trkpt lat="30.6102400" lon="34.7867800">
<ele>850.350037</ele>
<time>2024-03-23T13:52:00.676Z</time>
</trkpt>
<trkpt lat="30.6104000" lon="34.7869400">
<ele>847.369995</ele>
<time>2024-03-23T13:52:00.676Z</time>
</trkpt>
<trkpt lat="30.6104600" lon="34.7869300">
<ele>846.130005</ele>
<time>2024-03-23T13:52:00.676Z</time>
</trkpt>
<trkpt lat="30.6105700" lon="34.7868500">
<ele>844.700012</ele>
<time>2024-03-23T13:52:00.676Z</time>
</trkpt>
<trkpt lat="30.6107300" lon="34.7866100">
<ele>845.119995</ele>
<time>2024-03-23T13:52:00.676Z</time>
</trkpt>
<trkpt lat="30.6109400" lon="34.7865100">
<ele>842.500000</ele>
<time>2024-03-23T13:52:00.676Z</time>
</trkpt>
<trkpt lat="30.6114100" lon="34.7863300">
<ele>841.140015</ele>
<time>2024-03-23T13:52:00.676Z</time>
</trkpt>
<trkpt lat="30.6115000" lon="34.7862000">
<ele>840.219971</ele>
<time>2024-03-23T13:52:00.676Z</time>
</trkpt>
<trkpt lat="30.6115100" lon="34.7860300">
<ele>838.380005</ele>
<time>2024-03-23T13:52:00.676Z</time>
</trkpt>
<trkpt lat="30.6114100" lon="34.7858200">
<ele>835.989990</ele>
<time>2024-03-23T13:52:00.676Z</time>
</trkpt>
<trkpt lat="30.6114000" lon="34.7856500">
<ele>834.830017</ele>
<time>2024-03-23T13:52:00.676Z</time>
</trkpt>
<trkpt lat="30.6115100" lon="34.7854800">
<ele>837.109985</ele>
<time>2024-03-23T13:52:00.676Z</time>
</trkpt>
<trkpt lat="30.6117400" lon="34.7854100">
<ele>842.539978</ele>
<time>2024-03-23T13:52:00.676Z</time>
</trkpt>
<trkpt lat="30.6118600" lon="34.7853500">
<ele>845.619995</ele>
<time>2024-03-23T13:52:00.676Z</time>
</trkpt>
<trkpt lat="30.6120800" lon="34.7851000">
<ele>846.819946</ele>
<time>2024-03-23T13:52:00.676Z</time>
</trkpt>
<trkpt lat="30.6123800" lon="34.7850300">
<ele>843.590027</ele>
<time>2024-03-23T13:52:00.676Z</time>
</trkpt>
<trkpt lat="30.6127000" lon="34.7849500">
<ele>840.819946</ele>
<time>2024-03-23T13:52:00.676Z</time>
</trkpt>
<trkpt lat="30.6129300" lon="34.7849900">
<ele>840.679993</ele>
<time>2024-03-23T13:52:00.676Z</time>
</trkpt>
<trkpt lat="30.6131300" lon="34.7849700">
<ele>841.779968</ele>
<time>2024-03-23T13:52:00.676Z</time>
</trkpt>
<trkpt lat="30.6132900" lon="34.7850600">
<ele>840.980042</ele>
<time>2024-03-23T13:52:00.676Z</time>
</trkpt>
<trkpt lat="30.6135400" lon="34.7853300">
<ele>841.250000</ele>
<time>2024-03-23T13:52:00.676Z</time>
</trkpt>
<trkpt lat="30.6136400" lon="34.7855200">
<ele>841.549988</ele>
<time>2024-03-23T13:52:00.676Z</time>
</trkpt>
<trkpt lat="30.6138300" lon="34.7856900">
<ele>842.500000</ele>
<time>2024-03-23T13:52:00.676Z</time>
</trkpt>
<trkpt lat="30.6141100" lon="34.7857900">
<ele>840.599976</ele>
<time>2024-03-23T13:52:00.676Z</time>
</trkpt>
<trkpt lat="30.6143200" lon="34.7857900">
<ele>837.309998</ele>
<time>2024-03-23T13:52:00.676Z</time>
</trkpt>
<trkpt lat="30.6144400" lon="34.7858900">
<ele>835.480042</ele>
<time>2024-03-23T13:52:00.676Z</time>
</trkpt>
<trkpt lat="30.6145700" lon="34.7862200">
<ele>838.059998</ele>
<time>2024-03-23T13:52:00.676Z</time>
</trkpt>
<trkpt lat="30.6147400" lon="34.7863200">
<ele>838.820007</ele>
<time>2024-03-23T13:52:00.676Z</time>
</trkpt>
<trkpt lat="30.6149000" lon="34.7863100">
<ele>839.359985</ele>
<time>2024-03-23T13:52:00.676Z</time>
</trkpt>
<trkpt lat="30.6149900" lon="34.7862500">
<ele>839.459961</ele>
<time>2024-03-23T13:52:00.676Z</time>
</trkpt>
<trkpt lat="30.6150900" lon="34.7860700">
<ele>839.050049</ele>
<time>2024-03-23T13:52:00.676Z</time>
</trkpt>
<trkpt lat="30.6152900" lon="34.7859400">
<ele>839.569946</ele>
<time>2024-03-23T13:52:00.676Z</time>
</trkpt>
<trkpt lat="30.6154900" lon="34.7859900">
<ele>838.669983</ele>
<time>2024-03-23T13:52:00.676Z</time>
</trkpt>
<trkpt lat="30.6155900" lon="34.7859600">
<ele>838.979980</ele>
<time>2024-03-23T13:52:00.676Z</time>
</trkpt>
<trkpt lat="30.6155900" lon="34.7859600">
<ele>838.979980</ele>
<time>2024-03-23T13:52:00.676Z</time>
</trkpt>
<trkpt lat="30.6156400" lon="34.7859400">
<ele>839.719971</ele>
<time>2024-03-23T13:52:00.676Z</time>
</trkpt>
<trkpt lat="30.6158100" lon="34.7858100">
<ele>842.699951</ele>
<time>2024-03-23T13:52:00.676Z</time>
</trkpt>
<trkpt lat="30.6160800" lon="34.7857000">
<ele>847.049988</ele>
<time>2024-03-23T13:52:00.676Z</time>
</trkpt>
<trkpt lat="30.6161500" lon="34.7856200">
<ele>846.830017</ele>
<time>2024-03-23T13:52:00.676Z</time>
</trkpt>
<trkpt lat="30.6162400" lon="34.7854500">
<ele>844.480042</ele>
<time>2024-03-23T13:52:00.676Z</time>
</trkpt>
<trkpt lat="30.6164200" lon="34.7853200">
<ele>842.510010</ele>
<time>2024-03-23T13:52:00.676Z</time>
</trkpt>
<trkpt lat="30.6165600" lon="34.7852900">
<ele>841.590027</ele>
<time>2024-03-23T13:52:00.676Z</time>
</trkpt>
<trkpt lat="30.6167400" lon="34.7853300">
<ele>842.059998</ele>
<time>2024-03-23T13:52:00.676Z</time>
</trkpt>
<trkpt lat="30.6169100" lon="34.7852600">
<ele>841.799988</ele>
<time>2024-03-23T13:52:00.676Z</time>
</trkpt>
<trkpt lat="30.6171700" lon="34.7850500">
<ele>839.990051</ele>
<time>2024-03-23T13:52:00.676Z</time>
</trkpt>
<trkpt lat="30.6173000" lon="34.7850200">
<ele>838.409973</ele>
<time>2024-03-23T13:52:00.676Z</time>
</trkpt>
<trkpt lat="30.6174200" lon="34.7850600">
<ele>837.419983</ele>
<time>2024-03-23T13:52:00.676Z</time>
</trkpt>
<trkpt lat="30.6176000" lon="34.7851700">
<ele>836.340027</ele>
<time>2024-03-23T13:52:00.676Z</time>
</trkpt>
<trkpt lat="30.6177500" lon="34.7852000">
<ele>834.850037</ele>
<time>2024-03-23T13:52:00.676Z</time>
</trkpt>
<trkpt lat="30.6179800" lon="34.7850500">
<ele>838.289978</ele>
<time>2024-03-23T13:52:00.676Z</time>
</trkpt>
<trkpt lat="30.6180700" lon="34.7849800">
<ele>839.799988</ele>
<time>2024-03-23T13:52:00.676Z</time>
</trkpt>
<trkpt lat="30.6182100" lon="34.7849800">
<ele>841.350037</ele>
<time>2024-03-23T13:52:00.676Z</time>
</trkpt>
<trkpt lat="30.6183500" lon="34.7850800">
<ele>841.669983</ele>
<time>2024-03-23T13:52:00.676Z</time>
</trkpt>
<trkpt lat="30.6185000" lon="34.7851000">
<ele>839.760010</ele>
<time>2024-03-23T13:52:00.676Z</time>
</trkpt>
<trkpt lat="30.6186200" lon="34.7850700">
<ele>838.920044</ele>
<time>2024-03-23T13:52:00.676Z</time>
</trkpt>
<trkpt lat="30.6188000" lon="34.7848200">
<ele>839.520020</ele>
<time>2024-03-23T13:52:00.676Z</time>
</trkpt>
<trkpt lat="30.6188700" lon="34.7846700">
<ele>840.700012</ele>
<time>2024-03-23T13:52:00.676Z</time>
</trkpt>
<trkpt lat="30.6189300" lon="34.7843500">
<ele>838.580017</ele>
<time>2024-03-23T13:52:00.676Z</time>
</trkpt>
<trkpt lat="30.6190000" lon="34.7841900">
<ele>836.169983</ele>
<time>2024-03-23T13:52:00.676Z</time>
</trkpt>
<trkpt lat="30.6191400" lon="34.7840700">
<ele>833.069946</ele>
<time>2024-03-23T13:52:00.676Z</time>
</trkpt>
<trkpt lat="30.6194000" lon="34.7840700">
<ele>825.380005</ele>
<time>2024-03-23T13:52:00.676Z</time>
</trkpt>
<trkpt lat="30.6196200" lon="34.7841600">
<ele>819.000000</ele>
<time>2024-03-23T13:52:00.676Z</time>
</trkpt>
<trkpt lat="30.6197500" lon="34.7841600">
<ele>816.299988</ele>
<time>2024-03-23T13:52:00.676Z</time>
</trkpt>
<trkpt lat="30.6199100" lon="34.7840900">
<ele>819.020020</ele>
<time>2024-03-23T13:52:00.676Z</time>
</trkpt>
<trkpt lat="30.6201700" lon="34.7841000">
<ele>825.330017</ele>
<time>2024-03-23T13:52:00.676Z</time>
</trkpt>
<trkpt lat="30.6203300" lon="34.7841800">
<ele>828.399963</ele>
<time>2024-03-23T13:52:00.676Z</time>
</trkpt>
<trkpt lat="30.6204900" lon="34.7844000">
<ele>833.160034</ele>
<time>2024-03-23T13:52:00.676Z</time>
</trkpt>
<trkpt lat="30.6205800" lon="34.7847000">
<ele>829.039978</ele>
<time>2024-03-23T13:52:00.676Z</time>
</trkpt>
<trkpt lat="30.6210300" lon="34.7851700">
<ele>827.979980</ele>
<time>2024-03-23T13:52:00.676Z</time>
</trkpt>
<trkpt lat="30.6213100" lon="34.7855200">
<ele>829.929993</ele>
<time>2024-03-23T13:52:00.676Z</time>
</trkpt>
<trkpt lat="30.6216100" lon="34.7856100">
<ele>828.449951</ele>
<time>2024-03-23T13:52:00.676Z</time>
</trkpt>
<trkpt lat="30.6217600" lon="34.7858100">
<ele>826.959961</ele>
<time>2024-03-23T13:52:00.676Z</time>
</trkpt>
<trkpt lat="30.6219800" lon="34.7858700">
<ele>821.830017</ele>
<time>2024-03-23T13:52:00.676Z</time>
</trkpt>
<trkpt lat="30.6221200" lon="34.7859900">
<ele>817.650024</ele>
<time>2024-03-23T13:52:00.676Z</time>
</trkpt>
<trkpt lat="30.6222700" lon="34.7862200">
<ele>809.880005</ele>
<time>2024-03-23T13:52:00.676Z</time>
</trkpt>
<trkpt lat="30.6224200" lon="34.7862900">
<ele>803.799988</ele>
<time>2024-03-23T13:52:00.676Z</time>
</trkpt>
<trkpt lat="30.6225600" lon="34.7863100">
<ele>798.890015</ele>
<time>2024-03-23T13:52:00.676Z</time>
</trkpt>
<trkpt lat="30.6227500" lon="34.7862500">
<ele>793.949951</ele>
<time>2024-03-23T13:52:00.676Z</time>
</trkpt>
<trkpt lat="30.6232300" lon="34.7862700">
<ele>782.279968</ele>
<time>2024-03-23T13:52:00.676Z</time>
</trkpt>
<trkpt lat="30.6233500" lon="34.7862100">
<ele>785.750000</ele>
<time>2024-03-23T13:52:00.676Z</time>
</trkpt>
<trkpt lat="30.6234500" lon="34.7859500">
<ele>793.910034</ele>
<time>2024-03-23T13:52:00.676Z</time>
</trkpt>
<trkpt lat="30.6235100" lon="34.7856200">
<ele>799.159973</ele>
<time>2024-03-23T13:52:00.676Z</time>
</trkpt>
<trkpt lat="30.6232800" lon="34.7851500">
<ele>803.059998</ele>
<time>2024-03-23T13:52:00.676Z</time>
</trkpt>
<trkpt lat="30.6231400" lon="34.7849100">
<ele>806.690063</ele>
<time>2024-03-23T13:52:00.676Z</time>
</trkpt>
<trkpt lat="30.6231200" lon="34.7846100">
<ele>805.130005</ele>
<time>2024-03-23T13:52:00.676Z</time>
</trkpt>
<trkpt lat="30.6230300" lon="34.7843700">
<ele>804.770020</ele>
<time>2024-03-23T13:52:00.676Z</time>
</trkpt>
<trkpt lat="30.6230800" lon="34.7840800">
<ele>803.770020</ele>
<time>2024-03-23T13:52:00.676Z</time>
</trkpt>
<trkpt lat="30.6230700" lon="34.7838600">
<ele>803.489990</ele>
<time>2024-03-23T13:52:00.676Z</time>
</trkpt>
<trkpt lat="30.6230900" lon="34.7838000">
<ele>802.620056</ele>
<time>2024-03-23T13:52:00.676Z</time>
</trkpt>
<trkpt lat="30.6232100" lon="34.7836600">
<ele>800.220032</ele>
<time>2024-03-23T13:52:00.676Z</time>
</trkpt>
<trkpt lat="30.6232400" lon="34.7835400">
<ele>799.239990</ele>
<time>2024-03-23T13:52:00.676Z</time>
</trkpt>
<trkpt lat="30.6232400" lon="34.7835400">
<ele>799.239990</ele>
<time>2024-03-23T13:52:00.676Z</time>
</trkpt>
<trkpt lat="30.6232700" lon="34.7834300">
<ele>798.510010</ele>
<time>2024-03-23T13:52:00.676Z</time>
</trkpt>
<trkpt lat="30.6233900" lon="34.7832500">
<ele>797.759949</ele>
<time>2024-03-23T13:52:00.676Z</time>
</trkpt>
<trkpt lat="30.6235500" lon="34.7831700">
<ele>797.870056</ele>
<time>2024-03-23T13:52:00.676Z</time>
</trkpt>
<trkpt lat="30.6238100" lon="34.7831700">
<ele>798.000061</ele>
<time>2024-03-23T13:52:00.676Z</time>
</trkpt>
<trkpt lat="30.6240000" lon="34.7832800">
<ele>797.599976</ele>
<time>2024-03-23T13:52:00.676Z</time>
</trkpt>
<trkpt lat="30.6240400" lon="34.7833000">
<ele>797.460022</ele>
<time>2024-03-23T13:52:00.676Z</time>
</trkpt>
<trkpt lat="30.6242100" lon="34.7833700">
<ele>797.779968</ele>
<time>2024-03-23T13:52:00.676Z</time>
</trkpt>
<trkpt lat="30.6244400" lon="34.7833500">
<ele>801.059998</ele>
<time>2024-03-23T13:52:00.676Z</time>
</trkpt>
<trkpt lat="30.6245800" lon="34.7832900">
<ele>802.399963</ele>
<time>2024-03-23T13:52:00.676Z</time>
</trkpt>
<trkpt lat="30.6246100" lon="34.7832700">
<ele>802.609985</ele>
<time>2024-03-23T13:52:00.676Z</time>
</trkpt>
<trkpt lat="30.6247100" lon="34.7831800">
<ele>803.139954</ele>
<time>2024-03-23T13:52:00.676Z</time>
</trkpt>
<trkpt lat="30.6247700" lon="34.7830200">
<ele>801.080017</ele>
<time>2024-03-23T13:52:00.676Z</time>
</trkpt>
<trkpt lat="30.6248500" lon="34.7829100">
<ele>799.179993</ele>
<time>2024-03-23T13:52:00.676Z</time>
</trkpt>
<trkpt lat="30.6249800" lon="34.7828600">
<ele>798.580017</ele>
<time>2024-03-23T13:52:00.676Z</time>
</trkpt>
<trkpt lat="30.6251300" lon="34.7829000">
<ele>801.070007</ele>
<time>2024-03-23T13:52:00.676Z</time>
</trkpt>
<trkpt lat="30.6252400" lon="34.7829900">
<ele>802.730042</ele>
<time>2024-03-23T13:52:00.676Z</time>
</trkpt>
<trkpt lat="30.6254000" lon="34.7831200">
<ele>802.880005</ele>
<time>2024-03-23T13:52:00.676Z</time>
</trkpt>
<trkpt lat="30.6256200" lon="34.7831800">
<ele>803.029968</ele>
<time>2024-03-23T13:52:00.676Z</time>
</trkpt>
<trkpt lat="30.6258200" lon="34.7831000">
<ele>807.539978</ele>
<time>2024-03-23T13:52:00.676Z</time>
</trkpt>
<trkpt lat="30.6262100" lon="34.7830100">
<ele>807.119995</ele>
<time>2024-03-23T13:52:00.676Z</time>
</trkpt>
<trkpt lat="30.6263800" lon="34.7830300">
<ele>805.860046</ele>
<time>2024-03-23T13:52:00.676Z</time>
</trkpt>
<trkpt lat="30.6264800" lon="34.7831400">
<ele>807.070007</ele>
<time>2024-03-23T13:52:00.676Z</time>
</trkpt>
<trkpt lat="30.6264700" lon="34.7833000">
<ele>807.119995</ele>
<time>2024-03-23T13:52:00.676Z</time>
</trkpt>
<trkpt lat="30.6265000" lon="34.7834700">
<ele>806.029968</ele>
<time>2024-03-23T13:52:00.676Z</time>
</trkpt>
<trkpt lat="30.6266200" lon="34.7835300">
<ele>806.139954</ele>
<time>2024-03-23T13:52:00.676Z</time>
</trkpt>
<trkpt lat="30.6267900" lon="34.7834800">
<ele>809.560059</ele>
<time>2024-03-23T13:52:00.676Z</time>
</trkpt>
<trkpt lat="30.6270500" lon="34.7834800">
<ele>815.120056</ele>
<time>2024-03-23T13:52:00.676Z</time>
</trkpt>
<trkpt lat="30.6271700" lon="34.7835500">
<ele>815.949951</ele>
<time>2024-03-23T13:52:00.676Z</time>
</trkpt>
<trkpt lat="30.6271900" lon="34.7837200">
<ele>810.429993</ele>
<time>2024-03-23T13:52:00.676Z</time>
</trkpt>
<trkpt lat="30.6271900" lon="34.7839100">
<ele>803.520020</ele>
<time>2024-03-23T13:52:00.676Z</time>
</trkpt>
<trkpt lat="30.6272900" lon="34.7840100">
<ele>802.429993</ele>
<time>2024-03-23T13:52:00.676Z</time>
</trkpt>
<trkpt lat="30.6275400" lon="34.7839800">
<ele>814.899963</ele>
<time>2024-03-23T13:52:00.676Z</time>
</trkpt>
<trkpt lat="30.6276400" lon="34.7840200">
<ele>815.689941</ele>
<time>2024-03-23T13:52:00.676Z</time>
</trkpt>
<trkpt lat="30.6278600" lon="34.7842300">
<ele>814.340027</ele>
<time>2024-03-23T13:52:00.676Z</time>
</trkpt>
<trkpt lat="30.6279500" lon="34.7842600">
<ele>817.290039</ele>
<time>2024-03-23T13:52:00.676Z</time>
</trkpt>
<trkpt lat="30.6280000" lon="34.7843500">
<ele>816.530029</ele>
<time>2024-03-23T13:52:00.676Z</time>
</trkpt>
<trkpt lat="30.6280100" lon="34.7844700">
<ele>813.119995</ele>
<time>2024-03-23T13:52:00.676Z</time>
</trkpt>
<trkpt lat="30.6279300" lon="34.7846200">
<ele>805.860046</ele>
<time>2024-03-23T13:52:00.676Z</time>
</trkpt>
<trkpt lat="30.6279300" lon="34.7847400">
<ele>803.079956</ele>
<time>2024-03-23T13:52:00.676Z</time>
</trkpt>
<trkpt lat="30.6280100" lon="34.7848200">
<ele>803.510010</ele>
<time>2024-03-23T13:52:00.676Z</time>
</trkpt>
<trkpt lat="30.6281900" lon="34.7848500">
<ele>809.369995</ele>
<time>2024-03-23T13:52:00.676Z</time>
</trkpt>
<trkpt lat="30.6284800" lon="34.7849900">
<ele>816.450012</ele>
<time>2024-03-23T13:52:00.676Z</time>
</trkpt>
<trkpt lat="30.6285800" lon="34.7850700">
<ele>818.340027</ele>
<time>2024-03-23T13:52:00.676Z</time>
</trkpt>
<trkpt lat="30.6287100" lon="34.7850900">
<ele>818.330017</ele>
<time>2024-03-23T13:52:00.676Z</time>
</trkpt>
<trkpt lat="30.6288800" lon="34.7851800">
<ele>816.090027</ele>
<time>2024-03-23T13:52:00.676Z</time>
</trkpt>
<trkpt lat="30.6289700" lon="34.7851600">
<ele>814.809998</ele>
<time>2024-03-23T13:52:00.676Z</time>
</trkpt>
<trkpt lat="30.6290400" lon="34.7850800">
<ele>814.420044</ele>
<time>2024-03-23T13:52:00.676Z</time>
</trkpt>
<trkpt lat="30.6290700" lon="34.7849800">
<ele>814.910034</ele>
<time>2024-03-23T13:52:00.676Z</time>
</trkpt>
<trkpt lat="30.6290800" lon="34.7848200">
<ele>816.099976</ele>
<time>2024-03-23T13:52:00.676Z</time>
</trkpt>
<trkpt lat="30.6291100" lon="34.7846300">
<ele>816.940002</ele>
<time>2024-03-23T13:52:00.676Z</time>
</trkpt>
<trkpt lat="30.6291200" lon="34.7846300">
<ele>816.839966</ele>
<time>2024-03-23T13:52:00.676Z</time>
</trkpt>
<trkpt lat="30.6292000" lon="34.7842600">
<ele>816.419983</ele>
<time>2024-03-23T13:52:00.676Z</time>
</trkpt>
<trkpt lat="30.6293400" lon="34.7839400">
<ele>813.799988</ele>
<time>2024-03-23T13:52:00.676Z</time>
</trkpt>
<trkpt lat="30.6294800" lon="34.7838000">
<ele>815.080017</ele>
<time>2024-03-23T13:52:00.676Z</time>
</trkpt>
<trkpt lat="30.6296700" lon="34.7837600">
<ele>815.510010</ele>
<time>2024-03-23T13:52:00.676Z</time>
</trkpt>
<trkpt lat="30.6298600" lon="34.7838100">
<ele>815.269958</ele>
<time>2024-03-23T13:52:00.676Z</time>
</trkpt>
<trkpt lat="30.6299700" lon="34.7837800">
<ele>815.899963</ele>
<time>2024-03-23T13:52:00.676Z</time>
</trkpt>
<trkpt lat="30.6301000" lon="34.7838300">
<ele>817.070007</ele>
<time>2024-03-23T13:52:00.676Z</time>
</trkpt>
<trkpt lat="30.6302000" lon="34.7839500">
<ele>819.859985</ele>
<time>2024-03-23T13:52:00.676Z</time>
</trkpt>
<trkpt lat="30.6302100" lon="34.7842000">
<ele>824.030029</ele>
<time>2024-03-23T13:52:00.676Z</time>
</trkpt>
<trkpt lat="30.6303700" lon="34.7845300">
<ele>827.529968</ele>
<time>2024-03-23T13:52:00.676Z</time>
</trkpt>
<trkpt lat="30.6304400" lon="34.7847600">
<ele>826.250000</ele>
<time>2024-03-23T13:52:00.676Z</time>
</trkpt>
<trkpt lat="30.6307700" lon="34.7854200">
<ele>823.070007</ele>
<time>2024-03-23T13:52:00.676Z</time>
</trkpt>
<trkpt lat="30.6308600" lon="34.7855700">
<ele>824.840027</ele>
<time>2024-03-23T13:52:00.676Z</time>
</trkpt>
<trkpt lat="30.6309700" lon="34.7856000">
<ele>828.940002</ele>
<time>2024-03-23T13:52:00.676Z</time>
</trkpt>
<trkpt lat="30.6311000" lon="34.7855900">
<ele>834.780029</ele>
<time>2024-03-23T13:52:00.676Z</time>
</trkpt>
<trkpt lat="30.6312700" lon="34.7856300">
<ele>837.980042</ele>
<time>2024-03-23T13:52:00.676Z</time>
</trkpt>
<trkpt lat="30.6314900" lon="34.7858300">
<ele>838.119995</ele>
<time>2024-03-23T13:52:00.676Z</time>
</trkpt>
<trkpt lat="30.6317100" lon="34.7862400">
<ele>833.520020</ele>
<time>2024-03-23T13:52:00.676Z</time>
</trkpt>
<trkpt lat="30.6317800" lon="34.7865300">
<ele>829.510010</ele>
<time>2024-03-23T13:52:00.676Z</time>
</trkpt>
<trkpt lat="30.6318000" lon="34.7868300">
<ele>826.599976</ele>
<time>2024-03-23T13:52:00.676Z</time>
</trkpt>
<trkpt lat="30.6319200" lon="34.7871200">
<ele>827.470032</ele>
<time>2024-03-23T13:52:00.676Z</time>
</trkpt>
<trkpt lat="30.6319600" lon="34.7872500">
<ele>827.089966</ele>
<time>2024-03-23T13:52:00.676Z</time>
</trkpt>
<trkpt lat="30.6319600" lon="34.7872500">
<ele>827.089966</ele>
<time>2024-03-23T13:52:00.676Z</time>
</trkpt>
<trkpt lat="30.6320200" lon="34.7875100">
<ele>818.049988</ele>
<time>2024-03-23T13:52:00.676Z</time>
</trkpt>
<trkpt lat="30.6321300" lon="34.7875800">
<ele>815.070007</ele>
<time>2024-03-23T13:52:00.676Z</time>
</trkpt>
<trkpt lat="30.6324500" lon="34.7876800">
<ele>813.090027</ele>
<time>2024-03-23T13:52:00.676Z</time>
</trkpt>
<trkpt lat="30.6325700" lon="34.7878000">
<ele>808.669983</ele>
<time>2024-03-23T13:52:00.676Z</time>
</trkpt>
<trkpt lat="30.6326900" lon="34.7878400">
<ele>807.959961</ele>
<time>2024-03-23T13:52:00.676Z</time>
</trkpt>
<trkpt lat="30.6327800" lon="34.7877900">
<ele>809.619995</ele>
<time>2024-03-23T13:52:00.676Z</time>
</trkpt>
<trkpt lat="30.6329400" lon="34.7875900">
<ele>816.179993</ele>
<time>2024-03-23T13:52:00.676Z</time>
</trkpt>
<trkpt lat="30.6330300" lon="34.7874500">
<ele>823.909973</ele>
<time>2024-03-23T13:52:00.676Z</time>
</trkpt>
<trkpt lat="30.6331100" lon="34.7873900">
<ele>825.070007</ele>
<time>2024-03-23T13:52:00.676Z</time>
</trkpt>
<trkpt lat="30.6333500" lon="34.7873300">
<ele>823.849976</ele>
<time>2024-03-23T13:52:00.676Z</time>
</trkpt>
<trkpt lat="30.6334900" lon="34.7872800">
<ele>822.610046</ele>
<time>2024-03-23T13:52:00.676Z</time>
</trkpt>
<trkpt lat="30.6336500" lon="34.7872900">
<ele>819.489990</ele>
<time>2024-03-23T13:52:00.676Z</time>
</trkpt>
<trkpt lat="30.6337600" lon="34.7873400">
<ele>816.499939</ele>
<time>2024-03-23T13:52:00.676Z</time>
</trkpt>
<trkpt lat="30.6338500" lon="34.7875200">
<ele>817.619995</ele>
<time>2024-03-23T13:52:00.676Z</time>
</trkpt>
<trkpt lat="30.6338500" lon="34.7875200">
<ele>817.619995</ele>
<time>2024-03-23T13:52:00.676Z</time>
</trkpt>
<trkpt lat="30.6339200" lon="34.7876100">
<ele>817.400024</ele>
<time>2024-03-23T13:52:00.676Z</time>
</trkpt>
<trkpt lat="30.6340700" lon="34.7877400">
<ele>815.029968</ele>
<time>2024-03-23T13:52:00.676Z</time>
</trkpt>
<trkpt lat="30.6341200" lon="34.7878800">
<ele>814.229980</ele>
<time>2024-03-23T13:52:00.676Z</time>
</trkpt>
<trkpt lat="30.6341200" lon="34.7880800">
<ele>814.380005</ele>
<time>2024-03-23T13:52:00.676Z</time>
</trkpt>
<trkpt lat="30.6340100" lon="34.7883000">
<ele>816.619995</ele>
<time>2024-03-23T13:52:00.676Z</time>
</trkpt>
<trkpt lat="30.6339000" lon="34.7884300">
<ele>819.499939</ele>
<time>2024-03-23T13:52:00.676Z</time>
</trkpt>
<trkpt lat="30.6338500" lon="34.7886100">
<ele>819.590027</ele>
<time>2024-03-23T13:52:00.676Z</time>
</trkpt>
<trkpt lat="30.6340100" lon="34.7890400">
<ele>817.119995</ele>
<time>2024-03-23T13:52:00.676Z</time>
</trkpt>
<trkpt lat="30.6341400" lon="34.7891600">
<ele>816.960022</ele>
<time>2024-03-23T13:52:00.676Z</time>
</trkpt>
<trkpt lat="30.6342500" lon="34.7891900">
<ele>814.940002</ele>
<time>2024-03-23T13:52:00.676Z</time>
</trkpt>
<trkpt lat="30.6344500" lon="34.7893500">
<ele>812.520020</ele>
<time>2024-03-23T13:52:00.676Z</time>
</trkpt>
<trkpt lat="30.6345200" lon="34.7894700">
<ele>812.309998</ele>
<time>2024-03-23T13:52:00.676Z</time>
</trkpt>
<trkpt lat="30.6346700" lon="34.7895400">
<ele>809.839966</ele>
<time>2024-03-23T13:52:00.676Z</time>
</trkpt>
<trkpt lat="30.6347700" lon="34.7895100">
<ele>807.710022</ele>
<time>2024-03-23T13:52:00.676Z</time>
</trkpt>
<trkpt lat="30.6348900" lon="34.7893800">
<ele>802.979980</ele>
<time>2024-03-23T13:52:00.676Z</time>
</trkpt>
<trkpt lat="30.6350500" lon="34.7892900">
<ele>799.010010</ele>
<time>2024-03-23T13:52:00.676Z</time>
</trkpt>
<trkpt lat="30.6354600" lon="34.7893500">
<ele>795.970032</ele>
<time>2024-03-23T13:52:00.676Z</time>
</trkpt>
<trkpt lat="30.6357500" lon="34.7893100">
<ele>791.119995</ele>
<time>2024-03-23T13:52:00.676Z</time>
</trkpt>
<trkpt lat="30.6360200" lon="34.7894600">
<ele>792.690002</ele>
<time>2024-03-23T13:52:00.676Z</time>
</trkpt>
<trkpt lat="30.6363400" lon="34.7895000">
<ele>792.890015</ele>
<time>2024-03-23T13:52:00.676Z</time>
</trkpt>
<trkpt lat="30.6364900" lon="34.7896200">
<ele>795.829956</ele>
<time>2024-03-23T13:52:00.676Z</time>
</trkpt>
<trkpt lat="30.6365900" lon="34.7898700">
<ele>799.329956</ele>
<time>2024-03-23T13:52:00.676Z</time>
</trkpt>
<trkpt lat="30.6367600" lon="34.7902300">
<ele>804.190002</ele>
<time>2024-03-23T13:52:00.676Z</time>
</trkpt>
<trkpt lat="30.6369900" lon="34.7904200">
<ele>803.779968</ele>
<time>2024-03-23T13:52:00.676Z</time>
</trkpt>
<trkpt lat="30.6371200" lon="34.7906500">
<ele>805.380005</ele>
<time>2024-03-23T13:52:00.676Z</time>
</trkpt>
<trkpt lat="30.6372800" lon="34.7907900">
<ele>803.579956</ele>
<time>2024-03-23T13:52:00.676Z</time>
</trkpt>
<trkpt lat="30.6375900" lon="34.7908600">
<ele>795.929993</ele>
<time>2024-03-23T13:52:00.676Z</time>
</trkpt>
<trkpt lat="30.6377100" lon="34.7909600">
<ele>796.849976</ele>
<time>2024-03-23T13:52:00.676Z</time>
</trkpt>
<trkpt lat="30.6378800" lon="34.7911900">
<ele>797.590027</ele>
<time>2024-03-23T13:52:00.676Z</time>
</trkpt>
<trkpt lat="30.6380100" lon="34.7912400">
<ele>796.010010</ele>
<time>2024-03-23T13:52:00.676Z</time>
</trkpt>
<trkpt lat="30.6380400" lon="34.7912400">
<ele>795.750000</ele>
<time>2024-03-23T13:52:00.676Z</time>
</trkpt>
<trkpt lat="30.6380400" lon="34.7912400">
<ele>795.750000</ele>
<time>2024-03-23T13:52:00.676Z</time>
</trkpt>
<trkpt lat="30.6381600" lon="34.7912200">
<ele>791.130005</ele>
<time>2024-03-23T13:52:00.676Z</time>
</trkpt>
<trkpt lat="30.6383000" lon="34.7911200">
<ele>783.080017</ele>
<time>2024-03-23T13:52:00.676Z</time>
</trkpt>
<trkpt lat="30.6384800" lon="34.7910900">
<ele>778.200012</ele>
<time>2024-03-23T13:52:00.676Z</time>
</trkpt>
<trkpt lat="30.6386400" lon="34.7911500">
<ele>777.010010</ele>
<time>2024-03-23T13:52:00.676Z</time>
</trkpt>
<trkpt lat="30.6388200" lon="34.7913100">
<ele>779.070007</ele>
<time>2024-03-23T13:52:00.676Z</time>
</trkpt>
<trkpt lat="30.6389300" lon="34.7915200">
<ele>782.250000</ele>
<time>2024-03-23T13:52:00.676Z</time>
</trkpt>
<trkpt lat="30.6391200" lon="34.7916800">
<ele>785.710022</ele>
<time>2024-03-23T13:52:00.676Z</time>
</trkpt>
<trkpt lat="30.6391800" lon="34.7918300">
<ele>789.669983</ele>
<time>2024-03-23T13:52:00.676Z</time>
</trkpt>
<trkpt lat="30.6391700" lon="34.7919800">
<ele>793.230042</ele>
<time>2024-03-23T13:52:00.676Z</time>
</trkpt>
<trkpt lat="30.6390500" lon="34.7921100">
<ele>794.859985</ele>
<time>2024-03-23T13:52:00.676Z</time>
</trkpt>
<trkpt lat="30.6389500" lon="34.7923400">
<ele>796.559998</ele>
<time>2024-03-23T13:52:00.676Z</time>
</trkpt>
<trkpt lat="30.6389400" lon="34.7925900">
<ele>796.899963</ele>
<time>2024-03-23T13:52:00.676Z</time>
</trkpt>
<trkpt lat="30.6391300" lon="34.7928500">
<ele>795.200012</ele>
<time>2024-03-23T13:52:00.676Z</time>
</trkpt>
<trkpt lat="30.6392100" lon="34.7930900">
<ele>792.860046</ele>
<time>2024-03-23T13:52:00.676Z</time>
</trkpt>
<trkpt lat="30.6393000" lon="34.7932100">
<ele>790.450012</ele>
<time>2024-03-23T13:52:00.676Z</time>
</trkpt>
<trkpt lat="30.6394100" lon="34.7932400">
<ele>787.070007</ele>
<time>2024-03-23T13:52:00.676Z</time>
</trkpt>
<trkpt lat="30.6394700" lon="34.7931700">
<ele>785.460022</ele>
<time>2024-03-23T13:52:00.676Z</time>
</trkpt>
<trkpt lat="30.6394900" lon="34.7930900">
<ele>785.140015</ele>
<time>2024-03-23T13:52:00.676Z</time>
</trkpt>
<trkpt lat="30.6394200" lon="34.7929300">
<ele>788.389954</ele>
<time>2024-03-23T13:52:00.676Z</time>
</trkpt>
<trkpt lat="30.6394300" lon="34.7927900">
<ele>790.089966</ele>
<time>2024-03-23T13:52:00.676Z</time>
</trkpt>
<trkpt lat="30.6395900" lon="34.7925700">
<ele>787.899963</ele>
<time>2024-03-23T13:52:00.676Z</time>
</trkpt>
<trkpt lat="30.6396800" lon="34.7923500">
<ele>786.690002</ele>
<time>2024-03-23T13:52:00.676Z</time>
</trkpt>
<trkpt lat="30.6397800" lon="34.7922400">
<ele>784.579956</ele>
<time>2024-03-23T13:52:00.676Z</time>
</trkpt>
<trkpt lat="30.6398600" lon="34.7922100">
<ele>782.370056</ele>
<time>2024-03-23T13:52:00.676Z</time>
</trkpt>
<trkpt lat="30.6400400" lon="34.7922700">
<ele>778.549988</ele>
<time>2024-03-23T13:52:00.676Z</time>
</trkpt>
<trkpt lat="30.6403400" lon="34.7922800">
<ele>771.849976</ele>
<time>2024-03-23T13:52:00.676Z</time>
</trkpt>
<trkpt lat="30.6405400" lon="34.7922400">
<ele>769.099976</ele>
<time>2024-03-23T13:52:00.676Z</time>
</trkpt>
<trkpt lat="30.6409000" lon="34.7921900">
<ele>765.020020</ele>
<time>2024-03-23T13:52:00.676Z</time>
</trkpt>
<trkpt lat="30.6410700" lon="34.7922500">
<ele>765.130005</ele>
<time>2024-03-23T13:52:00.676Z</time>
</trkpt>
<trkpt lat="30.6412200" lon="34.7923500">
<ele>766.950012</ele>
<time>2024-03-23T13:52:00.676Z</time>
</trkpt>
<trkpt lat="30.6414700" lon="34.7923800">
<ele>768.720032</ele>
<time>2024-03-23T13:52:00.676Z</time>
</trkpt>
<trkpt lat="30.6416900" lon="34.7922600">
<ele>769.880005</ele>
<time>2024-03-23T13:52:00.676Z</time>
</trkpt>
<trkpt lat="30.6418000" lon="34.7922800">
<ele>769.889954</ele>
<time>2024-03-23T13:52:00.676Z</time>
</trkpt>
<trkpt lat="30.6418900" lon="34.7923700">
<ele>769.900024</ele>
<time>2024-03-23T13:52:00.676Z</time>
</trkpt>
<trkpt lat="30.6419700" lon="34.7924500">
<ele>769.950012</ele>
<time>2024-03-23T13:52:00.676Z</time>
</trkpt>
<trkpt lat="30.6419700" lon="34.7924500">
<ele>769.950012</ele>
<time>2024-03-23T13:52:00.676Z</time>
</trkpt>
<trkpt lat="30.6420000" lon="34.7924800">
<ele>769.960022</ele>
<time>2024-03-23T13:52:00.676Z</time>
</trkpt>
<trkpt lat="30.6421700" lon="34.7925400">
<ele>770.090027</ele>
<time>2024-03-23T13:52:00.676Z</time>
</trkpt>
<trkpt lat="30.6423600" lon="34.7926500">
<ele>767.030029</ele>
<time>2024-03-23T13:52:00.676Z</time>
</trkpt>
<trkpt lat="30.6427000" lon="34.7926600">
<ele>760.539978</ele>
<time>2024-03-23T13:52:00.676Z</time>
</trkpt>
<trkpt lat="30.6429100" lon="34.7929000">
<ele>757.469971</ele>
<time>2024-03-23T13:52:00.676Z</time>
</trkpt>
<trkpt lat="30.6431000" lon="34.7929800">
<ele>755.609985</ele>
<time>2024-03-23T13:52:00.676Z</time>
</trkpt>
<trkpt lat="30.6431600" lon="34.7930400">
<ele>754.099976</ele>
<time>2024-03-23T13:52:00.676Z</time>
</trkpt>
<trkpt lat="30.6432700" lon="34.7931700">
<ele>754.140015</ele>
<time>2024-03-23T13:52:00.676Z</time>
</trkpt>
<trkpt lat="30.6434700" lon="34.7930000">
<ele>753.000000</ele>
<time>2024-03-23T13:52:00.676Z</time>
</trkpt>
<trkpt lat="30.6437300" lon="34.7927800">
<ele>753.999939</ele>
<time>2024-03-23T13:52:00.676Z</time>
</trkpt>
<trkpt lat="30.6439100" lon="34.7926800">
<ele>753.189941</ele>
<time>2024-03-23T13:52:00.676Z</time>
</trkpt>
<trkpt lat="30.6440400" lon="34.7926100">
<ele>751.920044</ele>
<time>2024-03-23T13:52:00.676Z</time>
</trkpt>
<trkpt lat="30.6440400" lon="34.7926100">
<ele>751.920044</ele>
<time>2024-03-23T13:52:00.676Z</time>
</trkpt>
<trkpt lat="30.6444900" lon="34.7923900">
<ele>750.369995</ele>
<time>2024-03-23T13:52:00.676Z</time>
</trkpt>
<trkpt lat="30.6448400" lon="34.7922800">
<ele>748.909973</ele>
<time>2024-03-23T13:52:00.676Z</time>
</trkpt>
<trkpt lat="30.6452000" lon="34.7923000">
<ele>750.789978</ele>
<time>2024-03-23T13:52:00.676Z</time>
</trkpt>
<trkpt lat="30.6457900" lon="34.7924600">
<ele>754.979980</ele>
<time>2024-03-23T13:52:00.676Z</time>
</trkpt>
<trkpt lat="30.6459300" lon="34.7924600">
<ele>755.609985</ele>
<time>2024-03-23T13:52:00.676Z</time>
</trkpt>
<trkpt lat="30.6460000" lon="34.7924300">
<ele>755.650024</ele>
<time>2024-03-23T13:52:00.676Z</time>
</trkpt>
<trkpt lat="30.6460600" lon="34.7923400">
<ele>756.380005</ele>
<time>2024-03-23T13:52:00.676Z</time>
</trkpt>
<trkpt lat="30.6463000" lon="34.7919100">
<ele>759.900024</ele>
<time>2024-03-23T13:52:00.676Z</time>
</trkpt>
<trkpt lat="30.6470200" lon="34.7907000">
<ele>757.179993</ele>
<time>2024-03-23T13:52:00.676Z</time>
</trkpt>
<trkpt lat="30.6471200" lon="34.7905800">
<ele>756.229980</ele>
<time>2024-03-23T13:52:00.676Z</time>
</trkpt>
<trkpt lat="30.6471800" lon="34.7905300">
<ele>756.260010</ele>
<time>2024-03-23T13:52:00.676Z</time>
</trkpt>
<trkpt lat="30.6473300" lon="34.7904700">
<ele>757.429993</ele>
<time>2024-03-23T13:52:00.676Z</time>
</trkpt>
<trkpt lat="30.6475600" lon="34.7904500">
<ele>758.600037</ele>
<time>2024-03-23T13:52:00.676Z</time>
</trkpt>
<trkpt lat="30.6486200" lon="34.7904300">
<ele>758.589966</ele>
<time>2024-03-23T13:52:00.676Z</time>
</trkpt>
<trkpt lat="30.6486200" lon="34.7904300">
<ele>758.589966</ele>
<time>2024-03-23T13:52:00.676Z</time>
</trkpt>
<trkpt lat="30.6492500" lon="34.7904200">
<ele>765.089966</ele>
<time>2024-03-23T13:52:00.676Z</time>
</trkpt>
<trkpt lat="30.6495500" lon="34.7912600">
<ele>764.429993</ele>
<time>2024-03-23T13:52:00.676Z</time>
</trkpt>
<trkpt lat="30.6498200" lon="34.7918900">
<ele>766.940002</ele>
<time>2024-03-23T13:52:00.676Z</time>
</trkpt>
<trkpt lat="30.6500800" lon="34.7925300">
<ele>770.609985</ele>
<time>2024-03-23T13:52:00.676Z</time>
</trkpt>
<trkpt lat="30.6504600" lon="34.7932900">
<ele>782.790039</ele>
<time>2024-03-23T13:52:00.676Z</time>
</trkpt>
<trkpt lat="30.6508400" lon="34.7936900">
<ele>783.260010</ele>
<time>2024-03-23T13:52:00.676Z</time>
</trkpt>
<trkpt lat="30.6510700" lon="34.7939300">
<ele>777.080017</ele>
<time>2024-03-23T13:52:00.676Z</time>
</trkpt>
<trkpt lat="30.6514600" lon="34.7944600">
<ele>760.489990</ele>
<time>2024-03-23T13:52:00.676Z</time>
</trkpt>
<trkpt lat="30.6517400" lon="34.7945000">
<ele>764.910034</ele>
<time>2024-03-23T13:52:00.676Z</time>
</trkpt>
<trkpt lat="30.6518300" lon="34.7945100">
<ele>767.650024</ele>
<time>2024-03-23T13:52:00.676Z</time>
</trkpt>
<trkpt lat="30.6525500" lon="34.7946700">
<ele>789.229980</ele>
<time>2024-03-23T13:52:00.676Z</time>
</trkpt>
<trkpt lat="30.6528900" lon="34.7949700">
<ele>785.519958</ele>
<time>2024-03-23T13:52:00.676Z</time>
</trkpt>
<trkpt lat="30.6533200" lon="34.7958300">
<ele>773.240051</ele>
<time>2024-03-23T13:52:00.676Z</time>
</trkpt>
<trkpt lat="30.6536100" lon="34.7963700">
<ele>771.880005</ele>
<time>2024-03-23T13:52:00.676Z</time>
</trkpt>
<trkpt lat="30.6539000" lon="34.7969200">
<ele>771.679993</ele>
<time>2024-03-23T13:52:00.676Z</time>
</trkpt>
<trkpt lat="30.6539300" lon="34.7972800">
<ele>775.260010</ele>
<time>2024-03-23T13:52:00.676Z</time>
</trkpt>
<trkpt lat="30.6541700" lon="34.7976500">
<ele>770.019958</ele>
<time>2024-03-23T13:52:00.676Z</time>
</trkpt>
<trkpt lat="30.6542200" lon="34.7983500">
<ele>768.789978</ele>
<time>2024-03-23T13:52:00.676Z</time>
</trkpt>
<trkpt lat="30.6545800" lon="34.7988500">
<ele>762.139954</ele>
<time>2024-03-23T13:52:00.676Z</time>
</trkpt>
<trkpt lat="30.6549300" lon="34.7993400">
<ele>760.970032</ele>
<time>2024-03-23T13:52:00.676Z</time>
</trkpt>
<trkpt lat="30.6552500" lon="34.7998000">
<ele>761.950012</ele>
<time>2024-03-23T13:52:00.676Z</time>
</trkpt>
<trkpt lat="30.6552500" lon="34.7998000">
<ele>761.950012</ele>
<time>2024-03-23T13:52:00.676Z</time>
</trkpt>
<trkpt lat="30.6555400" lon="34.8002100">
<ele>763.190002</ele>
<time>2024-03-23T13:52:00.676Z</time>
</trkpt>
<trkpt lat="30.6558400" lon="34.8006300">
<ele>762.429993</ele>
<time>2024-03-23T13:52:00.676Z</time>
</trkpt>
<trkpt lat="30.6561300" lon="34.8010400">
<ele>760.240051</ele>
<time>2024-03-23T13:52:00.676Z</time>
</trkpt>
<trkpt lat="30.6564300" lon="34.8014600">
<ele>761.000000</ele>
<time>2024-03-23T13:52:00.676Z</time>
</trkpt>
<trkpt lat="30.6567200" lon="34.8018700">
<ele>761.919983</ele>
<time>2024-03-23T13:52:00.676Z</time>
</trkpt>
<trkpt lat="30.6570200" lon="34.8022900">
<ele>764.979980</ele>
<time>2024-03-23T13:52:00.676Z</time>
</trkpt>
<trkpt lat="30.6573100" lon="34.8027000">
<ele>767.760010</ele>
<time>2024-03-23T13:52:00.676Z</time>
</trkpt>
<trkpt lat="30.6576600" lon="34.8031700">
<ele>770.660034</ele>
<time>2024-03-23T13:52:00.676Z</time>
</trkpt>
<trkpt lat="30.6580100" lon="34.8036300">
<ele>769.010010</ele>
<time>2024-03-23T13:52:00.676Z</time>
</trkpt>
<trkpt lat="30.6583800" lon="34.8041700">
<ele>769.140015</ele>
<time>2024-03-23T13:52:00.676Z</time>
</trkpt>
<trkpt lat="30.6588000" lon="34.8048800">
<ele>767.470032</ele>
<time>2024-03-23T13:52:00.676Z</time>
</trkpt>
<trkpt lat="30.6591600" lon="34.8055900">
<ele>763.900024</ele>
<time>2024-03-23T13:52:00.676Z</time>
</trkpt>
<trkpt lat="30.6595500" lon="34.8064700">
<ele>763.649963</ele>
<time>2024-03-23T13:52:00.676Z</time>
</trkpt>
<trkpt lat="30.6597900" lon="34.8071600">
<ele>765.070007</ele>
<time>2024-03-23T13:52:00.676Z</time>
</trkpt>
<trkpt lat="30.6599800" lon="34.8077500">
<ele>765.930054</ele>
<time>2024-03-23T13:52:00.676Z</time>
</trkpt>
<trkpt lat="30.6601500" lon="34.8084000">
<ele>765.470032</ele>
<time>2024-03-23T13:52:00.676Z</time>
</trkpt>
<trkpt lat="30.6603100" lon="34.8090500">
<ele>757.710022</ele>
<time>2024-03-23T13:52:00.676Z</time>
</trkpt>
<trkpt lat="30.6604800" lon="34.8097000">
<ele>734.659973</ele>
<time>2024-03-23T13:52:00.676Z</time>
</trkpt>
<trkpt lat="30.6610500" lon="34.8095100">
<ele>728.980042</ele>
<time>2024-03-23T13:52:00.676Z</time>
</trkpt>
<trkpt lat="30.6616300" lon="34.8093100">
<ele>729.359985</ele>
<time>2024-03-23T13:52:00.676Z</time>
</trkpt>
<trkpt lat="30.6619300" lon="34.8094600">
<ele>732.510010</ele>
<time>2024-03-23T13:52:00.676Z</time>
</trkpt>
<trkpt lat="30.6620300" lon="34.8095000">
<ele>737.390015</ele>
<time>2024-03-23T13:52:00.676Z</time>
</trkpt>
<trkpt lat="30.6621500" lon="34.8095900">
<ele>746.029968</ele>
<time>2024-03-23T13:52:00.676Z</time>
</trkpt>
<trkpt lat="30.6623000" lon="34.8096500">
<ele>750.590027</ele>
<time>2024-03-23T13:52:00.676Z</time>
</trkpt>
<trkpt lat="30.6626900" lon="34.8098900">
<ele>755.690002</ele>
<time>2024-03-23T13:52:00.676Z</time>
</trkpt>
<trkpt lat="30.6626900" lon="34.8098900">
<ele>755.690002</ele>
<time>2024-03-23T13:52:00.676Z</time>
</trkpt>
<trkpt lat="30.6632100" lon="34.8102000">
<ele>759.260010</ele>
<time>2024-03-23T13:52:00.676Z</time>
</trkpt>
<trkpt lat="30.6635900" lon="34.8104000">
<ele>765.570007</ele>
<time>2024-03-23T13:52:00.676Z</time>
</trkpt>
<trkpt lat="30.6638500" lon="34.8105100">
<ele>770.779968</ele>
<time>2024-03-23T13:52:00.676Z</time>
</trkpt>
<trkpt lat="30.6642400" lon="34.8105700">
<ele>774.820007</ele>
<time>2024-03-23T13:52:00.676Z</time>
</trkpt>
<trkpt lat="30.6644000" lon="34.8105800">
<ele>776.460022</ele>
<time>2024-03-23T13:52:00.676Z</time>
</trkpt>
<trkpt lat="30.6645700" lon="34.8106100">
<ele>779.429993</ele>
<time>2024-03-23T13:52:00.676Z</time>
</trkpt>
<trkpt lat="30.6645700" lon="34.8107800">
<ele>778.540039</ele>
<time>2024-03-23T13:52:00.676Z</time>
</trkpt>
<trkpt lat="30.6646000" lon="34.8115500">
<ele>780.780029</ele>
<time>2024-03-23T13:52:00.676Z</time>
</trkpt>
<trkpt lat="30.6647500" lon="34.8120900">
<ele>789.470032</ele>
<time>2024-03-23T13:52:00.676Z</time>
</trkpt>
<trkpt lat="30.6648700" lon="34.8124300">
<ele>792.589966</ele>
<time>2024-03-23T13:52:00.676Z</time>
</trkpt>
<trkpt lat="30.6649300" lon="34.8127800">
<ele>794.229980</ele>
<time>2024-03-23T13:52:00.676Z</time>
</trkpt>
<trkpt lat="30.6649300" lon="34.8130600">
<ele>793.940002</ele>
<time>2024-03-23T13:52:00.676Z</time>
</trkpt>
<trkpt lat="30.6650600" lon="34.8133800">
<ele>793.250061</ele>
<time>2024-03-23T13:52:00.676Z</time>
</trkpt>
<trkpt lat="30.6657000" lon="34.8136200">
<ele>791.720032</ele>
<time>2024-03-23T13:52:00.676Z</time>
</trkpt>
<trkpt lat="30.6659900" lon="34.8137100">
<ele>789.750000</ele>
<time>2024-03-23T13:52:00.676Z</time>
</trkpt>
<trkpt lat="30.6661600" lon="34.8137200">
<ele>788.950012</ele>
<time>2024-03-23T13:52:00.676Z</time>
</trkpt>
<trkpt lat="30.6663700" lon="34.8136900">
<ele>784.760010</ele>
<time>2024-03-23T13:52:00.676Z</time>
</trkpt>
<trkpt lat="30.6667400" lon="34.8136800">
<ele>777.899963</ele>
<time>2024-03-23T13:52:00.676Z</time>
</trkpt>
<trkpt lat="30.6674200" lon="34.8136000">
<ele>775.079956</ele>
<time>2024-03-23T13:52:00.676Z</time>
</trkpt>
<trkpt lat="30.6677400" lon="34.8136100">
<ele>778.480042</ele>
<time>2024-03-23T13:52:00.676Z</time>
</trkpt>
<trkpt lat="30.6682800" lon="34.8134500">
<ele>781.059998</ele>
<time>2024-03-23T13:52:00.676Z</time>
</trkpt>
<trkpt lat="30.6684000" lon="34.8134400">
<ele>780.069946</ele>
<time>2024-03-23T13:52:00.676Z</time>
</trkpt>
<trkpt lat="30.6687700" lon="34.8134300">
<ele>773.909973</ele>
<time>2024-03-23T13:52:00.676Z</time>
</trkpt>
<trkpt lat="30.6688900" lon="34.8134000">
<ele>770.750000</ele>
<time>2024-03-23T13:52:00.676Z</time>
</trkpt>
<trkpt lat="30.6693500" lon="34.8131200">
<ele>766.450012</ele>
<time>2024-03-23T13:52:00.676Z</time>
</trkpt>
<trkpt lat="30.6695700" lon="34.8128700">
<ele>763.660034</ele>
<time>2024-03-23T13:52:00.676Z</time>
</trkpt>
<trkpt lat="30.6697100" lon="34.8126300">
<ele>761.010010</ele>
<time>2024-03-23T13:52:00.676Z</time>
</trkpt>
<trkpt lat="30.6697800" lon="34.8124600">
<ele>759.839966</ele>
<time>2024-03-23T13:52:00.676Z</time>
</trkpt>
<trkpt lat="30.6699300" lon="34.8123400">
<ele>760.649963</ele>
<time>2024-03-23T13:52:00.676Z</time>
</trkpt>
<trkpt lat="30.6700700" lon="34.8122800">
<ele>760.039978</ele>
<time>2024-03-23T13:52:00.676Z</time>
</trkpt>
<trkpt lat="30.6707500" lon="34.8122700">
<ele>756.080017</ele>
<time>2024-03-23T13:52:00.676Z</time>
</trkpt>
<trkpt lat="30.6708600" lon="34.8122400">
<ele>753.359985</ele>
<time>2024-03-23T13:52:00.676Z</time>
</trkpt>
<trkpt lat="30.6710300" lon="34.8120500">
<ele>757.559998</ele>
<time>2024-03-23T13:52:00.676Z</time>
</trkpt>
<trkpt lat="30.6713400" lon="34.8118400">
<ele>753.339966</ele>
<time>2024-03-23T13:52:00.676Z</time>
</trkpt>
<trkpt lat="30.6714700" lon="34.8116500">
<ele>757.119995</ele>
<time>2024-03-23T13:52:00.676Z</time>
</trkpt>
<trkpt lat="30.6714700" lon="34.8116500">
<ele>757.119995</ele>
<time>2024-03-23T13:52:00.676Z</time>
</trkpt>
<trkpt lat="30.6718800" lon="34.8112500">
<ele>759.159973</ele>
<time>2024-03-23T13:52:00.676Z</time>
</trkpt>
<trkpt lat="30.6721400" lon="34.8110500">
<ele>754.869995</ele>
<time>2024-03-23T13:52:00.676Z</time>
</trkpt>
<trkpt lat="30.6723600" lon="34.8109800">
<ele>750.929993</ele>
<time>2024-03-23T13:52:00.676Z</time>
</trkpt>
<trkpt lat="30.6731100" lon="34.8106600">
<ele>753.640015</ele>
<time>2024-03-23T13:52:00.676Z</time>
</trkpt>
<trkpt lat="30.6732400" lon="34.8106200">
<ele>755.349976</ele>
<time>2024-03-23T13:52:00.676Z</time>
</trkpt>
<trkpt lat="30.6735900" lon="34.8106000">
<ele>759.599976</ele>
<time>2024-03-23T13:52:00.676Z</time>
</trkpt>
<trkpt lat="30.6742900" lon="34.8105000">
<ele>764.890015</ele>
<time>2024-03-23T13:52:00.676Z</time>
</trkpt>
<trkpt lat="30.6744500" lon="34.8105300">
<ele>766.429993</ele>
<time>2024-03-23T13:52:00.676Z</time>
</trkpt>
<trkpt lat="30.6746600" lon="34.8106300">
<ele>762.930054</ele>
<time>2024-03-23T13:52:00.676Z</time>
</trkpt>
<trkpt lat="30.6747500" lon="34.8106200">
<ele>762.540039</ele>
<time>2024-03-23T13:52:00.676Z</time>
</trkpt>
<trkpt lat="30.6749500" lon="34.8106000">
<ele>760.740051</ele>
<time>2024-03-23T13:52:00.676Z</time>
</trkpt>
<trkpt lat="30.6750500" lon="34.8106000">
<ele>759.630005</ele>
<time>2024-03-23T13:52:00.676Z</time>
</trkpt>
<trkpt lat="30.6751300" lon="34.8106500">
<ele>757.739990</ele>
<time>2024-03-23T13:52:00.676Z</time>
</trkpt>
<trkpt lat="30.6752400" lon="34.8107300">
<ele>754.729980</ele>
<time>2024-03-23T13:52:00.676Z</time>
</trkpt>
<trkpt lat="30.6753200" lon="34.8107600">
<ele>753.010010</ele>
<time>2024-03-23T13:52:00.676Z</time>
</trkpt>
<trkpt lat="30.6756000" lon="34.8107100">
<ele>749.410034</ele>
<time>2024-03-23T13:52:00.676Z</time>
</trkpt>
<trkpt lat="30.6762700" lon="34.8106800">
<ele>739.530029</ele>
<time>2024-03-23T13:52:00.676Z</time>
</trkpt>
<trkpt lat="30.6763700" lon="34.8106500">
<ele>738.240051</ele>
<time>2024-03-23T13:52:00.676Z</time>
</trkpt>
<trkpt lat="30.6766900" lon="34.8106800">
<ele>740.320007</ele>
<time>2024-03-23T13:52:00.676Z</time>
</trkpt>
<trkpt lat="30.6770400" lon="34.8106400">
<ele>738.519958</ele>
<time>2024-03-23T13:52:00.676Z</time>
</trkpt>
<trkpt lat="30.6772600" lon="34.8105800">
<ele>735.740051</ele>
<time>2024-03-23T13:52:00.676Z</time>
</trkpt>
<trkpt lat="30.6776300" lon="34.8104100">
<ele>744.190063</ele>
<time>2024-03-23T13:52:00.676Z</time>
</trkpt>
<trkpt lat="30.6779200" lon="34.8103600">
<ele>747.880005</ele>
<time>2024-03-23T13:52:00.676Z</time>
</trkpt>
<trkpt lat="30.6784300" lon="34.8100900">
<ele>752.289978</ele>
<time>2024-03-23T13:52:00.676Z</time>
</trkpt>
<trkpt lat="30.6787400" lon="34.8098700">
<ele>755.749939</ele>
<time>2024-03-23T13:52:00.676Z</time>
</trkpt>
<trkpt lat="30.6789800" lon="34.8096200">
<ele>752.270020</ele>
<time>2024-03-23T13:52:00.676Z</time>
</trkpt>
<trkpt lat="30.6791100" lon="34.8095300">
<ele>749.789978</ele>
<time>2024-03-23T13:52:00.676Z</time>
</trkpt>
<trkpt lat="30.6791500" lon="34.8094600">
<ele>748.519958</ele>
<time>2024-03-23T13:52:00.676Z</time>
</trkpt>
<trkpt lat="30.6791600" lon="34.8093300">
<ele>748.179993</ele>
<time>2024-03-23T13:52:00.676Z</time>
</trkpt>
<trkpt lat="30.6790300" lon="34.8091200">
<ele>752.780029</ele>
<time>2024-03-23T13:52:00.676Z</time>
</trkpt>
<trkpt lat="30.6790500" lon="34.8089000">
<ele>756.619995</ele>
<time>2024-03-23T13:52:00.676Z</time>
</trkpt>
<trkpt lat="30.6790300" lon="34.8088200">
<ele>758.109985</ele>
<time>2024-03-23T13:52:00.676Z</time>
</trkpt>
<trkpt lat="30.6788100" lon="34.8085600">
<ele>760.539978</ele>
<time>2024-03-23T13:52:00.676Z</time>
</trkpt>
<trkpt lat="30.6785900" lon="34.8082300">
<ele>761.619995</ele>
<time>2024-03-23T13:52:00.676Z</time>
</trkpt>
<trkpt lat="30.6782700" lon="34.8079600">
<ele>763.559998</ele>
<time>2024-03-23T13:52:00.676Z</time>
</trkpt>
<trkpt lat="30.6780500" lon="34.8078000">
<ele>767.279968</ele>
<time>2024-03-23T13:52:00.676Z</time>
</trkpt>
<trkpt lat="30.6778100" lon="34.8077800">
<ele>775.040039</ele>
<time>2024-03-23T13:52:00.676Z</time>
</trkpt>
<trkpt lat="30.6776100" lon="34.8077200">
<ele>780.250000</ele>
<time>2024-03-23T13:52:00.676Z</time>
</trkpt>
<trkpt lat="30.6774400" lon="34.8075700">
<ele>779.450012</ele>
<time>2024-03-23T13:52:00.676Z</time>
</trkpt>
<trkpt lat="30.6773600" lon="34.8074400">
<ele>777.299988</ele>
<time>2024-03-23T13:52:00.676Z</time>
</trkpt>
<trkpt lat="30.6772500" lon="34.8070700">
<ele>769.220032</ele>
<time>2024-03-23T13:52:00.676Z</time>
</trkpt>
<trkpt lat="30.6772600" lon="34.8069600">
<ele>767.390015</ele>
<time>2024-03-23T13:52:00.676Z</time>
</trkpt>
<trkpt lat="30.6772900" lon="34.8068300">
<ele>767.970032</ele>
<time>2024-03-23T13:52:00.676Z</time>
</trkpt>
<trkpt lat="30.6772700" lon="34.8067000">
<ele>768.780029</ele>
<time>2024-03-23T13:52:00.676Z</time>
</trkpt>
<trkpt lat="30.6772200" lon="34.8066300">
<ele>769.649963</ele>
<time>2024-03-23T13:52:00.676Z</time>
</trkpt>
<trkpt lat="30.6770400" lon="34.8064400">
<ele>773.369995</ele>
<time>2024-03-23T13:52:00.676Z</time>
</trkpt>
<trkpt lat="30.6768200" lon="34.8063400">
<ele>776.200012</ele>
<time>2024-03-23T13:52:00.676Z</time>
</trkpt>
<trkpt lat="30.6767100" lon="34.8062300">
<ele>780.180054</ele>
<time>2024-03-23T13:52:00.676Z</time>
</trkpt>
<trkpt lat="30.6765600" lon="34.8060000">
<ele>785.370056</ele>
<time>2024-03-23T13:52:00.676Z</time>
</trkpt>
<trkpt lat="30.6764800" lon="34.8059300">
<ele>785.799988</ele>
<time>2024-03-23T13:52:00.676Z</time>
</trkpt>
<trkpt lat="30.6762400" lon="34.8058600">
<ele>779.510010</ele>
<time>2024-03-23T13:52:00.676Z</time>
</trkpt>
<trkpt lat="30.6761100" lon="34.8057800">
<ele>776.099976</ele>
<time>2024-03-23T13:52:00.676Z</time>
</trkpt>
<trkpt lat="30.6759900" lon="34.8056700">
<ele>777.799988</ele>
<time>2024-03-23T13:52:00.676Z</time>
</trkpt>
<trkpt lat="30.6759300" lon="34.8055500">
<ele>779.290039</ele>
<time>2024-03-23T13:52:00.676Z</time>
</trkpt>
<trkpt lat="30.6758700" lon="34.8054900">
<ele>778.929993</ele>
<time>2024-03-23T13:52:00.676Z</time>
</trkpt>
<trkpt lat="30.6754600" lon="34.8055200">
<ele>771.059998</ele>
<time>2024-03-23T13:52:00.676Z</time>
</trkpt>
<trkpt lat="30.6752100" lon="34.8055800">
<ele>768.320007</ele>
<time>2024-03-23T13:52:00.676Z</time>
</trkpt>
<trkpt lat="30.6750600" lon="34.8055800">
<ele>769.790039</ele>
<time>2024-03-23T13:52:00.676Z</time>
</trkpt>
<trkpt lat="30.6748200" lon="34.8054900">
<ele>771.670044</ele>
<time>2024-03-23T13:52:00.676Z</time>
</trkpt>
<trkpt lat="30.6745900" lon="34.8053500">
<ele>769.570007</ele>
<time>2024-03-23T13:52:00.676Z</time>
</trkpt>
<trkpt lat="30.6744500" lon="34.8052100">
<ele>768.020020</ele>
<time>2024-03-23T13:52:00.676Z</time>
</trkpt>
<trkpt lat="30.6743700" lon="34.8050800">
<ele>767.429993</ele>
<time>2024-03-23T13:52:00.676Z</time>
</trkpt>
<trkpt lat="30.6742600" lon="34.8050100">
<ele>766.079956</ele>
<time>2024-03-23T13:52:00.676Z</time>
</trkpt>
<trkpt lat="30.6742700" lon="34.8049600">
<ele>764.770020</ele>
<time>2024-03-23T13:52:00.676Z</time>
</trkpt>
<trkpt lat="30.6743200" lon="34.8049400">
<ele>764.589966</ele>
<time>2024-03-23T13:52:00.676Z</time>
</trkpt>
<trkpt lat="30.6743800" lon="34.8049600">
<ele>765.899963</ele>
<time>2024-03-23T13:52:00.676Z</time>
</trkpt>
<trkpt lat="30.6744700" lon="34.8050400">
<ele>767.790039</ele>
<time>2024-03-23T13:52:00.676Z</time>
</trkpt>
<trkpt lat="30.6745800" lon="34.8050900">
<ele>767.329956</ele>
<time>2024-03-23T13:52:00.676Z</time>
</trkpt>
<trkpt lat="30.6746800" lon="34.8051500">
<ele>767.750000</ele>
<time>2024-03-23T13:52:00.676Z</time>
</trkpt>
<trkpt lat="30.6747600" lon="34.8051800">
<ele>768.780029</ele>
<time>2024-03-23T13:52:00.676Z</time>
</trkpt>
<trkpt lat="30.6748500" lon="34.8051800">
<ele>770.049988</ele>
<time>2024-03-23T13:52:00.676Z</time>
</trkpt>
<trkpt lat="30.6750600" lon="34.8051300">
<ele>771.219971</ele>
<time>2024-03-23T13:52:00.676Z</time>
</trkpt>
<trkpt lat="30.6751700" lon="34.8051400">
<ele>772.239990</ele>
<time>2024-03-23T13:52:00.676Z</time>
</trkpt>
<trkpt lat="30.6752800" lon="34.8051800">
<ele>773.330017</ele>
<time>2024-03-23T13:52:00.676Z</time>
</trkpt>
<trkpt lat="30.6755000" lon="34.8051200">
<ele>778.319946</ele>
<time>2024-03-23T13:52:00.676Z</time>
</trkpt>
<trkpt lat="30.6757400" lon="34.8052000">
<ele>782.220032</ele>
<time>2024-03-23T13:52:00.676Z</time>
</trkpt>
<trkpt lat="30.6759200" lon="34.8051900">
<ele>788.070007</ele>
<time>2024-03-23T13:52:00.676Z</time>
</trkpt>
<trkpt lat="30.6760500" lon="34.8052100">
<ele>792.359985</ele>
<time>2024-03-23T13:52:00.676Z</time>
</trkpt>
<trkpt lat="30.6761800" lon="34.8052800">
<ele>794.940002</ele>
<time>2024-03-23T13:52:00.676Z</time>
</trkpt>
<trkpt lat="30.6763300" lon="34.8053100">
<ele>794.570007</ele>
<time>2024-03-23T13:52:00.676Z</time>
</trkpt>
<trkpt lat="30.6764900" lon="34.8052800">
<ele>793.169983</ele>
<time>2024-03-23T13:52:00.676Z</time>
</trkpt>
<trkpt lat="30.6765900" lon="34.8053200">
<ele>791.409973</ele>
<time>2024-03-23T13:52:00.676Z</time>
</trkpt>
<trkpt lat="30.6767700" lon="34.8054400">
<ele>787.980042</ele>
<time>2024-03-23T13:52:00.676Z</time>
</trkpt>
<trkpt lat="30.6768700" lon="34.8054700">
<ele>785.570007</ele>
<time>2024-03-23T13:52:00.676Z</time>
</trkpt>
<trkpt lat="30.6769300" lon="34.8054400">
<ele>783.950012</ele>
<time>2024-03-23T13:52:00.676Z</time>
</trkpt>
<trkpt lat="30.6769500" lon="34.8052300">
<ele>782.700012</ele>
<time>2024-03-23T13:52:00.676Z</time>
</trkpt>
<trkpt lat="30.6769800" lon="34.8051400">
<ele>781.670044</ele>
<time>2024-03-23T13:52:00.676Z</time>
</trkpt>
<trkpt lat="30.6771600" lon="34.8049700">
<ele>776.539978</ele>
<time>2024-03-23T13:52:00.676Z</time>
</trkpt>
<trkpt lat="30.6771600" lon="34.8049200">
<ele>776.500000</ele>
<time>2024-03-23T13:52:00.676Z</time>
</trkpt>
<trkpt lat="30.6771300" lon="34.8049300">
<ele>777.239990</ele>
<time>2024-03-23T13:52:00.676Z</time>
</trkpt>
<trkpt lat="30.6770800" lon="34.8049900">
<ele>778.570007</ele>
<time>2024-03-23T13:52:00.676Z</time>
</trkpt>
<trkpt lat="30.6768800" lon="34.8051200">
<ele>783.919983</ele>
<time>2024-03-23T13:52:00.676Z</time>
</trkpt>
<trkpt lat="30.6768100" lon="34.8052600">
<ele>786.290039</ele>
<time>2024-03-23T13:52:00.676Z</time>
</trkpt>
<trkpt lat="30.6767600" lon="34.8052800">
<ele>787.659973</ele>
<time>2024-03-23T13:52:00.676Z</time>
</trkpt>
<trkpt lat="30.6767300" lon="34.8052600">
<ele>788.289978</ele>
<time>2024-03-23T13:52:00.676Z</time>
</trkpt>
<trkpt lat="30.6767400" lon="34.8052100">
<ele>787.729980</ele>
<time>2024-03-23T13:52:00.676Z</time>
</trkpt>
<trkpt lat="30.6767900" lon="34.8051000">
<ele>785.900024</ele>
<time>2024-03-23T13:52:00.676Z</time>
</trkpt>
<trkpt lat="30.6768100" lon="34.8049600">
<ele>784.830017</ele>
<time>2024-03-23T13:52:00.676Z</time>
</trkpt>
<trkpt lat="30.6769200" lon="34.8047900">
<ele>781.839966</ele>
<time>2024-03-23T13:52:00.676Z</time>
</trkpt>
<trkpt lat="30.6769300" lon="34.8044700">
<ele>780.459961</ele>
<time>2024-03-23T13:52:00.676Z</time>
</trkpt>
<trkpt lat="30.6771700" lon="34.8038800">
<ele>777.960022</ele>
<time>2024-03-23T13:52:00.676Z</time>
</trkpt>
<trkpt lat="30.6772100" lon="34.8037700">
<ele>777.549988</ele>
<time>2024-03-23T13:52:00.676Z</time>
</trkpt>
<trkpt lat="30.6772100" lon="34.8037700">
<ele>777.549988</ele>
<time>2024-03-23T13:52:00.676Z</time>
</trkpt>
<trkpt lat="30.6772600" lon="34.8036500">
<ele>778.170044</ele>
<time>2024-03-23T13:52:00.676Z</time>
</trkpt>
<trkpt lat="30.6773100" lon="34.8034600">
<ele>779.330017</ele>
<time>2024-03-23T13:52:00.676Z</time>
</trkpt>
<trkpt lat="30.6773900" lon="34.8032600">
<ele>781.510010</ele>
<time>2024-03-23T13:52:00.676Z</time>
</trkpt>
<trkpt lat="30.6776800" lon="34.8028900">
<ele>780.890015</ele>
<time>2024-03-23T13:52:00.676Z</time>
</trkpt>
<trkpt lat="30.6784100" lon="34.8025000">
<ele>781.549988</ele>
<time>2024-03-23T13:52:00.676Z</time>
</trkpt>
<trkpt lat="30.6788600" lon="34.8022100">
<ele>781.300049</ele>
<time>2024-03-23T13:52:00.676Z</time>
</trkpt>
<trkpt lat="30.6793100" lon="34.8019200">
<ele>779.149963</ele>
<time>2024-03-23T13:52:00.676Z</time>
</trkpt>
<trkpt lat="30.6797300" lon="34.8017100">
<ele>776.699951</ele>
<time>2024-03-23T13:52:00.676Z</time>
</trkpt>
<trkpt lat="30.6801500" lon="34.8015000">
<ele>776.110046</ele>
<time>2024-03-23T13:52:00.676Z</time>
</trkpt>
<trkpt lat="30.6806300" lon="34.8011800">
<ele>774.739990</ele>
<time>2024-03-23T13:52:00.676Z</time>
</trkpt>
<trkpt lat="30.6811100" lon="34.8008600">
<ele>782.880005</ele>
<time>2024-03-23T13:52:00.676Z</time>
</trkpt>
<trkpt lat="30.6814900" lon="34.8003900">
<ele>786.970032</ele>
<time>2024-03-23T13:52:00.676Z</time>
</trkpt>
<trkpt lat="30.6819500" lon="34.7995900">
<ele>781.139954</ele>
<time>2024-03-23T13:52:00.676Z</time>
</trkpt>
<trkpt lat="30.6823200" lon="34.7987300">
<ele>772.690002</ele>
<time>2024-03-23T13:52:00.676Z</time>
</trkpt>
<trkpt lat="30.6825500" lon="34.7982400">
<ele>773.140015</ele>
<time>2024-03-23T13:52:00.676Z</time>
</trkpt>
<trkpt lat="30.6827900" lon="34.7977500">
<ele>773.799988</ele>
<time>2024-03-23T13:52:00.676Z</time>
</trkpt>
<trkpt lat="30.6830200" lon="34.7972600">
<ele>772.870056</ele>
<time>2024-03-23T13:52:00.676Z</time>
</trkpt>
<trkpt lat="30.6834300" lon="34.7966100">
<ele>772.909973</ele>
<time>2024-03-23T13:52:00.676Z</time>
</trkpt>
<trkpt lat="30.6838800" lon="34.7960000">
<ele>770.739990</ele>
<time>2024-03-23T13:52:00.676Z</time>
</trkpt>
<trkpt lat="30.6838800" lon="34.7960000">
<ele>770.739990</ele>
<time>2024-03-23T13:52:00.676Z</time>
</trkpt>
<trkpt lat="30.6842900" lon="34.7954400">
<ele>764.739990</ele>
<time>2024-03-23T13:52:00.676Z</time>
</trkpt>
<trkpt lat="30.6847600" lon="34.7949800">
<ele>758.429993</ele>
<time>2024-03-23T13:52:00.676Z</time>
</trkpt>
<trkpt lat="30.6857100" lon="34.7940900">
<ele>758.970032</ele>
<time>2024-03-23T13:52:00.676Z</time>
</trkpt>
<trkpt lat="30.6865500" lon="34.7934100">
<ele>755.100037</ele>
<time>2024-03-23T13:52:00.676Z</time>
</trkpt>
<trkpt lat="30.6869200" lon="34.7934800">
<ele>757.440002</ele>
<time>2024-03-23T13:52:00.676Z</time>
</trkpt>
<trkpt lat="30.6871600" lon="34.7935500">
<ele>760.450012</ele>
<time>2024-03-23T13:52:00.676Z</time>
</trkpt>
<trkpt lat="30.6874000" lon="34.7935900">
<ele>764.030029</ele>
<time>2024-03-23T13:52:00.676Z</time>
</trkpt>
<trkpt lat="30.6875900" lon="34.7936500">
<ele>761.769958</ele>
<time>2024-03-23T13:52:00.676Z</time>
</trkpt>
<trkpt lat="30.6877900" lon="34.7936100">
<ele>756.540039</ele>
<time>2024-03-23T13:52:00.676Z</time>
</trkpt>
<trkpt lat="30.6880000" lon="34.7935000">
<ele>749.559998</ele>
<time>2024-03-23T13:52:00.676Z</time>
</trkpt>
<trkpt lat="30.6881800" lon="34.7932200">
<ele>746.639954</ele>
<time>2024-03-23T13:52:00.676Z</time>
</trkpt>
<trkpt lat="30.6883700" lon="34.7929200">
<ele>746.940002</ele>
<time>2024-03-23T13:52:00.676Z</time>
</trkpt>
<trkpt lat="30.6886000" lon="34.7925200">
<ele>749.690002</ele>
<time>2024-03-23T13:52:00.676Z</time>
</trkpt>
<trkpt lat="30.6887000" lon="34.7924700">
<ele>751.849976</ele>
<time>2024-03-23T13:52:00.676Z</time>
</trkpt>
<trkpt lat="30.6887500" lon="34.7925200">
<ele>751.640015</ele>
<time>2024-03-23T13:52:00.676Z</time>
</trkpt>
<trkpt lat="30.6888900" lon="34.7926700">
<ele>750.980042</ele>
<time>2024-03-23T13:52:00.676Z</time>
</trkpt>
<trkpt lat="30.6889100" lon="34.7929200">
<ele>748.729980</ele>
<time>2024-03-23T13:52:00.676Z</time>
</trkpt>
<trkpt lat="30.6890100" lon="34.7931800">
<ele>749.580017</ele>
<time>2024-03-23T13:52:00.676Z</time>
</trkpt>
<trkpt lat="30.6891100" lon="34.7934900">
<ele>750.040039</ele>
<time>2024-03-23T13:52:00.676Z</time>
</trkpt>
<trkpt lat="30.6891900" lon="34.7935800">
<ele>751.890015</ele>
<time>2024-03-23T13:52:00.676Z</time>
</trkpt>
<trkpt lat="30.6894400" lon="34.7935700">
<ele>759.020020</ele>
<time>2024-03-23T13:52:00.676Z</time>
</trkpt>
<trkpt lat="30.6896800" lon="34.7935600">
<ele>756.100037</ele>
<time>2024-03-23T13:52:00.676Z</time>
</trkpt>
<trkpt lat="30.6897900" lon="34.7934900">
<ele>755.360046</ele>
<time>2024-03-23T13:52:00.676Z</time>
</trkpt>
<trkpt lat="30.6899800" lon="34.7933900">
<ele>753.130005</ele>
<time>2024-03-23T13:52:00.676Z</time>
</trkpt>
<trkpt lat="30.6901800" lon="34.7934900">
<ele>755.030029</ele>
<time>2024-03-23T13:52:00.676Z</time>
</trkpt>
<trkpt lat="30.6902600" lon="34.7936100">
<ele>755.749939</ele>
<time>2024-03-23T13:52:00.676Z</time>
</trkpt>
<trkpt lat="30.6904200" lon="34.7939100">
<ele>755.589966</ele>
<time>2024-03-23T13:52:00.676Z</time>
</trkpt>
<trkpt lat="30.6905500" lon="34.7942600">
<ele>755.010010</ele>
<time>2024-03-23T13:52:00.676Z</time>
</trkpt>
<trkpt lat="30.6907100" lon="34.7942800">
<ele>747.900024</ele>
<time>2024-03-23T13:52:00.676Z</time>
</trkpt>
<trkpt lat="30.6908200" lon="34.7938800">
<ele>741.389954</ele>
<time>2024-03-23T13:52:00.676Z</time>
</trkpt>
<trkpt lat="30.6909600" lon="34.7936900">
<ele>734.819946</ele>
<time>2024-03-23T13:52:00.676Z</time>
</trkpt>
<trkpt lat="30.6912200" lon="34.7934300">
<ele>733.180054</ele>
<time>2024-03-23T13:52:00.676Z</time>
</trkpt>
<trkpt lat="30.6914600" lon="34.7930700">
<ele>740.830017</ele>
<time>2024-03-23T13:52:00.676Z</time>
</trkpt>
<trkpt lat="30.6915400" lon="34.7927300">
<ele>747.070007</ele>
<time>2024-03-23T13:52:00.676Z</time>
</trkpt>
<trkpt lat="30.6917100" lon="34.7924500">
<ele>750.679993</ele>
<time>2024-03-23T13:52:00.676Z</time>
</trkpt>
<trkpt lat="30.6918500" lon="34.7923900">
<ele>749.600037</ele>
<time>2024-03-23T13:52:00.676Z</time>
</trkpt>
<trkpt lat="30.6921000" lon="34.7924200">
<ele>743.780029</ele>
<time>2024-03-23T13:52:00.676Z</time>
</trkpt>
<trkpt lat="30.6923700" lon="34.7923300">
<ele>742.520020</ele>
<time>2024-03-23T13:52:00.676Z</time>
</trkpt>
<trkpt lat="30.6926800" lon="34.7920500">
<ele>744.060059</ele>
<time>2024-03-23T13:52:00.676Z</time>
</trkpt>
<trkpt lat="30.6929300" lon="34.7918200">
<ele>748.820007</ele>
<time>2024-03-23T13:52:00.676Z</time>
</trkpt>
<trkpt lat="30.6931900" lon="34.7914900">
<ele>755.380005</ele>
<time>2024-03-23T13:52:00.676Z</time>
</trkpt>
<trkpt lat="30.6934400" lon="34.7911700">
<ele>753.630005</ele>
<time>2024-03-23T13:52:00.676Z</time>
</trkpt>
<trkpt lat="30.6937200" lon="34.7910100">
<ele>756.410034</ele>
<time>2024-03-23T13:52:00.676Z</time>
</trkpt>
<trkpt lat="30.6939100" lon="34.7909300">
<ele>756.119995</ele>
<time>2024-03-23T13:52:00.676Z</time>
</trkpt>
<trkpt lat="30.6940300" lon="34.7907700">
<ele>756.309998</ele>
<time>2024-03-23T13:52:00.676Z</time>
</trkpt>
<trkpt lat="30.6940400" lon="34.7905800">
<ele>755.730042</ele>
<time>2024-03-23T13:52:00.676Z</time>
</trkpt>
<trkpt lat="30.6940200" lon="34.7903900">
<ele>752.849976</ele>
<time>2024-03-23T13:52:00.676Z</time>
</trkpt>
<trkpt lat="30.6940000" lon="34.7901400">
<ele>748.619995</ele>
<time>2024-03-23T13:52:00.676Z</time>
</trkpt>
<trkpt lat="30.6940200" lon="34.7899500">
<ele>745.569946</ele>
<time>2024-03-23T13:52:00.676Z</time>
</trkpt>
<trkpt lat="30.6941200" lon="34.7896900">
<ele>744.880005</ele>
<time>2024-03-23T13:52:00.676Z</time>
</trkpt>
<trkpt lat="30.6939900" lon="34.7898200">
<ele>744.260010</ele>
<time>2024-03-23T13:52:00.676Z</time>
</trkpt>
<trkpt lat="30.6939000" lon="34.7900700">
<ele>747.040039</ele>
<time>2024-03-23T13:52:00.676Z</time>
</trkpt>
<trkpt lat="30.6938800" lon="34.7903100">
<ele>752.899963</ele>
<time>2024-03-23T13:52:00.676Z</time>
</trkpt>
<trkpt lat="30.6938600" lon="34.7906100">
<ele>753.670044</ele>
<time>2024-03-23T13:52:00.676Z</time>
</trkpt>
<trkpt lat="30.6938100" lon="34.7907200">
<ele>753.540039</ele>
<time>2024-03-23T13:52:00.676Z</time>
</trkpt>
<trkpt lat="30.6936700" lon="34.7907700">
<ele>753.280029</ele>
<time>2024-03-23T13:52:00.676Z</time>
</trkpt>
<trkpt lat="30.6934700" lon="34.7906800">
<ele>748.799988</ele>
<time>2024-03-23T13:52:00.676Z</time>
</trkpt>
<trkpt lat="30.6932400" lon="34.7908000">
<ele>744.919983</ele>
<time>2024-03-23T13:52:00.676Z</time>
</trkpt>
<trkpt lat="30.6930700" lon="34.7909500">
<ele>744.319946</ele>
<time>2024-03-23T13:52:00.676Z</time>
</trkpt>
<trkpt lat="30.6929200" lon="34.7912100">
<ele>743.100037</ele>
<time>2024-03-23T13:52:00.676Z</time>
</trkpt>
<trkpt lat="30.6928000" lon="34.7913400">
<ele>740.839966</ele>
<time>2024-03-23T13:52:00.676Z</time>
</trkpt>
<trkpt lat="30.6925600" lon="34.7914300">
<ele>738.629944</ele>
<time>2024-03-23T13:52:00.676Z</time>
</trkpt>
<trkpt lat="30.6923500" lon="34.7915000">
<ele>738.460022</ele>
<time>2024-03-23T13:52:00.676Z</time>
</trkpt>
<trkpt lat="30.6921800" lon="34.7914900">
<ele>739.559998</ele>
<time>2024-03-23T13:52:00.676Z</time>
</trkpt>
<trkpt lat="30.6920100" lon="34.7913800">
<ele>739.450012</ele>
<time>2024-03-23T13:52:00.676Z</time>
</trkpt>
<trkpt lat="30.6919600" lon="34.7912900">
<ele>739.140015</ele>
<time>2024-03-23T13:52:00.676Z</time>
</trkpt>
<trkpt lat="30.6921200" lon="34.7911900">
<ele>736.400024</ele>
<time>2024-03-23T13:52:00.676Z</time>
</trkpt>
<trkpt lat="30.6922500" lon="34.7911100">
<ele>733.890015</ele>
<time>2024-03-23T13:52:00.676Z</time>
</trkpt>
<trkpt lat="30.6924200" lon="34.7910000">
<ele>732.200012</ele>
<time>2024-03-23T13:52:00.676Z</time>
</trkpt>
<trkpt lat="30.6925200" lon="34.7908500">
<ele>730.190002</ele>
<time>2024-03-23T13:52:00.676Z</time>
</trkpt>
<trkpt lat="30.6926400" lon="34.7906600">
<ele>728.119995</ele>
<time>2024-03-23T13:52:00.676Z</time>
</trkpt>
<trkpt lat="30.6927600" lon="34.7904100">
<ele>723.890015</ele>
<time>2024-03-23T13:52:00.676Z</time>
</trkpt>
<trkpt lat="30.6928900" lon="34.7901800">
<ele>723.559998</ele>
<time>2024-03-23T13:52:00.676Z</time>
</trkpt>
<trkpt lat="30.6930200" lon="34.7898800">
<ele>721.540039</ele>
<time>2024-03-23T13:52:00.676Z</time>
</trkpt>
<trkpt lat="30.6931300" lon="34.7896300">
<ele>719.989990</ele>
<time>2024-03-23T13:52:00.676Z</time>
</trkpt>
<trkpt lat="30.6932400" lon="34.7892800">
<ele>716.029968</ele>
<time>2024-03-23T13:52:00.676Z</time>
</trkpt>
<trkpt lat="30.6932000" lon="34.7890300">
<ele>710.359985</ele>
<time>2024-03-23T13:52:00.676Z</time>
</trkpt>
<trkpt lat="30.6930400" lon="34.7889100">
<ele>707.270020</ele>
<time>2024-03-23T13:52:00.676Z</time>
</trkpt>
<trkpt lat="30.6927800" lon="34.7889000">
<ele>707.989990</ele>
<time>2024-03-23T13:52:00.676Z</time>
</trkpt>
<trkpt lat="30.6925300" lon="34.7889700">
<ele>711.570007</ele>
<time>2024-03-23T13:52:00.676Z</time>
</trkpt>
<trkpt lat="30.6923400" lon="34.7888800">
<ele>720.669983</ele>
<time>2024-03-23T13:52:00.676Z</time>
</trkpt>
<trkpt lat="30.6922500" lon="34.7887900">
<ele>725.040039</ele>
<time>2024-03-23T13:52:00.676Z</time>
</trkpt>
<trkpt lat="30.6922500" lon="34.7887900">
<ele>725.040039</ele>
<time>2024-03-23T13:52:00.676Z</time>
</trkpt>
<trkpt lat="30.6921500" lon="34.7886900">
<ele>724.490051</ele>
<time>2024-03-23T13:52:00.676Z</time>
</trkpt>
<trkpt lat="30.6923300" lon="34.7886800">
<ele>721.719971</ele>
<time>2024-03-23T13:52:00.676Z</time>
</trkpt>
<trkpt lat="30.6925400" lon="34.7886600">
<ele>715.309998</ele>
<time>2024-03-23T13:52:00.676Z</time>
</trkpt>
<trkpt lat="30.6927700" lon="34.7885100">
<ele>715.489990</ele>
<time>2024-03-23T13:52:00.676Z</time>
</trkpt>
<trkpt lat="30.6930000" lon="34.7884000">
<ele>717.109985</ele>
<time>2024-03-23T13:52:00.676Z</time>
</trkpt>
<trkpt lat="30.6932400" lon="34.7883800">
<ele>717.260010</ele>
<time>2024-03-23T13:52:00.676Z</time>
</trkpt>
<trkpt lat="30.6934700" lon="34.7883900">
<ele>717.270020</ele>
<time>2024-03-23T13:52:00.676Z</time>
</trkpt>
<trkpt lat="30.6937100" lon="34.7883800">
<ele>718.020020</ele>
<time>2024-03-23T13:52:00.676Z</time>
</trkpt>
<trkpt lat="30.6937900" lon="34.7883300">
<ele>717.990051</ele>
<time>2024-03-23T13:52:00.676Z</time>
</trkpt>
<trkpt lat="30.6939400" lon="34.7880800">
<ele>714.910034</ele>
<time>2024-03-23T13:52:00.676Z</time>
</trkpt>
<trkpt lat="30.6941200" lon="34.7877400">
<ele>710.240051</ele>
<time>2024-03-23T13:52:00.676Z</time>
</trkpt>
<trkpt lat="30.6942200" lon="34.7875500">
<ele>708.549988</ele>
<time>2024-03-23T13:52:00.676Z</time>
</trkpt>
<trkpt lat="30.6944000" lon="34.7873400">
<ele>709.440002</ele>
<time>2024-03-23T13:52:00.676Z</time>
</trkpt>
<trkpt lat="30.6944900" lon="34.7871600">
<ele>707.440002</ele>
<time>2024-03-23T13:52:00.676Z</time>
</trkpt>
<trkpt lat="30.6946500" lon="34.7869300">
<ele>707.380005</ele>
<time>2024-03-23T13:52:00.676Z</time>
</trkpt>
<trkpt lat="30.6947500" lon="34.7866700">
<ele>710.559998</ele>
<time>2024-03-23T13:52:00.676Z</time>
</trkpt>
<trkpt lat="30.6947900" lon="34.7865000">
<ele>714.690002</ele>
<time>2024-03-23T13:52:00.676Z</time>
</trkpt>
<trkpt lat="30.6947300" lon="34.7863700">
<ele>719.889954</ele>
<time>2024-03-23T13:52:00.676Z</time>
</trkpt>
<trkpt lat="30.6947300" lon="34.7862900">
<ele>720.489990</ele>
<time>2024-03-23T13:52:00.676Z</time>
</trkpt>
<trkpt lat="30.6948200" lon="34.7862600">
<ele>718.249939</ele>
<time>2024-03-23T13:52:00.676Z</time>
</trkpt>
<trkpt lat="30.6949500" lon="34.7863200">
<ele>713.729980</ele>
<time>2024-03-23T13:52:00.676Z</time>
</trkpt>
<trkpt lat="30.6951100" lon="34.7863600">
<ele>707.790039</ele>
<time>2024-03-23T13:52:00.676Z</time>
</trkpt>
<trkpt lat="30.6953100" lon="34.7863300">
<ele>702.140015</ele>
<time>2024-03-23T13:52:00.676Z</time>
</trkpt>
<trkpt lat="30.6955700" lon="34.7863000">
<ele>701.400024</ele>
<time>2024-03-23T13:52:00.676Z</time>
</trkpt>
<trkpt lat="30.6957900" lon="34.7862300">
<ele>701.220032</ele>
<time>2024-03-23T13:52:00.676Z</time>
</trkpt>
<trkpt lat="30.6960400" lon="34.7861600">
<ele>703.239990</ele>
<time>2024-03-23T13:52:00.676Z</time>
</trkpt>
<trkpt lat="30.6962900" lon="34.7861800">
<ele>703.599976</ele>
<time>2024-03-23T13:52:00.676Z</time>
</trkpt>
<trkpt lat="30.6963900" lon="34.7861000">
<ele>702.979980</ele>
<time>2024-03-23T13:52:00.676Z</time>
</trkpt>
<trkpt lat="30.6965100" lon="34.7859400">
<ele>701.259949</ele>
<time>2024-03-23T13:52:00.676Z</time>
</trkpt>
<trkpt lat="30.6966000" lon="34.7857700">
<ele>698.710022</ele>
<time>2024-03-23T13:52:00.676Z</time>
</trkpt>
<trkpt lat="30.6966900" lon="34.7855600">
<ele>693.910034</ele>
<time>2024-03-23T13:52:00.676Z</time>
</trkpt>
<trkpt lat="30.6968300" lon="34.7853900">
<ele>692.890015</ele>
<time>2024-03-23T13:52:00.676Z</time>
</trkpt>
<trkpt lat="30.6968800" lon="34.7852000">
<ele>691.900024</ele>
<time>2024-03-23T13:52:00.676Z</time>
</trkpt>
<trkpt lat="30.6969900" lon="34.7851100">
<ele>691.870056</ele>
<time>2024-03-23T13:52:00.676Z</time>
</trkpt>
<trkpt lat="30.6970800" lon="34.7850400">
<ele>691.330017</ele>
<time>2024-03-23T13:52:00.676Z</time>
</trkpt>
<trkpt lat="30.6971800" lon="34.7850700">
<ele>693.059998</ele>
<time>2024-03-23T13:52:00.676Z</time>
</trkpt>
<trkpt lat="30.6973100" lon="34.7851800">
<ele>698.270020</ele>
<time>2024-03-23T13:52:00.676Z</time>
</trkpt>
<trkpt lat="30.6974900" lon="34.7853100">
<ele>707.549988</ele>
<time>2024-03-23T13:52:00.676Z</time>
</trkpt>
<trkpt lat="30.6975600" lon="34.7854100">
<ele>708.390015</ele>
<time>2024-03-23T13:52:00.676Z</time>
</trkpt>
<trkpt lat="30.6976700" lon="34.7856700">
<ele>708.369995</ele>
<time>2024-03-23T13:52:00.676Z</time>
</trkpt>
<trkpt lat="30.6978000" lon="34.7858200">
<ele>708.479980</ele>
<time>2024-03-23T13:52:00.676Z</time>
</trkpt>
<trkpt lat="30.6981200" lon="34.7863600">
<ele>709.120056</ele>
<time>2024-03-23T13:52:00.676Z</time>
</trkpt>
<trkpt lat="30.6983400" lon="34.7866800">
<ele>710.209961</ele>
<time>2024-03-23T13:52:00.676Z</time>
</trkpt>
<trkpt lat="30.6984200" lon="34.7868400">
<ele>712.219971</ele>
<time>2024-03-23T13:52:00.676Z</time>
</trkpt>
<trkpt lat="30.6986400" lon="34.7872500">
<ele>716.130005</ele>
<time>2024-03-23T13:52:00.676Z</time>
</trkpt>
<trkpt lat="30.6986700" lon="34.7873900">
<ele>714.770020</ele>
<time>2024-03-23T13:52:00.676Z</time>
</trkpt>
<trkpt lat="30.6987200" lon="34.7874700">
<ele>714.739990</ele>
<time>2024-03-23T13:52:00.676Z</time>
</trkpt>
<trkpt lat="30.6987700" lon="34.7875800">
<ele>714.770020</ele>
<time>2024-03-23T13:52:00.676Z</time>
</trkpt>
<trkpt lat="30.6989600" lon="34.7878700">
<ele>713.690002</ele>
<time>2024-03-23T13:52:00.676Z</time>
</trkpt>
<trkpt lat="30.6991600" lon="34.7881900">
<ele>710.070007</ele>
<time>2024-03-23T13:52:00.676Z</time>
</trkpt>
<trkpt lat="30.6993700" lon="34.7884900">
<ele>706.630005</ele>
<time>2024-03-23T13:52:00.676Z</time>
</trkpt>
<trkpt lat="30.6995000" lon="34.7886800">
<ele>704.809937</ele>
<time>2024-03-23T13:52:00.676Z</time>
</trkpt>
<trkpt lat="30.6996900" lon="34.7891500">
<ele>703.989990</ele>
<time>2024-03-23T13:52:00.676Z</time>
</trkpt>
<trkpt lat="30.6998800" lon="34.7895100">
<ele>708.310059</ele>
<time>2024-03-23T13:52:00.676Z</time>
</trkpt>
<trkpt lat="30.7000600" lon="34.7898300">
<ele>714.600037</ele>
<time>2024-03-23T13:52:00.676Z</time>
</trkpt>
<trkpt lat="30.7002900" lon="34.7900700">
<ele>720.229980</ele>
<time>2024-03-23T13:52:00.676Z</time>
</trkpt>
<trkpt lat="30.7004700" lon="34.7902600">
<ele>716.309998</ele>
<time>2024-03-23T13:52:00.676Z</time>
</trkpt>
<trkpt lat="30.7006400" lon="34.7903700">
<ele>716.900024</ele>
<time>2024-03-23T13:52:00.676Z</time>
</trkpt>
<trkpt lat="30.7007800" lon="34.7904400">
<ele>719.330017</ele>
<time>2024-03-23T13:52:00.676Z</time>
</trkpt>
<trkpt lat="30.7010500" lon="34.7905500">
<ele>722.740051</ele>
<time>2024-03-23T13:52:00.676Z</time>
</trkpt>
<trkpt lat="30.7012900" lon="34.7905900">
<ele>720.550049</ele>
<time>2024-03-23T13:52:00.676Z</time>
</trkpt>
<trkpt lat="30.7014900" lon="34.7905900">
<ele>717.080017</ele>
<time>2024-03-23T13:52:00.676Z</time>
</trkpt>
<trkpt lat="30.7016300" lon="34.7904500">
<ele>714.329956</ele>
<time>2024-03-23T13:52:00.676Z</time>
</trkpt>
<trkpt lat="30.7017100" lon="34.7902400">
<ele>711.080017</ele>
<time>2024-03-23T13:52:00.676Z</time>
</trkpt>
<trkpt lat="30.7018100" lon="34.7900400">
<ele>708.500000</ele>
<time>2024-03-23T13:52:00.676Z</time>
</trkpt>
<trkpt lat="30.7019200" lon="34.7897500">
<ele>708.089966</ele>
<time>2024-03-23T13:52:00.676Z</time>
</trkpt>
<trkpt lat="30.7020100" lon="34.7895800">
<ele>710.619995</ele>
<time>2024-03-23T13:52:00.676Z</time>
</trkpt>
<trkpt lat="30.7021400" lon="34.7893700">
<ele>717.420044</ele>
<time>2024-03-23T13:52:00.676Z</time>
</trkpt>
<trkpt lat="30.7021600" lon="34.7892800">
<ele>720.220032</ele>
<time>2024-03-23T13:52:00.676Z</time>
</trkpt>
<trkpt lat="30.7021600" lon="34.7892800">
<ele>720.220032</ele>
<time>2024-03-23T13:52:00.676Z</time>
</trkpt>
<trkpt lat="30.7021700" lon="34.7892400">
<ele>721.559998</ele>
<time>2024-03-23T13:52:00.676Z</time>
</trkpt>
<trkpt lat="30.7021700" lon="34.7891000">
<ele>724.210022</ele>
<time>2024-03-23T13:52:00.676Z</time>
</trkpt>
<trkpt lat="30.7021500" lon="34.7889700">
<ele>724.780029</ele>
<time>2024-03-23T13:52:00.676Z</time>
</trkpt>
<trkpt lat="30.7021700" lon="34.7888900">
<ele>725.859985</ele>
<time>2024-03-23T13:52:00.676Z</time>
</trkpt>
<trkpt lat="30.7022200" lon="34.7888200">
<ele>726.210022</ele>
<time>2024-03-23T13:52:00.676Z</time>
</trkpt>
<trkpt lat="30.7022900" lon="34.7887900">
<ele>726.469971</ele>
<time>2024-03-23T13:52:00.676Z</time>
</trkpt>
<trkpt lat="30.7023600" lon="34.7887900">
<ele>727.030029</ele>
<time>2024-03-23T13:52:00.676Z</time>
</trkpt>
<trkpt lat="30.7025500" lon="34.7888200">
<ele>728.300049</ele>
<time>2024-03-23T13:52:00.676Z</time>
</trkpt>
<trkpt lat="30.7026500" lon="34.7887800">
<ele>725.700012</ele>
<time>2024-03-23T13:52:00.676Z</time>
</trkpt>
<trkpt lat="30.7027700" lon="34.7886200">
<ele>719.369995</ele>
<time>2024-03-23T13:52:00.676Z</time>
</trkpt>
<trkpt lat="30.7028800" lon="34.7885000">
<ele>716.579956</ele>
<time>2024-03-23T13:52:00.676Z</time>
</trkpt>
<trkpt lat="30.7029300" lon="34.7883800">
<ele>714.690002</ele>
<time>2024-03-23T13:52:00.676Z</time>
</trkpt>
<trkpt lat="30.7029400" lon="34.7882700">
<ele>714.479980</ele>
<time>2024-03-23T13:52:00.676Z</time>
</trkpt>
<trkpt lat="30.7029300" lon="34.7881200">
<ele>715.520020</ele>
<time>2024-03-23T13:52:00.676Z</time>
</trkpt>
<trkpt lat="30.7029700" lon="34.7880300">
<ele>715.670044</ele>
<time>2024-03-23T13:52:00.676Z</time>
</trkpt>
<trkpt lat="30.7030300" lon="34.7879800">
<ele>715.230042</ele>
<time>2024-03-23T13:52:00.676Z</time>
</trkpt>
<trkpt lat="30.7031000" lon="34.7880300">
<ele>714.809998</ele>
<time>2024-03-23T13:52:00.676Z</time>
</trkpt>
<trkpt lat="30.7031800" lon="34.7881400">
<ele>714.050049</ele>
<time>2024-03-23T13:52:00.676Z</time>
</trkpt>
<trkpt lat="30.7032700" lon="34.7882000">
<ele>713.870056</ele>
<time>2024-03-23T13:52:00.676Z</time>
</trkpt>
<trkpt lat="30.7033900" lon="34.7882200">
<ele>714.199951</ele>
<time>2024-03-23T13:52:00.676Z</time>
</trkpt>
<trkpt lat="30.7035700" lon="34.7881800">
<ele>714.199951</ele>
<time>2024-03-23T13:52:00.676Z</time>
</trkpt>
<trkpt lat="30.7036500" lon="34.7881100">
<ele>713.010010</ele>
<time>2024-03-23T13:52:00.676Z</time>
</trkpt>
<trkpt lat="30.7037400" lon="34.7880800">
<ele>712.739990</ele>
<time>2024-03-23T13:52:00.676Z</time>
</trkpt>
<trkpt lat="30.7038900" lon="34.7881000">
<ele>713.169983</ele>
<time>2024-03-23T13:52:00.676Z</time>
</trkpt>
<trkpt lat="30.7039800" lon="34.7882000">
<ele>714.010010</ele>
<time>2024-03-23T13:52:00.676Z</time>
</trkpt>
<trkpt lat="30.7041400" lon="34.7883500">
<ele>714.710022</ele>
<time>2024-03-23T13:52:00.676Z</time>
</trkpt>
<trkpt lat="30.7043100" lon="34.7884200">
<ele>711.640015</ele>
<time>2024-03-23T13:52:00.676Z</time>
</trkpt>
<trkpt lat="30.7044700" lon="34.7884100">
<ele>708.130005</ele>
<time>2024-03-23T13:52:00.676Z</time>
</trkpt>
<trkpt lat="30.7046400" lon="34.7883300">
<ele>700.150024</ele>
<time>2024-03-23T13:52:00.676Z</time>
</trkpt>
<trkpt lat="30.7048200" lon="34.7881300">
<ele>695.929993</ele>
<time>2024-03-23T13:52:00.676Z</time>
</trkpt>
<trkpt lat="30.7048900" lon="34.7879500">
<ele>697.319946</ele>
<time>2024-03-23T13:52:00.676Z</time>
</trkpt>
<trkpt lat="30.7048700" lon="34.7877700">
<ele>699.679993</ele>
<time>2024-03-23T13:52:00.676Z</time>
</trkpt>
<trkpt lat="30.7048800" lon="34.7875600">
<ele>702.270020</ele>
<time>2024-03-23T13:52:00.676Z</time>
</trkpt>
<trkpt lat="30.7048900" lon="34.7873300">
<ele>703.830017</ele>
<time>2024-03-23T13:52:00.676Z</time>
</trkpt>
<trkpt lat="30.7049800" lon="34.7871900">
<ele>704.770020</ele>
<time>2024-03-23T13:52:00.676Z</time>
</trkpt>
<trkpt lat="30.7051200" lon="34.7871300">
<ele>705.679993</ele>
<time>2024-03-23T13:52:00.676Z</time>
</trkpt>
<trkpt lat="30.7052800" lon="34.7871900">
<ele>707.640015</ele>
<time>2024-03-23T13:52:00.676Z</time>
</trkpt>
<trkpt lat="30.7054000" lon="34.7873400">
<ele>707.359985</ele>
<time>2024-03-23T13:52:00.676Z</time>
</trkpt>
<trkpt lat="30.7055600" lon="34.7874200">
<ele>706.049988</ele>
<time>2024-03-23T13:52:00.676Z</time>
</trkpt>
<trkpt lat="30.7057500" lon="34.7876000">
<ele>706.900024</ele>
<time>2024-03-23T13:52:00.676Z</time>
</trkpt>
<trkpt lat="30.7059700" lon="34.7877700">
<ele>707.049988</ele>
<time>2024-03-23T13:52:00.676Z</time>
</trkpt>
<trkpt lat="30.7061100" lon="34.7879700">
<ele>706.619995</ele>
<time>2024-03-23T13:52:00.676Z</time>
</trkpt>
<trkpt lat="30.7062100" lon="34.7880300">
<ele>703.300049</ele>
<time>2024-03-23T13:52:00.676Z</time>
</trkpt>
<trkpt lat="30.7063200" lon="34.7880300">
<ele>700.099976</ele>
<time>2024-03-23T13:52:00.676Z</time>
</trkpt>
<trkpt lat="30.7064300" lon="34.7879500">
<ele>697.440002</ele>
<time>2024-03-23T13:52:00.676Z</time>
</trkpt>
<trkpt lat="30.7064800" lon="34.7878300">
<ele>696.580017</ele>
<time>2024-03-23T13:52:00.676Z</time>
</trkpt>
<trkpt lat="30.7065500" lon="34.7876600">
<ele>695.470032</ele>
<time>2024-03-23T13:52:00.676Z</time>
</trkpt>
<trkpt lat="30.7066400" lon="34.7875200">
<ele>692.940002</ele>
<time>2024-03-23T13:52:00.676Z</time>
</trkpt>
<trkpt lat="30.7067200" lon="34.7874300">
<ele>691.700012</ele>
<time>2024-03-23T13:52:00.676Z</time>
</trkpt>
<trkpt lat="30.7067700" lon="34.7873300">
<ele>691.519958</ele>
<time>2024-03-23T13:52:00.676Z</time>
</trkpt>
<trkpt lat="30.7068100" lon="34.7871500">
<ele>691.770020</ele>
<time>2024-03-23T13:52:00.676Z</time>
</trkpt>
<trkpt lat="30.7070800" lon="34.7867800">
<ele>680.700012</ele>
<time>2024-03-23T13:52:00.676Z</time>
</trkpt>
<trkpt lat="30.7071500" lon="34.7865400">
<ele>676.279968</ele>
<time>2024-03-23T13:52:00.676Z</time>
</trkpt>
<trkpt lat="30.7072600" lon="34.7862900">
<ele>674.010010</ele>
<time>2024-03-23T13:52:00.676Z</time>
</trkpt>
<trkpt lat="30.7073500" lon="34.7860500">
<ele>675.779968</ele>
<time>2024-03-23T13:52:00.676Z</time>
</trkpt>
<trkpt lat="30.7075000" lon="34.7858400">
<ele>674.950012</ele>
<time>2024-03-23T13:52:00.676Z</time>
</trkpt>
<trkpt lat="30.7075600" lon="34.7857100">
<ele>674.630005</ele>
<time>2024-03-23T13:52:00.676Z</time>
</trkpt>
<trkpt lat="30.7076300" lon="34.7855600">
<ele>674.929993</ele>
<time>2024-03-23T13:52:00.676Z</time>
</trkpt>
<trkpt lat="30.7077700" lon="34.7852200">
<ele>672.029968</ele>
<time>2024-03-23T13:52:00.676Z</time>
</trkpt>
<trkpt lat="30.7078300" lon="34.7848300">
<ele>668.320007</ele>
<time>2024-03-23T13:52:00.676Z</time>
</trkpt>
<trkpt lat="30.7102100" lon="34.7853400">
<ele>671.690002</ele>
<time>2024-03-23T13:52:00.676Z</time>
</trkpt>
<trkpt lat="30.7102100" lon="34.7853400">
<ele>671.690002</ele>
<time>2024-03-23T13:52:00.676Z</time>
</trkpt>
<trkpt lat="30.7102800" lon="34.7853500">
<ele>669.989990</ele>
<time>2024-03-23T13:52:00.676Z</time>
</trkpt>
<trkpt lat="30.7107100" lon="34.7854900">
<ele>661.000000</ele>
<time>2024-03-23T13:52:00.676Z</time>
</trkpt>
<trkpt lat="30.7106800" lon="34.7859800">
<ele>679.429993</ele>
<time>2024-03-23T13:52:00.676Z</time>
</trkpt>
<trkpt lat="30.7107700" lon="34.7860400">
<ele>680.520020</ele>
<time>2024-03-23T13:52:00.676Z</time>
</trkpt>
<trkpt lat="30.7108700" lon="34.7860400">
<ele>679.970032</ele>
<time>2024-03-23T13:52:00.676Z</time>
</trkpt>
<trkpt lat="30.7111100" lon="34.7858900">
<ele>674.030029</ele>
<time>2024-03-23T13:52:00.676Z</time>
</trkpt>
<trkpt lat="30.7113100" lon="34.7857900">
<ele>670.770020</ele>
<time>2024-03-23T13:52:00.676Z</time>
</trkpt>
<trkpt lat="30.7115500" lon="34.7855900">
<ele>665.859985</ele>
<time>2024-03-23T13:52:00.676Z</time>
</trkpt>
<trkpt lat="30.7116500" lon="34.7855800">
<ele>667.530029</ele>
<time>2024-03-23T13:52:00.676Z</time>
</trkpt>
<trkpt lat="30.7116400" lon="34.7856900">
<ele>667.010010</ele>
<time>2024-03-23T13:52:00.676Z</time>
</trkpt>
<trkpt lat="30.7114700" lon="34.7859100">
<ele>671.320007</ele>
<time>2024-03-23T13:52:00.676Z</time>
</trkpt>
<trkpt lat="30.7112900" lon="34.7862100">
<ele>677.700012</ele>
<time>2024-03-23T13:52:00.676Z</time>
</trkpt>
<trkpt lat="30.7112500" lon="34.7863500">
<ele>679.939941</ele>
<time>2024-03-23T13:52:00.676Z</time>
</trkpt>
<trkpt lat="30.7111500" lon="34.7866200">
<ele>681.919983</ele>
<time>2024-03-23T13:52:00.676Z</time>
</trkpt>
<trkpt lat="30.7111800" lon="34.7867800">
<ele>681.679993</ele>
<time>2024-03-23T13:52:00.676Z</time>
</trkpt>
<trkpt lat="30.7112500" lon="34.7868900">
<ele>682.200012</ele>
<time>2024-03-23T13:52:00.676Z</time>
</trkpt>
<trkpt lat="30.7112500" lon="34.7870300">
<ele>682.000000</ele>
<time>2024-03-23T13:52:00.676Z</time>
</trkpt>
<trkpt lat="30.7113300" lon="34.7871100">
<ele>684.070007</ele>
<time>2024-03-23T13:52:00.676Z</time>
</trkpt>
<trkpt lat="30.7114200" lon="34.7870900">
<ele>686.199951</ele>
<time>2024-03-23T13:52:00.676Z</time>
</trkpt>
<trkpt lat="30.7117200" lon="34.7868300">
<ele>690.750000</ele>
<time>2024-03-23T13:52:00.676Z</time>
</trkpt>
<trkpt lat="30.7118200" lon="34.7867700">
<ele>691.400024</ele>
<time>2024-03-23T13:52:00.676Z</time>
</trkpt>
<trkpt lat="30.7119400" lon="34.7868000">
<ele>692.909973</ele>
<time>2024-03-23T13:52:00.676Z</time>
</trkpt>
<trkpt lat="30.7122100" lon="34.7870100">
<ele>702.650024</ele>
<time>2024-03-23T13:52:00.676Z</time>
</trkpt>
<trkpt lat="30.7124700" lon="34.7872200">
<ele>704.829956</ele>
<time>2024-03-23T13:52:00.676Z</time>
</trkpt>
<trkpt lat="30.7125700" lon="34.7872000">
<ele>706.640015</ele>
<time>2024-03-23T13:52:00.676Z</time>
</trkpt>
<trkpt lat="30.7127800" lon="34.7871000">
<ele>710.339966</ele>
<time>2024-03-23T13:52:00.676Z</time>
</trkpt>
<trkpt lat="30.7129900" lon="34.7869200">
<ele>701.750000</ele>
<time>2024-03-23T13:52:00.676Z</time>
</trkpt>
<trkpt lat="30.7131000" lon="34.7868100">
<ele>698.530029</ele>
<time>2024-03-23T13:52:00.676Z</time>
</trkpt>
<trkpt lat="30.7131300" lon="34.7866800">
<ele>697.950012</ele>
<time>2024-03-23T13:52:00.676Z</time>
</trkpt>
<trkpt lat="30.7131600" lon="34.7864600">
<ele>697.130005</ele>
<time>2024-03-23T13:52:00.676Z</time>
</trkpt>
<trkpt lat="30.7132000" lon="34.7862700">
<ele>697.619995</ele>
<time>2024-03-23T13:52:00.676Z</time>
</trkpt>
<trkpt lat="30.7133500" lon="34.7859400">
<ele>695.680054</ele>
<time>2024-03-23T13:52:00.676Z</time>
</trkpt>
<trkpt lat="30.7135100" lon="34.7856300">
<ele>694.629944</ele>
<time>2024-03-23T13:52:00.676Z</time>
</trkpt>
<trkpt lat="30.7137000" lon="34.7855000">
<ele>696.399963</ele>
<time>2024-03-23T13:52:00.676Z</time>
</trkpt>
<trkpt lat="30.7138800" lon="34.7852400">
<ele>703.000000</ele>
<time>2024-03-23T13:52:00.676Z</time>
</trkpt>
<trkpt lat="30.7140000" lon="34.7848600">
<ele>706.410034</ele>
<time>2024-03-23T13:52:00.676Z</time>
</trkpt>
<trkpt lat="30.7141400" lon="34.7846300">
<ele>709.380005</ele>
<time>2024-03-23T13:52:00.676Z</time>
</trkpt>
<trkpt lat="30.7141900" lon="34.7844200">
<ele>711.019958</ele>
<time>2024-03-23T13:52:00.676Z</time>
</trkpt>
<trkpt lat="30.7141600" lon="34.7841300">
<ele>712.650024</ele>
<time>2024-03-23T13:52:00.676Z</time>
</trkpt>
<trkpt lat="30.7142900" lon="34.7839500">
<ele>712.029968</ele>
<time>2024-03-23T13:52:00.676Z</time>
</trkpt>
<trkpt lat="30.7143800" lon="34.7839600">
<ele>712.460022</ele>
<time>2024-03-23T13:52:00.676Z</time>
</trkpt>
<trkpt lat="30.7145900" lon="34.7841000">
<ele>713.409973</ele>
<time>2024-03-23T13:52:00.676Z</time>
</trkpt>
<trkpt lat="30.7147500" lon="34.7841200">
<ele>714.099976</ele>
<time>2024-03-23T13:52:00.676Z</time>
</trkpt>
<trkpt lat="30.7148600" lon="34.7840600">
<ele>714.039978</ele>
<time>2024-03-23T13:52:00.676Z</time>
</trkpt>
<trkpt lat="30.7150200" lon="34.7840700">
<ele>712.760010</ele>
<time>2024-03-23T13:52:00.676Z</time>
</trkpt>
<trkpt lat="30.7151000" lon="34.7840500">
<ele>711.959961</ele>
<time>2024-03-23T13:52:00.676Z</time>
</trkpt>
<trkpt lat="30.7152500" lon="34.7840700">
<ele>708.940002</ele>
<time>2024-03-23T13:52:00.676Z</time>
</trkpt>
<trkpt lat="30.7154300" lon="34.7840800">
<ele>706.850037</ele>
<time>2024-03-23T13:52:00.676Z</time>
</trkpt>
<trkpt lat="30.7155900" lon="34.7840500">
<ele>707.259949</ele>
<time>2024-03-23T13:52:00.676Z</time>
</trkpt>
<trkpt lat="30.7158100" lon="34.7838000">
<ele>713.929993</ele>
<time>2024-03-23T13:52:00.676Z</time>
</trkpt>
<trkpt lat="30.7159800" lon="34.7836200">
<ele>715.410034</ele>
<time>2024-03-23T13:52:00.676Z</time>
</trkpt>
<trkpt lat="30.7161200" lon="34.7833100">
<ele>717.299988</ele>
<time>2024-03-23T13:52:00.676Z</time>
</trkpt>
<trkpt lat="30.7163700" lon="34.7829600">
<ele>724.070007</ele>
<time>2024-03-23T13:52:00.676Z</time>
</trkpt>
<trkpt lat="30.7164000" lon="34.7826400">
<ele>723.349976</ele>
<time>2024-03-23T13:52:00.676Z</time>
</trkpt>
<trkpt lat="30.7163500" lon="34.7823600">
<ele>719.850037</ele>
<time>2024-03-23T13:52:00.676Z</time>
</trkpt>
<trkpt lat="30.7162800" lon="34.7821900">
<ele>717.630005</ele>
<time>2024-03-23T13:52:00.676Z</time>
</trkpt>
<trkpt lat="30.7163000" lon="34.7821000">
<ele>716.519958</ele>
<time>2024-03-23T13:52:00.676Z</time>
</trkpt>
<trkpt lat="30.7163200" lon="34.7819900">
<ele>715.070007</ele>
<time>2024-03-23T13:52:00.676Z</time>
</trkpt>
<trkpt lat="30.7164200" lon="34.7819700">
<ele>714.140015</ele>
<time>2024-03-23T13:52:00.676Z</time>
</trkpt>
<trkpt lat="30.7165600" lon="34.7819900">
<ele>713.419983</ele>
<time>2024-03-23T13:52:00.676Z</time>
</trkpt>
<trkpt lat="30.7168900" lon="34.7821100">
<ele>714.710022</ele>
<time>2024-03-23T13:52:00.676Z</time>
</trkpt>
<trkpt lat="30.7170800" lon="34.7821300">
<ele>716.299988</ele>
<time>2024-03-23T13:52:00.676Z</time>
</trkpt>
<trkpt lat="30.7174700" lon="34.7819800">
<ele>718.399963</ele>
<time>2024-03-23T13:52:00.676Z</time>
</trkpt>
<trkpt lat="30.7176900" lon="34.7820600">
<ele>713.330017</ele>
<time>2024-03-23T13:52:00.676Z</time>
</trkpt>
<trkpt lat="30.7179700" lon="34.7819900">
<ele>707.460022</ele>
<time>2024-03-23T13:52:00.676Z</time>
</trkpt>
<trkpt lat="30.7180200" lon="34.7819100">
<ele>706.919983</ele>
<time>2024-03-23T13:52:00.676Z</time>
</trkpt>
<trkpt lat="30.7179900" lon="34.7818400">
<ele>707.460022</ele>
<time>2024-03-23T13:52:00.676Z</time>
</trkpt>
<trkpt lat="30.7179100" lon="34.7817900">
<ele>709.900024</ele>
<time>2024-03-23T13:52:00.676Z</time>
</trkpt>
<trkpt lat="30.7176200" lon="34.7815600">
<ele>716.709961</ele>
<time>2024-03-23T13:52:00.676Z</time>
</trkpt>
<trkpt lat="30.7175900" lon="34.7814400">
<ele>716.309998</ele>
<time>2024-03-23T13:52:00.676Z</time>
</trkpt>
<trkpt lat="30.7174600" lon="34.7811800">
<ele>717.680054</ele>
<time>2024-03-23T13:52:00.676Z</time>
</trkpt>
<trkpt lat="30.7173900" lon="34.7811100">
<ele>718.760010</ele>
<time>2024-03-23T13:52:00.676Z</time>
</trkpt>
<trkpt lat="30.7172600" lon="34.7811200">
<ele>722.090027</ele>
<time>2024-03-23T13:52:00.676Z</time>
</trkpt>
<trkpt lat="30.7170500" lon="34.7810600">
<ele>715.460022</ele>
<time>2024-03-23T13:52:00.676Z</time>
</trkpt>
<trkpt lat="30.7167600" lon="34.7809000">
<ele>706.520020</ele>
<time>2024-03-23T13:52:00.676Z</time>
</trkpt>
<trkpt lat="30.7166600" lon="34.7807700">
<ele>705.799988</ele>
<time>2024-03-23T13:52:00.676Z</time>
</trkpt>
<trkpt lat="30.7166800" lon="34.7807100">
<ele>706.399963</ele>
<time>2024-03-23T13:52:00.676Z</time>
</trkpt>
<trkpt lat="30.7167400" lon="34.7806500">
<ele>706.910034</ele>
<time>2024-03-23T13:52:00.676Z</time>
</trkpt>
<trkpt lat="30.7169100" lon="34.7806100">
<ele>706.159973</ele>
<time>2024-03-23T13:52:00.676Z</time>
</trkpt>
<trkpt lat="30.7171100" lon="34.7804500">
<ele>706.859985</ele>
<time>2024-03-23T13:52:00.676Z</time>
</trkpt>
<trkpt lat="30.7172800" lon="34.7803300">
<ele>706.269958</ele>
<time>2024-03-23T13:52:00.676Z</time>
</trkpt>
<trkpt lat="30.7174100" lon="34.7801400">
<ele>703.159973</ele>
<time>2024-03-23T13:52:00.676Z</time>
</trkpt>
<trkpt lat="30.7175200" lon="34.7799300">
<ele>700.859985</ele>
<time>2024-03-23T13:52:00.676Z</time>
</trkpt>
<trkpt lat="30.7175500" lon="34.7796600">
<ele>701.190002</ele>
<time>2024-03-23T13:52:00.676Z</time>
</trkpt>
<trkpt lat="30.7175800" lon="34.7796500">
<ele>700.980042</ele>
<time>2024-03-23T13:52:00.676Z</time>
</trkpt>
<trkpt lat="30.7176100" lon="34.7796700">
<ele>700.549988</ele>
<time>2024-03-23T13:52:00.676Z</time>
</trkpt>
<trkpt lat="30.7176300" lon="34.7799400">
<ele>700.059937</ele>
<time>2024-03-23T13:52:00.676Z</time>
</trkpt>
<trkpt lat="30.7175900" lon="34.7801000">
<ele>701.320007</ele>
<time>2024-03-23T13:52:00.676Z</time>
</trkpt>
<trkpt lat="30.7174400" lon="34.7803700">
<ele>706.209961</ele>
<time>2024-03-23T13:52:00.676Z</time>
</trkpt>
<trkpt lat="30.7174500" lon="34.7804300">
<ele>707.350037</ele>
<time>2024-03-23T13:52:00.676Z</time>
</trkpt>
<trkpt lat="30.7175100" lon="34.7804500">
<ele>707.480042</ele>
<time>2024-03-23T13:52:00.676Z</time>
</trkpt>
<trkpt lat="30.7176700" lon="34.7803800">
<ele>703.020020</ele>
<time>2024-03-23T13:52:00.676Z</time>
</trkpt>
<trkpt lat="30.7177800" lon="34.7803700">
<ele>700.980042</ele>
<time>2024-03-23T13:52:00.676Z</time>
</trkpt>
<trkpt lat="30.7179200" lon="34.7804300">
<ele>699.700012</ele>
<time>2024-03-23T13:52:00.676Z</time>
</trkpt>
<trkpt lat="30.7180100" lon="34.7805000">
<ele>698.660034</ele>
<time>2024-03-23T13:52:00.676Z</time>
</trkpt>
<trkpt lat="30.7181100" lon="34.7806400">
<ele>697.969971</ele>
<time>2024-03-23T13:52:00.676Z</time>
</trkpt>
<trkpt lat="30.7181100" lon="34.7806400">
<ele>697.969971</ele>
<time>2024-03-23T13:52:00.676Z</time>
</trkpt>
<trkpt lat="30.7183800" lon="34.7809900">
<ele>699.150024</ele>
<time>2024-03-23T13:52:00.676Z</time>
</trkpt>
<trkpt lat="30.7185000" lon="34.7812300">
<ele>702.399963</ele>
<time>2024-03-23T13:52:00.676Z</time>
</trkpt>
<trkpt lat="30.7187300" lon="34.7814200">
<ele>700.460022</ele>
<time>2024-03-23T13:52:00.676Z</time>
</trkpt>
<trkpt lat="30.7189500" lon="34.7818200">
<ele>692.149963</ele>
<time>2024-03-23T13:52:00.676Z</time>
</trkpt>
<trkpt lat="30.7191700" lon="34.7820600">
<ele>690.340027</ele>
<time>2024-03-23T13:52:00.676Z</time>
</trkpt>
<trkpt lat="30.7193100" lon="34.7820700">
<ele>690.239990</ele>
<time>2024-03-23T13:52:00.676Z</time>
</trkpt>
<trkpt lat="30.7196700" lon="34.7821700">
<ele>681.780029</ele>
<time>2024-03-23T13:52:00.676Z</time>
</trkpt>
<trkpt lat="30.7197500" lon="34.7821500">
<ele>679.859985</ele>
<time>2024-03-23T13:52:00.676Z</time>
</trkpt>
<trkpt lat="30.7197900" lon="34.7821900">
<ele>677.010010</ele>
<time>2024-03-23T13:52:00.676Z</time>
</trkpt>
<trkpt lat="30.7198100" lon="34.7823000">
<ele>673.739990</ele>
<time>2024-03-23T13:52:00.676Z</time>
</trkpt>
<trkpt lat="30.7199600" lon="34.7823400">
<ele>667.510010</ele>
<time>2024-03-23T13:52:00.676Z</time>
</trkpt>
<trkpt lat="30.7201800" lon="34.7824300">
<ele>663.580017</ele>
<time>2024-03-23T13:52:00.676Z</time>
</trkpt>
<trkpt lat="30.7203200" lon="34.7825600">
<ele>661.329956</ele>
<time>2024-03-23T13:52:00.676Z</time>
</trkpt>
<trkpt lat="30.7204500" lon="34.7826000">
<ele>661.050049</ele>
<time>2024-03-23T13:52:00.676Z</time>
</trkpt>
<trkpt lat="30.7206500" lon="34.7825900">
<ele>661.799988</ele>
<time>2024-03-23T13:52:00.676Z</time>
</trkpt>
<trkpt lat="30.7207200" lon="34.7826600">
<ele>662.969971</ele>
<time>2024-03-23T13:52:00.676Z</time>
</trkpt>
<trkpt lat="30.7207900" lon="34.7826500">
<ele>663.969971</ele>
<time>2024-03-23T13:52:00.676Z</time>
</trkpt>
<trkpt lat="30.7209600" lon="34.7825300">
<ele>663.369934</ele>
<time>2024-03-23T13:52:00.676Z</time>
</trkpt>
<trkpt lat="30.7214200" lon="34.7824100">
<ele>663.389954</ele>
<time>2024-03-23T13:52:00.676Z</time>
</trkpt>
<trkpt lat="30.7215000" lon="34.7822800">
<ele>665.109985</ele>
<time>2024-03-23T13:52:00.676Z</time>
</trkpt>
<trkpt lat="30.7215800" lon="34.7822400">
<ele>665.670044</ele>
<time>2024-03-23T13:52:00.676Z</time>
</trkpt>
<trkpt lat="30.7217400" lon="34.7822500">
<ele>664.359985</ele>
<time>2024-03-23T13:52:00.676Z</time>
</trkpt>
<trkpt lat="30.7220100" lon="34.7820700">
<ele>661.630005</ele>
<time>2024-03-23T13:52:00.676Z</time>
</trkpt>
<trkpt lat="30.7223600" lon="34.7817800">
<ele>660.889954</ele>
<time>2024-03-23T13:52:00.676Z</time>
</trkpt>
<trkpt lat="30.7224700" lon="34.7817200">
<ele>661.530029</ele>
<time>2024-03-23T13:52:00.676Z</time>
</trkpt>
<trkpt lat="30.7227300" lon="34.7817600">
<ele>664.650024</ele>
<time>2024-03-23T13:52:00.676Z</time>
</trkpt>
<trkpt lat="30.7228600" lon="34.7816900">
<ele>665.750000</ele>
<time>2024-03-23T13:52:00.676Z</time>
</trkpt>
<trkpt lat="30.7231500" lon="34.7816700">
<ele>669.079956</ele>
<time>2024-03-23T13:52:00.676Z</time>
</trkpt>
<trkpt lat="30.7232200" lon="34.7816400">
<ele>670.019958</ele>
<time>2024-03-23T13:52:00.676Z</time>
</trkpt>
<trkpt lat="30.7232600" lon="34.7815700">
<ele>669.179993</ele>
<time>2024-03-23T13:52:00.676Z</time>
</trkpt>
<trkpt lat="30.7232900" lon="34.7814000">
<ele>665.280029</ele>
<time>2024-03-23T13:52:00.676Z</time>
</trkpt>
<trkpt lat="30.7233400" lon="34.7813100">
<ele>664.190002</ele>
<time>2024-03-23T13:52:00.676Z</time>
</trkpt>
<trkpt lat="30.7236100" lon="34.7811000">
<ele>659.809998</ele>
<time>2024-03-23T13:52:00.676Z</time>
</trkpt>
<trkpt lat="30.7239200" lon="34.7811000">
<ele>662.500000</ele>
<time>2024-03-23T13:52:00.676Z</time>
</trkpt>
<trkpt lat="30.7240800" lon="34.7810400">
<ele>664.750000</ele>
<time>2024-03-23T13:52:00.676Z</time>
</trkpt>
<trkpt lat="30.7243700" lon="34.7810100">
<ele>665.880005</ele>
<time>2024-03-23T13:52:00.676Z</time>
</trkpt>
<trkpt lat="30.7246900" lon="34.7810200">
<ele>661.550049</ele>
<time>2024-03-23T13:52:00.676Z</time>
</trkpt>
<trkpt lat="30.7250200" lon="34.7810600">
<ele>658.409973</ele>
<time>2024-03-23T13:52:00.676Z</time>
</trkpt>
<trkpt lat="30.7250200" lon="34.7810600">
<ele>658.409973</ele>
<time>2024-03-23T13:52:00.676Z</time>
</trkpt>
<trkpt lat="30.7253200" lon="34.7809800">
<ele>657.840027</ele>
<time>2024-03-23T13:52:00.676Z</time>
</trkpt>
<trkpt lat="30.7254300" lon="34.7809100">
<ele>660.859985</ele>
<time>2024-03-23T13:52:00.676Z</time>
</trkpt>
<trkpt lat="30.7256700" lon="34.7809900">
<ele>661.489990</ele>
<time>2024-03-23T13:52:00.676Z</time>
</trkpt>
<trkpt lat="30.7258600" lon="34.7810100">
<ele>661.899963</ele>
<time>2024-03-23T13:52:00.676Z</time>
</trkpt>
<trkpt lat="30.7260900" lon="34.7809700">
<ele>656.989990</ele>
<time>2024-03-23T13:52:00.676Z</time>
</trkpt>
<trkpt lat="30.7265600" lon="34.7808900">
<ele>654.400024</ele>
<time>2024-03-23T13:52:00.676Z</time>
</trkpt>
<trkpt lat="30.7268200" lon="34.7807400">
<ele>651.869995</ele>
<time>2024-03-23T13:52:00.676Z</time>
</trkpt>
<trkpt lat="30.7269500" lon="34.7807000">
<ele>651.619995</ele>
<time>2024-03-23T13:52:00.676Z</time>
</trkpt>
<trkpt lat="30.7272700" lon="34.7805000">
<ele>646.840027</ele>
<time>2024-03-23T13:52:00.676Z</time>
</trkpt>
<trkpt lat="30.7277900" lon="34.7803400">
<ele>652.730042</ele>
<time>2024-03-23T13:52:00.676Z</time>
</trkpt>
<trkpt lat="30.7280800" lon="34.7803200">
<ele>657.469971</ele>
<time>2024-03-23T13:52:00.676Z</time>
</trkpt>
<trkpt lat="30.7285600" lon="34.7803200">
<ele>668.039978</ele>
<time>2024-03-23T13:52:00.676Z</time>
</trkpt>
<trkpt lat="30.7289100" lon="34.7804400">
<ele>663.330017</ele>
<time>2024-03-23T13:52:00.676Z</time>
</trkpt>
<trkpt lat="30.7291300" lon="34.7803700">
<ele>661.310059</ele>
<time>2024-03-23T13:52:00.676Z</time>
</trkpt>
<trkpt lat="30.7293800" lon="34.7804400">
<ele>653.209961</ele>
<time>2024-03-23T13:52:00.676Z</time>
</trkpt>
<trkpt lat="30.7297800" lon="34.7803300">
<ele>644.300049</ele>
<time>2024-03-23T13:52:00.676Z</time>
</trkpt>
<trkpt lat="30.7301600" lon="34.7801200">
<ele>645.049988</ele>
<time>2024-03-23T13:52:00.676Z</time>
</trkpt>
<trkpt lat="30.7303700" lon="34.7800400">
<ele>647.659973</ele>
<time>2024-03-23T13:52:00.676Z</time>
</trkpt>
<trkpt lat="30.7306900" lon="34.7800300">
<ele>649.160034</ele>
<time>2024-03-23T13:52:00.676Z</time>
</trkpt>
<trkpt lat="30.7308500" lon="34.7800900">
<ele>649.609985</ele>
<time>2024-03-23T13:52:00.676Z</time>
</trkpt>
<trkpt lat="30.7309700" lon="34.7802300">
<ele>649.989990</ele>
<time>2024-03-23T13:52:00.676Z</time>
</trkpt>
<trkpt lat="30.7311000" lon="34.7805600">
<ele>647.770020</ele>
<time>2024-03-23T13:52:00.676Z</time>
</trkpt>
<trkpt lat="30.7310700" lon="34.7807700">
<ele>646.059998</ele>
<time>2024-03-23T13:52:00.676Z</time>
</trkpt>
<trkpt lat="30.7311000" lon="34.7810300">
<ele>645.950012</ele>
<time>2024-03-23T13:52:00.676Z</time>
</trkpt>
<trkpt lat="30.7311000" lon="34.7814900">
<ele>642.790039</ele>
<time>2024-03-23T13:52:00.676Z</time>
</trkpt>
<trkpt lat="30.7312500" lon="34.7818500">
<ele>646.470032</ele>
<time>2024-03-23T13:52:00.676Z</time>
</trkpt>
<trkpt lat="30.7315100" lon="34.7822900">
<ele>653.369995</ele>
<time>2024-03-23T13:52:00.676Z</time>
</trkpt>
<trkpt lat="30.7316000" lon="34.7823900">
<ele>653.960022</ele>
<time>2024-03-23T13:52:00.676Z</time>
</trkpt>
<trkpt lat="30.7318800" lon="34.7825800">
<ele>658.169983</ele>
<time>2024-03-23T13:52:00.676Z</time>
</trkpt>
<trkpt lat="30.7320000" lon="34.7827300">
<ele>662.750000</ele>
<time>2024-03-23T13:52:00.676Z</time>
</trkpt>
<trkpt lat="30.7320500" lon="34.7827600">
<ele>662.429993</ele>
<time>2024-03-23T13:52:00.676Z</time>
</trkpt>
<trkpt lat="30.7320500" lon="34.7827600">
<ele>662.429993</ele>
<time>2024-03-23T13:52:00.676Z</time>
</trkpt>
<trkpt lat="30.7324400" lon="34.7829500">
<ele>655.069946</ele>
<time>2024-03-23T13:52:00.676Z</time>
</trkpt>
<trkpt lat="30.7327100" lon="34.7831200">
<ele>653.760010</ele>
<time>2024-03-23T13:52:00.676Z</time>
</trkpt>
<trkpt lat="30.7329300" lon="34.7833200">
<ele>658.459961</ele>
<time>2024-03-23T13:52:00.676Z</time>
</trkpt>
<trkpt lat="30.7331900" lon="34.7835500">
<ele>658.520020</ele>
<time>2024-03-23T13:52:00.676Z</time>
</trkpt>
<trkpt lat="30.7333500" lon="34.7837700">
<ele>653.770020</ele>
<time>2024-03-23T13:52:00.676Z</time>
</trkpt>
<trkpt lat="30.7335800" lon="34.7838600">
<ele>646.490051</ele>
<time>2024-03-23T13:52:00.676Z</time>
</trkpt>
<trkpt lat="30.7339200" lon="34.7838800">
<ele>639.340027</ele>
<time>2024-03-23T13:52:00.676Z</time>
</trkpt>
<trkpt lat="30.7343600" lon="34.7842000">
<ele>623.820007</ele>
<time>2024-03-23T13:52:00.676Z</time>
</trkpt>
<trkpt lat="30.7347200" lon="34.7843200">
<ele>625.869995</ele>
<time>2024-03-23T13:52:00.676Z</time>
</trkpt>
<trkpt lat="30.7348600" lon="34.7844400">
<ele>627.509949</ele>
<time>2024-03-23T13:52:00.676Z</time>
</trkpt>
<trkpt lat="30.7353500" lon="34.7849900">
<ele>636.769958</ele>
<time>2024-03-23T13:52:00.676Z</time>
</trkpt>
<trkpt lat="30.7356900" lon="34.7852900">
<ele>642.950012</ele>
<time>2024-03-23T13:52:00.676Z</time>
</trkpt>
<trkpt lat="30.7359500" lon="34.7853600">
<ele>637.219971</ele>
<time>2024-03-23T13:52:00.676Z</time>
</trkpt>
<trkpt lat="30.7364600" lon="34.7854000">
<ele>625.560059</ele>
<time>2024-03-23T13:52:00.676Z</time>
</trkpt>
<trkpt lat="30.7366800" lon="34.7853400">
<ele>621.440002</ele>
<time>2024-03-23T13:52:00.676Z</time>
</trkpt>
<trkpt lat="30.7368900" lon="34.7853100">
<ele>617.419983</ele>
<time>2024-03-23T13:52:00.676Z</time>
</trkpt>
<trkpt lat="30.7369600" lon="34.7854000">
<ele>617.830017</ele>
<time>2024-03-23T13:52:00.676Z</time>
</trkpt>
<trkpt lat="30.7369000" lon="34.7856200">
<ele>623.090027</ele>
<time>2024-03-23T13:52:00.676Z</time>
</trkpt>
<trkpt lat="30.7369400" lon="34.7857000">
<ele>626.229980</ele>
<time>2024-03-23T13:52:00.676Z</time>
</trkpt>
<trkpt lat="30.7370300" lon="34.7857200">
<ele>628.520020</ele>
<time>2024-03-23T13:52:00.676Z</time>
</trkpt>
<trkpt lat="30.7371500" lon="34.7855500">
<ele>622.809998</ele>
<time>2024-03-23T13:52:00.676Z</time>
</trkpt>
<trkpt lat="30.7373800" lon="34.7854600">
<ele>620.900024</ele>
<time>2024-03-23T13:52:00.676Z</time>
</trkpt>
<trkpt lat="30.7376900" lon="34.7852300">
<ele>617.000000</ele>
<time>2024-03-23T13:52:00.676Z</time>
</trkpt>
<trkpt lat="30.7379800" lon="34.7851600">
<ele>621.950012</ele>
<time>2024-03-23T13:52:00.676Z</time>
</trkpt>
<trkpt lat="30.7382700" lon="34.7853100">
<ele>622.239990</ele>
<time>2024-03-23T13:52:00.676Z</time>
</trkpt>
<trkpt lat="30.7384700" lon="34.7855200">
<ele>618.239990</ele>
<time>2024-03-23T13:52:00.676Z</time>
</trkpt>
<trkpt lat="30.7387700" lon="34.7861000">
<ele>617.029968</ele>
<time>2024-03-23T13:52:00.676Z</time>
</trkpt>
<trkpt lat="30.7390000" lon="34.7866400">
<ele>616.460022</ele>
<time>2024-03-23T13:52:00.676Z</time>
</trkpt>
<trkpt lat="30.7390600" lon="34.7868600">
<ele>617.309998</ele>
<time>2024-03-23T13:52:00.676Z</time>
</trkpt>
<trkpt lat="30.7391500" lon="34.7869300">
<ele>617.890015</ele>
<time>2024-03-23T13:52:00.676Z</time>
</trkpt>
<trkpt lat="30.7392500" lon="34.7868900">
<ele>617.020020</ele>
<time>2024-03-23T13:52:00.676Z</time>
</trkpt>
<trkpt lat="30.7393900" lon="34.7867600">
<ele>615.989990</ele>
<time>2024-03-23T13:52:00.676Z</time>
</trkpt>
<trkpt lat="30.7396600" lon="34.7868700">
<ele>617.599976</ele>
<time>2024-03-23T13:52:00.676Z</time>
</trkpt>
<trkpt lat="30.7397300" lon="34.7869700">
<ele>618.070007</ele>
<time>2024-03-23T13:52:00.676Z</time>
</trkpt>
<trkpt lat="30.7398900" lon="34.7875600">
<ele>617.559998</ele>
<time>2024-03-23T13:52:00.676Z</time>
</trkpt>
<trkpt lat="30.7400200" lon="34.7877800">
<ele>619.500000</ele>
<time>2024-03-23T13:52:00.676Z</time>
</trkpt>
<trkpt lat="30.7402500" lon="34.7882800">
<ele>619.960022</ele>
<time>2024-03-23T13:52:00.676Z</time>
</trkpt>
<trkpt lat="30.7402600" lon="34.7886000">
<ele>613.419983</ele>
<time>2024-03-23T13:52:00.676Z</time>
</trkpt>
<trkpt lat="30.7403300" lon="34.7888000">
<ele>607.059998</ele>
<time>2024-03-23T13:52:00.676Z</time>
</trkpt>
<trkpt lat="30.7403000" lon="34.7891600">
<ele>600.039978</ele>
<time>2024-03-23T13:52:00.676Z</time>
</trkpt>
<trkpt lat="30.7402000" lon="34.7894000">
<ele>602.280029</ele>
<time>2024-03-23T13:52:00.676Z</time>
</trkpt>
<trkpt lat="30.7401000" lon="34.7895800">
<ele>603.459961</ele>
<time>2024-03-23T13:52:00.676Z</time>
</trkpt>
<trkpt lat="30.7399200" lon="34.7897400">
<ele>604.510010</ele>
<time>2024-03-23T13:52:00.676Z</time>
</trkpt>
<trkpt lat="30.7398800" lon="34.7898000">
<ele>605.599976</ele>
<time>2024-03-23T13:52:00.676Z</time>
</trkpt>
<trkpt lat="30.7399200" lon="34.7899600">
<ele>607.229980</ele>
<time>2024-03-23T13:52:00.676Z</time>
</trkpt>
<trkpt lat="30.7399700" lon="34.7900300">
<ele>607.330017</ele>
<time>2024-03-23T13:52:00.676Z</time>
</trkpt>
<trkpt lat="30.7400600" lon="34.7900800">
<ele>607.450012</ele>
<time>2024-03-23T13:52:00.676Z</time>
</trkpt>
<trkpt lat="30.7402400" lon="34.7900700">
<ele>606.429993</ele>
<time>2024-03-23T13:52:00.676Z</time>
</trkpt>
<trkpt lat="30.7405000" lon="34.7901300">
<ele>610.109985</ele>
<time>2024-03-23T13:52:00.676Z</time>
</trkpt>
<trkpt lat="30.7408500" lon="34.7901200">
<ele>611.270020</ele>
<time>2024-03-23T13:52:00.676Z</time>
</trkpt>
<trkpt lat="30.7415300" lon="34.7902700">
<ele>609.539978</ele>
<time>2024-03-23T13:52:00.676Z</time>
</trkpt>
<trkpt lat="30.7419800" lon="34.7903900">
<ele>609.669983</ele>
<time>2024-03-23T13:52:00.676Z</time>
</trkpt>
<trkpt lat="30.7421400" lon="34.7905100">
<ele>608.479980</ele>
<time>2024-03-23T13:52:00.676Z</time>
</trkpt>
<trkpt lat="30.7422300" lon="34.7906300">
<ele>607.710022</ele>
<time>2024-03-23T13:52:00.676Z</time>
</trkpt>
<trkpt lat="30.7422800" lon="34.7908100">
<ele>607.070007</ele>
<time>2024-03-23T13:52:00.676Z</time>
</trkpt>
<trkpt lat="30.7423500" lon="34.7910800">
<ele>606.179993</ele>
<time>2024-03-23T13:52:00.676Z</time>
</trkpt>
<trkpt lat="30.7423500" lon="34.7910800">
<ele>606.179993</ele>
<time>2024-03-23T13:52:00.676Z</time>
</trkpt>
<trkpt lat="30.7425400" lon="34.7918100">
<ele>606.700012</ele>
<time>2024-03-23T13:52:00.676Z</time>
</trkpt>
<trkpt lat="30.7426200" lon="34.7921500">
<ele>609.390015</ele>
<time>2024-03-23T13:52:00.676Z</time>
</trkpt>
<trkpt lat="30.7426300" lon="34.7925100">
<ele>615.119995</ele>
<time>2024-03-23T13:52:00.676Z</time>
</trkpt>
<trkpt lat="30.7427500" lon="34.7927400">
<ele>610.869995</ele>
<time>2024-03-23T13:52:00.676Z</time>
</trkpt>
<trkpt lat="30.7428400" lon="34.7928100">
<ele>609.859985</ele>
<time>2024-03-23T13:52:00.676Z</time>
</trkpt>
<trkpt lat="30.7429500" lon="34.7928300">
<ele>609.700012</ele>
<time>2024-03-23T13:52:00.676Z</time>
</trkpt>
<trkpt lat="30.7431700" lon="34.7928600">
<ele>608.830017</ele>
<time>2024-03-23T13:52:00.676Z</time>
</trkpt>
<trkpt lat="30.7432800" lon="34.7928000">
<ele>608.349976</ele>
<time>2024-03-23T13:52:00.676Z</time>
</trkpt>
<trkpt lat="30.7433400" lon="34.7926800">
<ele>607.989990</ele>
<time>2024-03-23T13:52:00.676Z</time>
</trkpt>
<trkpt lat="30.7433800" lon="34.7920700">
<ele>606.450012</ele>
<time>2024-03-23T13:52:00.676Z</time>
</trkpt>
<trkpt lat="30.7436100" lon="34.7914800">
<ele>602.649963</ele>
<time>2024-03-23T13:52:00.676Z</time>
</trkpt>
<trkpt lat="30.7438800" lon="34.7910600">
<ele>603.520020</ele>
<time>2024-03-23T13:52:00.676Z</time>
</trkpt>
<trkpt lat="30.7439400" lon="34.7908900">
<ele>603.549988</ele>
<time>2024-03-23T13:52:00.676Z</time>
</trkpt>
<trkpt lat="30.7439200" lon="34.7905500">
<ele>596.609985</ele>
<time>2024-03-23T13:52:00.676Z</time>
</trkpt>
<trkpt lat="30.7440000" lon="34.7903000">
<ele>594.539978</ele>
<time>2024-03-23T13:52:00.676Z</time>
</trkpt>
<trkpt lat="30.7441500" lon="34.7899700">
<ele>590.770020</ele>
<time>2024-03-23T13:52:00.676Z</time>
</trkpt>
<trkpt lat="30.7444700" lon="34.7894300">
<ele>592.169983</ele>
<time>2024-03-23T13:52:00.676Z</time>
</trkpt>
<trkpt lat="30.7446600" lon="34.7891500">
<ele>591.070007</ele>
<time>2024-03-23T13:52:00.676Z</time>
</trkpt>
<trkpt lat="30.7448300" lon="34.7889600">
<ele>588.970032</ele>
<time>2024-03-23T13:52:00.676Z</time>
</trkpt>
<trkpt lat="30.7450600" lon="34.7885600">
<ele>588.510010</ele>
<time>2024-03-23T13:52:00.676Z</time>
</trkpt>
<trkpt lat="30.7453400" lon="34.7882500">
<ele>597.270020</ele>
<time>2024-03-23T13:52:00.676Z</time>
</trkpt>
<trkpt lat="30.7457600" lon="34.7871100">
<ele>593.369995</ele>
<time>2024-03-23T13:52:00.676Z</time>
</trkpt>
<trkpt lat="30.7462700" lon="34.7865200">
<ele>588.299988</ele>
<time>2024-03-23T13:52:00.676Z</time>
</trkpt>
<trkpt lat="30.7467100" lon="34.7861000">
<ele>581.210022</ele>
<time>2024-03-23T13:52:00.676Z</time>
</trkpt>
<trkpt lat="30.7473600" lon="34.7859600">
<ele>589.030029</ele>
<time>2024-03-23T13:52:00.676Z</time>
</trkpt>
<trkpt lat="30.7475700" lon="34.7859600">
<ele>591.960022</ele>
<time>2024-03-23T13:52:00.676Z</time>
</trkpt>
<trkpt lat="30.7477700" lon="34.7860200">
<ele>593.010010</ele>
<time>2024-03-23T13:52:00.676Z</time>
</trkpt>
<trkpt lat="30.7479700" lon="34.7860200">
<ele>592.780029</ele>
<time>2024-03-23T13:52:00.676Z</time>
</trkpt>
<trkpt lat="30.7481000" lon="34.7860000">
<ele>592.599976</ele>
<time>2024-03-23T13:52:00.676Z</time>
</trkpt>
<trkpt lat="30.7481000" lon="34.7860000">
<ele>592.599976</ele>
<time>2024-03-23T13:52:00.676Z</time>
</trkpt>
<trkpt lat="30.7483000" lon="34.7859600">
<ele>592.459961</ele>
<time>2024-03-23T13:52:00.676Z</time>
</trkpt>
<trkpt lat="30.7485900" lon="34.7858100">
<ele>589.710022</ele>
<time>2024-03-23T13:52:00.676Z</time>
</trkpt>
<trkpt lat="30.7487400" lon="34.7857800">
<ele>587.839966</ele>
<time>2024-03-23T13:52:00.676Z</time>
</trkpt>
<trkpt lat="30.7494400" lon="34.7858600">
<ele>589.580017</ele>
<time>2024-03-23T13:52:00.676Z</time>
</trkpt>
<trkpt lat="30.7499700" lon="34.7862000">
<ele>583.190002</ele>
<time>2024-03-23T13:52:00.676Z</time>
</trkpt>
<trkpt lat="30.7502000" lon="34.7863100">
<ele>577.349976</ele>
<time>2024-03-23T13:52:00.676Z</time>
</trkpt>
<trkpt lat="30.7504100" lon="34.7864800">
<ele>575.380005</ele>
<time>2024-03-23T13:52:00.676Z</time>
</trkpt>
<trkpt lat="30.7506100" lon="34.7865300">
<ele>573.650024</ele>
<time>2024-03-23T13:52:00.676Z</time>
</trkpt>
<trkpt lat="30.7510700" lon="34.7866000">
<ele>573.830017</ele>
<time>2024-03-23T13:52:00.676Z</time>
</trkpt>
<trkpt lat="30.7521400" lon="34.7865900">
<ele>584.660034</ele>
<time>2024-03-23T13:52:00.676Z</time>
</trkpt>
<trkpt lat="30.7527900" lon="34.7866500">
<ele>591.119995</ele>
<time>2024-03-23T13:52:00.676Z</time>
</trkpt>
<trkpt lat="30.7528100" lon="34.7866500">
<ele>590.849976</ele>
<time>2024-03-23T13:52:00.676Z</time>
</trkpt>
<trkpt lat="30.7528100" lon="34.7866500">
<ele>590.849976</ele>
<time>2024-03-23T13:52:00.676Z</time>
</trkpt>
<trkpt lat="30.7530100" lon="34.7866200">
<ele>587.340027</ele>
<time>2024-03-23T13:52:00.676Z</time>
</trkpt>
<trkpt lat="30.7532300" lon="34.7866100">
<ele>584.830017</ele>
<time>2024-03-23T13:52:00.676Z</time>
</trkpt>
<trkpt lat="30.7538900" lon="34.7867400">
<ele>584.279968</ele>
<time>2024-03-23T13:52:00.676Z</time>
</trkpt>
<trkpt lat="30.7545100" lon="34.7868300">
<ele>587.619995</ele>
<time>2024-03-23T13:52:00.676Z</time>
</trkpt>
<trkpt lat="30.7548000" lon="34.7869300">
<ele>582.950012</ele>
<time>2024-03-23T13:52:00.676Z</time>
</trkpt>
<trkpt lat="30.7549900" lon="34.7869900">
<ele>583.179993</ele>
<time>2024-03-23T13:52:00.676Z</time>
</trkpt>
<trkpt lat="30.7552900" lon="34.7871900">
<ele>587.650024</ele>
<time>2024-03-23T13:52:00.676Z</time>
</trkpt>
<trkpt lat="30.7556500" lon="34.7873700">
<ele>589.140015</ele>
<time>2024-03-23T13:52:00.676Z</time>
</trkpt>
<trkpt lat="30.7559800" lon="34.7874600">
<ele>590.400024</ele>
<time>2024-03-23T13:52:00.676Z</time>
</trkpt>
<trkpt lat="30.7562400" lon="34.7874400">
<ele>592.140015</ele>
<time>2024-03-23T13:52:00.676Z</time>
</trkpt>
<trkpt lat="30.7564800" lon="34.7873500">
<ele>590.239990</ele>
<time>2024-03-23T13:52:00.676Z</time>
</trkpt>
<trkpt lat="30.7569300" lon="34.7873200">
<ele>589.510010</ele>
<time>2024-03-23T13:52:00.676Z</time>
</trkpt>
<trkpt lat="30.7572500" lon="34.7876300">
<ele>588.280029</ele>
<time>2024-03-23T13:52:00.676Z</time>
</trkpt>
<trkpt lat="30.7576900" lon="34.7879400">
<ele>586.109985</ele>
<time>2024-03-23T13:52:00.676Z</time>
</trkpt>
<trkpt lat="30.7583800" lon="34.7885800">
<ele>592.580017</ele>
<time>2024-03-23T13:52:00.676Z</time>
</trkpt>
<trkpt lat="30.7585800" lon="34.7886700">
<ele>588.559998</ele>
<time>2024-03-23T13:52:00.676Z</time>
</trkpt>
<trkpt lat="30.7586600" lon="34.7886500">
<ele>587.109985</ele>
<time>2024-03-23T13:52:00.676Z</time>
</trkpt>
<trkpt lat="30.7587500" lon="34.7885100">
<ele>586.590027</ele>
<time>2024-03-23T13:52:00.676Z</time>
</trkpt>
<trkpt lat="30.7587900" lon="34.7883700">
<ele>587.919983</ele>
<time>2024-03-23T13:52:00.676Z</time>
</trkpt>
<trkpt lat="30.7590100" lon="34.7881900">
<ele>586.640015</ele>
<time>2024-03-23T13:52:00.676Z</time>
</trkpt>
<trkpt lat="30.7595500" lon="34.7877200">
<ele>570.479980</ele>
<time>2024-03-23T13:52:00.676Z</time>
</trkpt>
<trkpt lat="30.7596200" lon="34.7875300">
<ele>565.419983</ele>
<time>2024-03-23T13:52:00.676Z</time>
</trkpt>
<trkpt lat="30.7599300" lon="34.7868400">
<ele>570.190002</ele>
<time>2024-03-23T13:52:00.676Z</time>
</trkpt>
<trkpt lat="30.7601700" lon="34.7864600">
<ele>569.779968</ele>
<time>2024-03-23T13:52:00.676Z</time>
</trkpt>
<trkpt lat="30.7601700" lon="34.7864600">
<ele>569.779968</ele>
<time>2024-03-23T13:52:00.676Z</time>
</trkpt>
<trkpt lat="30.7603500" lon="34.7861700">
<ele>566.799988</ele>
<time>2024-03-23T13:52:00.676Z</time>
</trkpt>
<trkpt lat="30.7612000" lon="34.7849200">
<ele>572.270020</ele>
<time>2024-03-23T13:52:00.676Z</time>
</trkpt>
<trkpt lat="30.7615400" lon="34.7842800">
<ele>572.049988</ele>
<time>2024-03-23T13:52:00.676Z</time>
</trkpt>
<trkpt lat="30.7618200" lon="34.7837500">
<ele>572.929993</ele>
<time>2024-03-23T13:52:00.676Z</time>
</trkpt>
<trkpt lat="30.7619000" lon="34.7836700">
<ele>573.700012</ele>
<time>2024-03-23T13:52:00.676Z</time>
</trkpt>
<trkpt lat="30.7619900" lon="34.7836600">
<ele>574.450012</ele>
<time>2024-03-23T13:52:00.676Z</time>
</trkpt>
<trkpt lat="30.7622300" lon="34.7842400">
<ele>574.909973</ele>
<time>2024-03-23T13:52:00.676Z</time>
</trkpt>
<trkpt lat="30.7625800" lon="34.7849000">
<ele>567.869995</ele>
<time>2024-03-23T13:52:00.676Z</time>
</trkpt>
<trkpt lat="30.7626900" lon="34.7853200">
<ele>568.200012</ele>
<time>2024-03-23T13:52:00.676Z</time>
</trkpt>
<trkpt lat="30.7629300" lon="34.7857900">
<ele>567.530029</ele>
<time>2024-03-23T13:52:00.676Z</time>
</trkpt>
<trkpt lat="30.7631900" lon="34.7861600">
<ele>568.130005</ele>
<time>2024-03-23T13:52:00.676Z</time>
</trkpt>
<trkpt lat="30.7634700" lon="34.7865800">
<ele>576.640015</ele>
<time>2024-03-23T13:52:00.676Z</time>
</trkpt>
<trkpt lat="30.7636000" lon="34.7866800">
<ele>579.719971</ele>
<time>2024-03-23T13:52:00.676Z</time>
</trkpt>
<trkpt lat="30.7636700" lon="34.7869500">
<ele>579.650024</ele>
<time>2024-03-23T13:52:00.676Z</time>
</trkpt>
<trkpt lat="30.7637600" lon="34.7872200">
<ele>581.070007</ele>
<time>2024-03-23T13:52:00.676Z</time>
</trkpt>
<trkpt lat="30.7639600" lon="34.7874700">
<ele>585.150024</ele>
<time>2024-03-23T13:52:00.676Z</time>
</trkpt>
<trkpt lat="30.7644000" lon="34.7877800">
<ele>595.200012</ele>
<time>2024-03-23T13:52:00.676Z</time>
</trkpt>
<trkpt lat="30.7646800" lon="34.7879100">
<ele>592.660034</ele>
<time>2024-03-23T13:52:00.676Z</time>
</trkpt>
<trkpt lat="30.7651400" lon="34.7879800">
<ele>583.140015</ele>
<time>2024-03-23T13:52:00.676Z</time>
</trkpt>
<trkpt lat="30.7655300" lon="34.7880100">
<ele>587.320007</ele>
<time>2024-03-23T13:52:00.676Z</time>
</trkpt>
<trkpt lat="30.7656800" lon="34.7879100">
<ele>589.410034</ele>
<time>2024-03-23T13:52:00.676Z</time>
</trkpt>
<trkpt lat="30.7663500" lon="34.7878000">
<ele>591.470032</ele>
<time>2024-03-23T13:52:00.676Z</time>
</trkpt>
<trkpt lat="30.7666700" lon="34.7876200">
<ele>587.700012</ele>
<time>2024-03-23T13:52:00.676Z</time>
</trkpt>
<trkpt lat="30.7670700" lon="34.7872700">
<ele>582.359985</ele>
<time>2024-03-23T13:52:00.676Z</time>
</trkpt>
<trkpt lat="30.7671100" lon="34.7872400">
<ele>581.760010</ele>
<time>2024-03-23T13:52:00.676Z</time>
</trkpt>
<trkpt lat="30.7673500" lon="34.7871900">
<ele>584.000000</ele>
<time>2024-03-23T13:52:00.676Z</time>
</trkpt>
<trkpt lat="30.7675000" lon="34.7870900">
<ele>585.190002</ele>
<time>2024-03-23T13:52:00.676Z</time>
</trkpt>
<trkpt lat="30.7676900" lon="34.7870300">
<ele>583.039978</ele>
<time>2024-03-23T13:52:00.676Z</time>
</trkpt>
<trkpt lat="30.7678100" lon="34.7868800">
<ele>579.570007</ele>
<time>2024-03-23T13:52:00.676Z</time>
</trkpt>
<trkpt lat="30.7679000" lon="34.7868600">
<ele>577.989990</ele>
<time>2024-03-23T13:52:00.676Z</time>
</trkpt>
<trkpt lat="30.7679700" lon="34.7869100">
<ele>577.299988</ele>
<time>2024-03-23T13:52:00.676Z</time>
</trkpt>
<trkpt lat="30.7681600" lon="34.7868400">
<ele>575.339966</ele>
<time>2024-03-23T13:52:00.676Z</time>
</trkpt>
<trkpt lat="30.7686800" lon="34.7868400">
<ele>574.809998</ele>
<time>2024-03-23T13:52:00.676Z</time>
</trkpt>
<trkpt lat="30.7691000" lon="34.7869700">
<ele>575.140015</ele>
<time>2024-03-23T13:52:00.676Z</time>
</trkpt>
<trkpt lat="30.7693400" lon="34.7871600">
<ele>574.669983</ele>
<time>2024-03-23T13:52:00.676Z</time>
</trkpt>
<trkpt lat="30.7695100" lon="34.7874000">
<ele>572.769958</ele>
<time>2024-03-23T13:52:00.676Z</time>
</trkpt>
<trkpt lat="30.7696500" lon="34.7877600">
<ele>574.450012</ele>
<time>2024-03-23T13:52:00.676Z</time>
</trkpt>
<trkpt lat="30.7697700" lon="34.7883400">
<ele>576.169983</ele>
<time>2024-03-23T13:52:00.676Z</time>
</trkpt>
<trkpt lat="30.7697400" lon="34.7885500">
<ele>576.059998</ele>
<time>2024-03-23T13:52:00.676Z</time>
</trkpt>
<trkpt lat="30.7695800" lon="34.7889800">
<ele>576.460022</ele>
<time>2024-03-23T13:52:00.676Z</time>
</trkpt>
<trkpt lat="30.7694700" lon="34.7893800">
<ele>578.970032</ele>
<time>2024-03-23T13:52:00.676Z</time>
</trkpt>
<trkpt lat="30.7693600" lon="34.7895900">
<ele>581.270020</ele>
<time>2024-03-23T13:52:00.676Z</time>
</trkpt>
<trkpt lat="30.7692500" lon="34.7900100">
<ele>588.070007</ele>
<time>2024-03-23T13:52:00.676Z</time>
</trkpt>
<trkpt lat="30.7691600" lon="34.7902100">
<ele>588.229980</ele>
<time>2024-03-23T13:52:00.676Z</time>
</trkpt>
<trkpt lat="30.7692200" lon="34.7903500">
<ele>587.149963</ele>
<time>2024-03-23T13:52:00.676Z</time>
</trkpt>
<trkpt lat="30.7693300" lon="34.7903800">
<ele>586.299988</ele>
<time>2024-03-23T13:52:00.676Z</time>
</trkpt>
<trkpt lat="30.7694300" lon="34.7906100">
<ele>584.669983</ele>
<time>2024-03-23T13:52:00.676Z</time>
</trkpt>
<trkpt lat="30.7694300" lon="34.7907500">
<ele>583.690002</ele>
<time>2024-03-23T13:52:00.676Z</time>
</trkpt>
<trkpt lat="30.7693400" lon="34.7908000">
<ele>583.950012</ele>
<time>2024-03-23T13:52:00.676Z</time>
</trkpt>
<trkpt lat="30.7690600" lon="34.7907500">
<ele>584.920044</ele>
<time>2024-03-23T13:52:00.676Z</time>
</trkpt>
<trkpt lat="30.7690100" lon="34.7907800">
<ele>584.630005</ele>
<time>2024-03-23T13:52:00.676Z</time>
</trkpt>
<trkpt lat="30.7690000" lon="34.7908600">
<ele>584.299988</ele>
<time>2024-03-23T13:52:00.676Z</time>
</trkpt>
<trkpt lat="30.7690700" lon="34.7910600">
<ele>583.840027</ele>
<time>2024-03-23T13:52:00.676Z</time>
</trkpt>
<trkpt lat="30.7691400" lon="34.7911700">
<ele>584.140015</ele>
<time>2024-03-23T13:52:00.676Z</time>
</trkpt>
<trkpt lat="30.7693300" lon="34.7912500">
<ele>585.090027</ele>
<time>2024-03-23T13:52:00.676Z</time>
</trkpt>
<trkpt lat="30.7694200" lon="34.7913000">
<ele>585.590027</ele>
<time>2024-03-23T13:52:00.676Z</time>
</trkpt>
<trkpt lat="30.7695400" lon="34.7914000">
<ele>587.090027</ele>
<time>2024-03-23T13:52:00.676Z</time>
</trkpt>
<trkpt lat="30.7698700" lon="34.7914400">
<ele>592.849976</ele>
<time>2024-03-23T13:52:00.676Z</time>
</trkpt>
<trkpt lat="30.7699700" lon="34.7914200">
<ele>594.880005</ele>
<time>2024-03-23T13:52:00.676Z</time>
</trkpt>
<trkpt lat="30.7701400" lon="34.7914400">
<ele>595.049988</ele>
<time>2024-03-23T13:52:00.676Z</time>
</trkpt>
<trkpt lat="30.7702900" lon="34.7913400">
<ele>593.580017</ele>
<time>2024-03-23T13:52:00.676Z</time>
</trkpt>
<trkpt lat="30.7703700" lon="34.7912700">
<ele>593.809998</ele>
<time>2024-03-23T13:52:00.676Z</time>
</trkpt>
<trkpt lat="30.7703700" lon="34.7912700">
<ele>593.809998</ele>
<time>2024-03-23T13:52:00.676Z</time>
</trkpt>
<trkpt lat="30.7705500" lon="34.7910800">
<ele>596.010010</ele>
<time>2024-03-23T13:52:00.676Z</time>
</trkpt>
<trkpt lat="30.7706300" lon="34.7908900">
<ele>599.739990</ele>
<time>2024-03-23T13:52:00.676Z</time>
</trkpt>
<trkpt lat="30.7707400" lon="34.7907900">
<ele>604.049988</ele>
<time>2024-03-23T13:52:00.676Z</time>
</trkpt>
<trkpt lat="30.7708700" lon="34.7905600">
<ele>605.720032</ele>
<time>2024-03-23T13:52:00.676Z</time>
</trkpt>
<trkpt lat="30.7711900" lon="34.7902500">
<ele>601.659973</ele>
<time>2024-03-23T13:52:00.676Z</time>
</trkpt>
<trkpt lat="30.7714800" lon="34.7900800">
<ele>600.479980</ele>
<time>2024-03-23T13:52:00.676Z</time>
</trkpt>
<trkpt lat="30.7718900" lon="34.7898000">
<ele>601.109985</ele>
<time>2024-03-23T13:52:00.676Z</time>
</trkpt>
<trkpt lat="30.7719900" lon="34.7898000">
<ele>603.809998</ele>
<time>2024-03-23T13:52:00.676Z</time>
</trkpt>
<trkpt lat="30.7720500" lon="34.7897200">
<ele>603.250000</ele>
<time>2024-03-23T13:52:00.676Z</time>
</trkpt>
<trkpt lat="30.7721700" lon="34.7896900">
<ele>605.570007</ele>
<time>2024-03-23T13:52:00.676Z</time>
</trkpt>
<trkpt lat="30.7723800" lon="34.7895800">
<ele>608.000000</ele>
<time>2024-03-23T13:52:00.676Z</time>
</trkpt>
<trkpt lat="30.7726500" lon="34.7895000">
<ele>612.559998</ele>
<time>2024-03-23T13:52:00.676Z</time>
</trkpt>
<trkpt lat="30.7728300" lon="34.7894900">
<ele>614.380005</ele>
<time>2024-03-23T13:52:00.676Z</time>
</trkpt>
<trkpt lat="30.7730200" lon="34.7895400">
<ele>613.700012</ele>
<time>2024-03-23T13:52:00.676Z</time>
</trkpt>
<trkpt lat="30.7732200" lon="34.7895200">
<ele>611.789978</ele>
<time>2024-03-23T13:52:00.676Z</time>
</trkpt>
<trkpt lat="30.7733000" lon="34.7894600">
<ele>611.250000</ele>
<time>2024-03-23T13:52:00.676Z</time>
</trkpt>
<trkpt lat="30.7734300" lon="34.7893100">
<ele>613.869995</ele>
<time>2024-03-23T13:52:00.676Z</time>
</trkpt>
<trkpt lat="30.7737500" lon="34.7891400">
<ele>615.049988</ele>
<time>2024-03-23T13:52:00.676Z</time>
</trkpt>
<trkpt lat="30.7740800" lon="34.7889600">
<ele>609.179993</ele>
<time>2024-03-23T13:52:00.676Z</time>
</trkpt>
<trkpt lat="30.7744900" lon="34.7886800">
<ele>603.059998</ele>
<time>2024-03-23T13:52:00.676Z</time>
</trkpt>
<trkpt lat="30.7748100" lon="34.7885700">
<ele>603.489990</ele>
<time>2024-03-23T13:52:00.676Z</time>
</trkpt>
<trkpt lat="30.7752000" lon="34.7885200">
<ele>605.559998</ele>
<time>2024-03-23T13:52:00.676Z</time>
</trkpt>
<trkpt lat="30.7754200" lon="34.7885500">
<ele>603.390015</ele>
<time>2024-03-23T13:52:00.676Z</time>
</trkpt>
<trkpt lat="30.7756400" lon="34.7886000">
<ele>599.150024</ele>
<time>2024-03-23T13:52:00.676Z</time>
</trkpt>
<trkpt lat="30.7761600" lon="34.7885800">
<ele>589.000000</ele>
<time>2024-03-23T13:52:00.676Z</time>
</trkpt>
<trkpt lat="30.7763700" lon="34.7885100">
<ele>586.030029</ele>
<time>2024-03-23T13:52:00.676Z</time>
</trkpt>
<trkpt lat="30.7767300" lon="34.7884700">
<ele>583.520020</ele>
<time>2024-03-23T13:52:00.676Z</time>
</trkpt>
<trkpt lat="30.7769000" lon="34.7884200">
<ele>584.059998</ele>
<time>2024-03-23T13:52:00.676Z</time>
</trkpt>
<trkpt lat="30.7775300" lon="34.7880100">
<ele>583.020020</ele>
<time>2024-03-23T13:52:00.676Z</time>
</trkpt>
<trkpt lat="30.7780600" lon="34.7877800">
<ele>578.719971</ele>
<time>2024-03-23T13:52:00.676Z</time>
</trkpt>
<trkpt lat="30.7788000" lon="34.7872900">
<ele>578.339966</ele>
<time>2024-03-23T13:52:00.676Z</time>
</trkpt>
<trkpt lat="30.7791800" lon="34.7871300">
<ele>578.339966</ele>
<time>2024-03-23T13:52:00.676Z</time>
</trkpt>
<trkpt lat="30.7793400" lon="34.7869800">
<ele>576.929993</ele>
<time>2024-03-23T13:52:00.676Z</time>
</trkpt>
<trkpt lat="30.7797100" lon="34.7867400">
<ele>575.830017</ele>
<time>2024-03-23T13:52:00.676Z</time>
</trkpt>
<trkpt lat="30.7797900" lon="34.7866200">
<ele>576.159973</ele>
<time>2024-03-23T13:52:00.676Z</time>
</trkpt>
<trkpt lat="30.7797900" lon="34.7866200">
<ele>576.159973</ele>
<time>2024-03-23T13:52:00.676Z</time>
</trkpt>
<trkpt lat="30.7800100" lon="34.7862900">
<ele>574.450012</ele>
<time>2024-03-23T13:52:00.676Z</time>
</trkpt>
<trkpt lat="30.7802000" lon="34.7858600">
<ele>570.279968</ele>
<time>2024-03-23T13:52:00.676Z</time>
</trkpt>
<trkpt lat="30.7802900" lon="34.7854200">
<ele>565.619995</ele>
<time>2024-03-23T13:52:00.676Z</time>
</trkpt>
<trkpt lat="30.7805600" lon="34.7849600">
<ele>564.849976</ele>
<time>2024-03-23T13:52:00.676Z</time>
</trkpt>
<trkpt lat="30.7806700" lon="34.7849300">
<ele>561.190002</ele>
<time>2024-03-23T13:52:00.676Z</time>
</trkpt>
<trkpt lat="30.7807700" lon="34.7849500">
<ele>557.700012</ele>
<time>2024-03-23T13:52:00.676Z</time>
</trkpt>
<trkpt lat="30.7808300" lon="34.7849500">
<ele>555.649963</ele>
<time>2024-03-23T13:52:00.676Z</time>
</trkpt>
<trkpt lat="30.7811400" lon="34.7849500">
<ele>552.840027</ele>
<time>2024-03-23T13:52:00.676Z</time>
</trkpt>
<trkpt lat="30.7813200" lon="34.7849200">
<ele>555.899963</ele>
<time>2024-03-23T13:52:00.676Z</time>
</trkpt>
<trkpt lat="30.7814200" lon="34.7847800">
<ele>557.679993</ele>
<time>2024-03-23T13:52:00.676Z</time>
</trkpt>
<trkpt lat="30.7819600" lon="34.7840400">
<ele>558.209961</ele>
<time>2024-03-23T13:52:00.676Z</time>
</trkpt>
<trkpt lat="30.7822600" lon="34.7838400">
<ele>557.730042</ele>
<time>2024-03-23T13:52:00.676Z</time>
</trkpt>
<trkpt lat="30.7828100" lon="34.7835400">
<ele>562.179993</ele>
<time>2024-03-23T13:52:00.676Z</time>
</trkpt>
<trkpt lat="30.7831400" lon="34.7835200">
<ele>563.170044</ele>
<time>2024-03-23T13:52:00.676Z</time>
</trkpt>
<trkpt lat="30.7834900" lon="34.7835300">
<ele>556.390015</ele>
<time>2024-03-23T13:52:00.676Z</time>
</trkpt>
<trkpt lat="30.7837200" lon="34.7834400">
<ele>546.919983</ele>
<time>2024-03-23T13:52:00.676Z</time>
</trkpt>
<trkpt lat="30.7839300" lon="34.7833000">
<ele>542.570007</ele>
<time>2024-03-23T13:52:00.676Z</time>
</trkpt>
<trkpt lat="30.7845700" lon="34.7829000">
<ele>551.149963</ele>
<time>2024-03-23T13:52:00.676Z</time>
</trkpt>
<trkpt lat="30.7847800" lon="34.7827300">
<ele>554.250000</ele>
<time>2024-03-23T13:52:00.676Z</time>
</trkpt>
<trkpt lat="30.7848100" lon="34.7825700">
<ele>552.980042</ele>
<time>2024-03-23T13:52:00.676Z</time>
</trkpt>
<trkpt lat="30.7850600" lon="34.7818800">
<ele>554.250000</ele>
<time>2024-03-23T13:52:00.676Z</time>
</trkpt>
<trkpt lat="30.7850700" lon="34.7816600">
<ele>552.170044</ele>
<time>2024-03-23T13:52:00.676Z</time>
</trkpt>
<trkpt lat="30.7851900" lon="34.7812700">
<ele>548.119995</ele>
<time>2024-03-23T13:52:00.676Z</time>
</trkpt>
<trkpt lat="30.7854300" lon="34.7810800">
<ele>549.950012</ele>
<time>2024-03-23T13:52:00.676Z</time>
</trkpt>
<trkpt lat="30.7854900" lon="34.7810700">
<ele>551.500000</ele>
<time>2024-03-23T13:52:00.676Z</time>
</trkpt>
<trkpt lat="30.7857600" lon="34.7803400">
<ele>558.270020</ele>
<time>2024-03-23T13:52:00.676Z</time>
</trkpt>
<trkpt lat="30.7861700" lon="34.7799100">
<ele>561.799988</ele>
<time>2024-03-23T13:52:00.676Z</time>
</trkpt>
<trkpt lat="30.7861800" lon="34.7798900">
<ele>561.660034</ele>
<time>2024-03-23T13:52:00.676Z</time>
</trkpt>
<trkpt lat="30.7861800" lon="34.7798900">
<ele>561.660034</ele>
<time>2024-03-23T13:52:00.676Z</time>
</trkpt>
<trkpt lat="30.7866000" lon="34.7792900">
<ele>559.830017</ele>
<time>2024-03-23T13:52:00.676Z</time>
</trkpt>
<trkpt lat="30.7870700" lon="34.7788200">
<ele>554.820007</ele>
<time>2024-03-23T13:52:00.676Z</time>
</trkpt>
<trkpt lat="30.7873800" lon="34.7785800">
<ele>551.940002</ele>
<time>2024-03-23T13:52:00.676Z</time>
</trkpt>
<trkpt lat="30.7877200" lon="34.7784100">
<ele>550.700012</ele>
<time>2024-03-23T13:52:00.676Z</time>
</trkpt>
<trkpt lat="30.7881500" lon="34.7780400">
<ele>548.849976</ele>
<time>2024-03-23T13:52:00.676Z</time>
</trkpt>
<trkpt lat="30.7884100" lon="34.7776800">
<ele>546.750000</ele>
<time>2024-03-23T13:52:00.676Z</time>
</trkpt>
<trkpt lat="30.7886300" lon="34.7766600">
<ele>545.179993</ele>
<time>2024-03-23T13:52:00.676Z</time>
</trkpt>
<trkpt lat="30.7887500" lon="34.7765100">
<ele>546.220032</ele>
<time>2024-03-23T13:52:00.676Z</time>
</trkpt>
<trkpt lat="30.7888800" lon="34.7763500">
<ele>547.739990</ele>
<time>2024-03-23T13:52:00.676Z</time>
</trkpt>
<trkpt lat="30.7890200" lon="34.7761800">
<ele>551.019958</ele>
<time>2024-03-23T13:52:00.676Z</time>
</trkpt>
<trkpt lat="30.7891800" lon="34.7759700">
<ele>556.559998</ele>
<time>2024-03-23T13:52:00.676Z</time>
</trkpt>
<trkpt lat="30.7892300" lon="34.7758700">
<ele>559.140015</ele>
<time>2024-03-23T13:52:00.676Z</time>
</trkpt>
<trkpt lat="30.7892700" lon="34.7755600">
<ele>555.929993</ele>
<time>2024-03-23T13:52:00.676Z</time>
</trkpt>
<trkpt lat="30.7892600" lon="34.7752900">
<ele>552.170044</ele>
<time>2024-03-23T13:52:00.676Z</time>
</trkpt>
<trkpt lat="30.7894000" lon="34.7746400">
<ele>552.309998</ele>
<time>2024-03-23T13:52:00.676Z</time>
</trkpt>
<trkpt lat="30.7893600" lon="34.7739200">
<ele>545.539978</ele>
<time>2024-03-23T13:52:00.676Z</time>
</trkpt>
<trkpt lat="30.7894300" lon="34.7738000">
<ele>544.899963</ele>
<time>2024-03-23T13:52:00.676Z</time>
</trkpt>
<trkpt lat="30.7894400" lon="34.7730200">
<ele>537.619995</ele>
<time>2024-03-23T13:52:00.676Z</time>
</trkpt>
<trkpt lat="30.7894900" lon="34.7726000">
<ele>532.350037</ele>
<time>2024-03-23T13:52:00.676Z</time>
</trkpt>
<trkpt lat="30.7896500" lon="34.7722100">
<ele>532.289978</ele>
<time>2024-03-23T13:52:00.676Z</time>
</trkpt>
<trkpt lat="30.7901700" lon="34.7711000">
<ele>529.529968</ele>
<time>2024-03-23T13:52:00.676Z</time>
</trkpt>
<trkpt lat="30.7908000" lon="34.7702600">
<ele>527.830017</ele>
<time>2024-03-23T13:52:00.676Z</time>
</trkpt>
<trkpt lat="30.7909500" lon="34.7699300">
<ele>529.289978</ele>
<time>2024-03-23T13:52:00.676Z</time>
</trkpt>
<trkpt lat="30.7913700" lon="34.7695100">
<ele>528.880005</ele>
<time>2024-03-23T13:52:00.676Z</time>
</trkpt>
<trkpt lat="30.7915500" lon="34.7693500">
<ele>529.480042</ele>
<time>2024-03-23T13:52:00.676Z</time>
</trkpt>
<trkpt lat="30.7916400" lon="34.7690200">
<ele>528.809998</ele>
<time>2024-03-23T13:52:00.676Z</time>
</trkpt>
<trkpt lat="30.7919600" lon="34.7688700">
<ele>526.869995</ele>
<time>2024-03-23T13:52:00.676Z</time>
</trkpt>
<trkpt lat="30.7918300" lon="34.7684900">
<ele>523.440002</ele>
<time>2024-03-23T13:52:00.676Z</time>
</trkpt>
<trkpt lat="30.7920700" lon="34.7683700">
<ele>520.220032</ele>
<time>2024-03-23T13:52:00.676Z</time>
</trkpt>
<trkpt lat="30.7923100" lon="34.7683100">
<ele>516.970032</ele>
<time>2024-03-23T13:52:00.676Z</time>
</trkpt>
<trkpt lat="30.7925000" lon="34.7682900">
<ele>515.059998</ele>
<time>2024-03-23T13:52:00.676Z</time>
</trkpt>
<trkpt lat="30.7928100" lon="34.7681800">
<ele>516.970032</ele>
<time>2024-03-23T13:52:00.676Z</time>
</trkpt>
<trkpt lat="30.7929200" lon="34.7681800">
<ele>518.989990</ele>
<time>2024-03-23T13:52:00.676Z</time>
</trkpt>
<trkpt lat="30.7932500" lon="34.7680900">
<ele>518.070007</ele>
<time>2024-03-23T13:52:00.676Z</time>
</trkpt>
<trkpt lat="30.7932500" lon="34.7680900">
<ele>518.070007</ele>
<time>2024-03-23T13:52:00.676Z</time>
</trkpt>
<trkpt lat="30.7933000" lon="34.7680700">
<ele>517.429993</ele>
<time>2024-03-23T13:52:00.676Z</time>
</trkpt>
<trkpt lat="30.7940000" lon="34.7678400">
<ele>509.700012</ele>
<time>2024-03-23T13:52:00.676Z</time>
</trkpt>
<trkpt lat="30.7943300" lon="34.7677500">
<ele>509.679993</ele>
<time>2024-03-23T13:52:00.676Z</time>
</trkpt>
<trkpt lat="30.7947700" lon="34.7675600">
<ele>504.799988</ele>
<time>2024-03-23T13:52:00.676Z</time>
</trkpt>
<trkpt lat="30.7948500" lon="34.7675200">
<ele>504.659973</ele>
<time>2024-03-23T13:52:00.676Z</time>
</trkpt>
<trkpt lat="30.7951800" lon="34.7675400">
<ele>511.039978</ele>
<time>2024-03-23T13:52:00.676Z</time>
</trkpt>
<trkpt lat="30.7957700" lon="34.7674200">
<ele>514.820007</ele>
<time>2024-03-23T13:52:00.676Z</time>
</trkpt>
<trkpt lat="30.7957700" lon="34.7674200">
<ele>514.820007</ele>
<time>2024-03-23T13:52:00.676Z</time>
</trkpt>
<trkpt lat="30.7960900" lon="34.7672300">
<ele>509.400024</ele>
<time>2024-03-23T13:52:00.676Z</time>
</trkpt>
<trkpt lat="30.7962400" lon="34.7672500">
<ele>511.760010</ele>
<time>2024-03-23T13:52:00.676Z</time>
</trkpt>
<trkpt lat="30.7964000" lon="34.7673800">
<ele>518.159973</ele>
<time>2024-03-23T13:52:00.676Z</time>
</trkpt>
<trkpt lat="30.7967900" lon="34.7675100">
<ele>520.520020</ele>
<time>2024-03-23T13:52:00.676Z</time>
</trkpt>
<trkpt lat="30.7972800" lon="34.7676100">
<ele>521.269958</ele>
<time>2024-03-23T13:52:00.676Z</time>
</trkpt>
<trkpt lat="30.7975400" lon="34.7677200">
<ele>521.470032</ele>
<time>2024-03-23T13:52:00.676Z</time>
</trkpt>
<trkpt lat="30.7980600" lon="34.7676400">
<ele>522.079956</ele>
<time>2024-03-23T13:52:00.676Z</time>
</trkpt>
<trkpt lat="30.7984700" lon="34.7673900">
<ele>524.989990</ele>
<time>2024-03-23T13:52:00.676Z</time>
</trkpt>
<trkpt lat="30.7987600" lon="34.7671500">
<ele>524.309998</ele>
<time>2024-03-23T13:52:00.676Z</time>
</trkpt>
<trkpt lat="30.7990700" lon="34.7669300">
<ele>519.979980</ele>
<time>2024-03-23T13:52:00.676Z</time>
</trkpt>
<trkpt lat="30.7993700" lon="34.7668700">
<ele>520.340027</ele>
<time>2024-03-23T13:52:00.676Z</time>
</trkpt>
<trkpt lat="30.7996500" lon="34.7669200">
<ele>523.890015</ele>
<time>2024-03-23T13:52:00.676Z</time>
</trkpt>
<trkpt lat="30.8000600" lon="34.7671800">
<ele>524.970032</ele>
<time>2024-03-23T13:52:00.676Z</time>
</trkpt>
<trkpt lat="30.8004800" lon="34.7674000">
<ele>521.440002</ele>
<time>2024-03-23T13:52:00.676Z</time>
</trkpt>
<trkpt lat="30.8008900" lon="34.7677300">
<ele>524.000000</ele>
<time>2024-03-23T13:52:00.676Z</time>
</trkpt>
<trkpt lat="30.8012200" lon="34.7678800">
<ele>525.289978</ele>
<time>2024-03-23T13:52:00.676Z</time>
</trkpt>
<trkpt lat="30.8014100" lon="34.7679200">
<ele>526.059998</ele>
<time>2024-03-23T13:52:00.676Z</time>
</trkpt>
<trkpt lat="30.8017000" lon="34.7679800">
<ele>526.369995</ele>
<time>2024-03-23T13:52:00.676Z</time>
</trkpt>
<trkpt lat="30.8020700" lon="34.7680500">
<ele>521.730042</ele>
<time>2024-03-23T13:52:00.676Z</time>
</trkpt>
<trkpt lat="30.8020700" lon="34.7680500">
<ele>521.730042</ele>
<time>2024-03-23T13:52:00.676Z</time>
</trkpt>
<trkpt lat="30.8021800" lon="34.7680700">
<ele>520.000000</ele>
<time>2024-03-23T13:52:00.676Z</time>
</trkpt>
<trkpt lat="30.8025900" lon="34.7683000">
<ele>515.109985</ele>
<time>2024-03-23T13:52:00.676Z</time>
</trkpt>
<trkpt lat="30.8031300" lon="34.7685000">
<ele>514.599976</ele>
<time>2024-03-23T13:52:00.676Z</time>
</trkpt>
<trkpt lat="30.8035700" lon="34.7686700">
<ele>519.580017</ele>
<time>2024-03-23T13:52:00.676Z</time>
</trkpt>
<trkpt lat="30.8038700" lon="34.7688300">
<ele>519.809998</ele>
<time>2024-03-23T13:52:00.676Z</time>
</trkpt>
<trkpt lat="30.8042300" lon="34.7689900">
<ele>517.400024</ele>
<time>2024-03-23T13:52:00.676Z</time>
</trkpt>
<trkpt lat="30.8043900" lon="34.7691300">
<ele>519.239990</ele>
<time>2024-03-23T13:52:00.676Z</time>
</trkpt>
<trkpt lat="30.8047000" lon="34.7690500">
<ele>523.440002</ele>
<time>2024-03-23T13:52:00.676Z</time>
</trkpt>
<trkpt lat="30.8049300" lon="34.7690000">
<ele>519.010010</ele>
<time>2024-03-23T13:52:00.676Z</time>
</trkpt>
<trkpt lat="30.8052600" lon="34.7690500">
<ele>512.010010</ele>
<time>2024-03-23T13:52:00.676Z</time>
</trkpt>
<trkpt lat="30.8054500" lon="34.7689800">
<ele>509.879974</ele>
<time>2024-03-23T13:52:00.676Z</time>
</trkpt>
<trkpt lat="30.8058300" lon="34.7688500">
<ele>508.149994</ele>
<time>2024-03-23T13:52:00.676Z</time>
</trkpt>
<trkpt lat="30.8062700" lon="34.7688400">
<ele>511.509979</ele>
<time>2024-03-23T13:52:00.676Z</time>
</trkpt>
<trkpt lat="30.8064600" lon="34.7685300">
<ele>515.719971</ele>
<time>2024-03-23T13:52:00.676Z</time>
</trkpt>
<trkpt lat="30.8065100" lon="34.7680200">
<ele>519.700012</ele>
<time>2024-03-23T13:52:00.676Z</time>
</trkpt>
<trkpt lat="30.8066400" lon="34.7672000">
<ele>516.179993</ele>
<time>2024-03-23T13:52:00.676Z</time>
</trkpt>
<trkpt lat="30.8068500" lon="34.7666300">
<ele>508.559998</ele>
<time>2024-03-23T13:52:00.676Z</time>
</trkpt>
<trkpt lat="30.8070300" lon="34.7659600">
<ele>503.700012</ele>
<time>2024-03-23T13:52:00.676Z</time>
</trkpt>
<trkpt lat="30.8072200" lon="34.7656100">
<ele>510.540009</ele>
<time>2024-03-23T13:52:00.676Z</time>
</trkpt>
<trkpt lat="30.8074600" lon="34.7654300">
<ele>512.890015</ele>
<time>2024-03-23T13:52:00.676Z</time>
</trkpt>
<trkpt lat="30.8074600" lon="34.7654300">
<ele>512.890015</ele>
<time>2024-03-23T13:52:00.676Z</time>
</trkpt>
<trkpt lat="30.8075700" lon="34.7653500">
<ele>511.119995</ele>
<time>2024-03-23T13:52:00.676Z</time>
</trkpt>
<trkpt lat="30.8079200" lon="34.7649700">
<ele>504.160004</ele>
<time>2024-03-23T13:52:00.676Z</time>
</trkpt>
<trkpt lat="30.8082000" lon="34.7648200">
<ele>507.540009</ele>
<time>2024-03-23T13:52:00.676Z</time>
</trkpt>
<trkpt lat="30.8084900" lon="34.7649000">
<ele>510.200012</ele>
<time>2024-03-23T13:52:00.676Z</time>
</trkpt>
<trkpt lat="30.8088800" lon="34.7650600">
<ele>505.230011</ele>
<time>2024-03-23T13:52:00.676Z</time>
</trkpt>
<trkpt lat="30.8092800" lon="34.7651800">
<ele>506.220001</ele>
<time>2024-03-23T13:52:00.676Z</time>
</trkpt>
<trkpt lat="30.8092800" lon="34.7651800">
<ele>506.220001</ele>
<time>2024-03-23T13:52:00.676Z</time>
</trkpt>
<trkpt lat="30.8093400" lon="34.7652000">
<ele>506.369995</ele>
<time>2024-03-23T13:52:00.676Z</time>
</trkpt>
<trkpt lat="30.8096800" lon="34.7654000">
<ele>508.379974</ele>
<time>2024-03-23T13:52:00.676Z</time>
</trkpt>
<trkpt lat="30.8097900" lon="34.7655800">
<ele>509.870026</ele>
<time>2024-03-23T13:52:00.676Z</time>
</trkpt>
<trkpt lat="30.8101100" lon="34.7657700">
<ele>512.090027</ele>
<time>2024-03-23T13:52:00.676Z</time>
</trkpt>
<trkpt lat="30.8102500" lon="34.7658900">
<ele>512.440002</ele>
<time>2024-03-23T13:52:00.676Z</time>
</trkpt>
<trkpt lat="30.8105100" lon="34.7660800">
<ele>513.040039</ele>
<time>2024-03-23T13:52:00.676Z</time>
</trkpt>
<trkpt lat="30.8107300" lon="34.7661100">
<ele>517.390015</ele>
<time>2024-03-23T13:52:00.676Z</time>
</trkpt>
<trkpt lat="30.8109100" lon="34.7657200">
<ele>517.880005</ele>
<time>2024-03-23T13:52:00.676Z</time>
</trkpt>
<trkpt lat="30.8108800" lon="34.7652800">
<ele>521.460022</ele>
<time>2024-03-23T13:52:00.676Z</time>
</trkpt>
<trkpt lat="30.8108300" lon="34.7651000">
<ele>520.000000</ele>
<time>2024-03-23T13:52:00.676Z</time>
</trkpt>
<trkpt lat="30.8110500" lon="34.7649300">
<ele>514.869995</ele>
<time>2024-03-23T13:52:00.676Z</time>
</trkpt>
<trkpt lat="30.8111800" lon="34.7649700">
<ele>514.369995</ele>
<time>2024-03-23T13:52:00.676Z</time>
</trkpt>
<trkpt lat="30.8114100" lon="34.7649700">
<ele>513.429993</ele>
<time>2024-03-23T13:52:00.676Z</time>
</trkpt>
<trkpt lat="30.8115700" lon="34.7649000">
<ele>512.419983</ele>
<time>2024-03-23T13:52:00.676Z</time>
</trkpt>
<trkpt lat="30.8117200" lon="34.7647900">
<ele>516.489990</ele>
<time>2024-03-23T13:52:00.676Z</time>
</trkpt>
<trkpt lat="30.8119000" lon="34.7648900">
<ele>516.760010</ele>
<time>2024-03-23T13:52:00.676Z</time>
</trkpt>
<trkpt lat="30.8121100" lon="34.7650000">
<ele>516.809998</ele>
<time>2024-03-23T13:52:00.676Z</time>
</trkpt>
<trkpt lat="30.8123000" lon="34.7653100">
<ele>517.339966</ele>
<time>2024-03-23T13:52:00.676Z</time>
</trkpt>
<trkpt lat="30.8125000" lon="34.7656000">
<ele>512.480042</ele>
<time>2024-03-23T13:52:00.676Z</time>
</trkpt>
<trkpt lat="30.8126900" lon="34.7659400">
<ele>513.099976</ele>
<time>2024-03-23T13:52:00.676Z</time>
</trkpt>
<trkpt lat="30.8129200" lon="34.7661300">
<ele>508.739990</ele>
<time>2024-03-23T13:52:00.676Z</time>
</trkpt>
<trkpt lat="30.8135400" lon="34.7666600">
<ele>503.230011</ele>
<time>2024-03-23T13:52:00.676Z</time>
</trkpt>
<trkpt lat="30.8143800" lon="34.7673100">
<ele>506.220001</ele>
<time>2024-03-23T13:52:00.676Z</time>
</trkpt>
<trkpt lat="30.8147200" lon="34.7676200">
<ele>504.399994</ele>
<time>2024-03-23T13:52:00.676Z</time>
</trkpt>
<trkpt lat="30.8148800" lon="34.7676400">
<ele>501.650024</ele>
<time>2024-03-23T13:52:00.676Z</time>
</trkpt>
<trkpt lat="30.8152800" lon="34.7676700">
<ele>483.930023</ele>
<time>2024-03-23T13:52:00.676Z</time>
</trkpt>
<trkpt lat="30.8158500" lon="34.7676500">
<ele>475.869995</ele>
<time>2024-03-23T13:52:00.676Z</time>
</trkpt>
<trkpt lat="30.8159100" lon="34.7676200">
<ele>475.240021</ele>
<time>2024-03-23T13:52:00.676Z</time>
</trkpt>
<trkpt lat="30.8159100" lon="34.7676200">
<ele>475.240021</ele>
<time>2024-03-23T13:52:00.676Z</time>
</trkpt>
<trkpt lat="30.8160900" lon="34.7675300">
<ele>472.249969</ele>
<time>2024-03-23T13:52:00.676Z</time>
</trkpt>
<trkpt lat="30.8163700" lon="34.7674600">
<ele>468.990021</ele>
<time>2024-03-23T13:52:00.676Z</time>
</trkpt>
<trkpt lat="30.8166200" lon="34.7672900">
<ele>471.040009</ele>
<time>2024-03-23T13:52:00.676Z</time>
</trkpt>
<trkpt lat="30.8167800" lon="34.7670900">
<ele>471.239990</ele>
<time>2024-03-23T13:52:00.676Z</time>
</trkpt>
<trkpt lat="30.8168300" lon="34.7669300">
<ele>474.540009</ele>
<time>2024-03-23T13:52:00.676Z</time>
</trkpt>
<trkpt lat="30.8167700" lon="34.7666400">
<ele>486.609985</ele>
<time>2024-03-23T13:52:00.676Z</time>
</trkpt>
<trkpt lat="30.8169500" lon="34.7665800">
<ele>484.990021</ele>
<time>2024-03-23T13:52:00.676Z</time>
</trkpt>
<trkpt lat="30.8172500" lon="34.7665000">
<ele>483.660004</ele>
<time>2024-03-23T13:52:00.676Z</time>
</trkpt>
<trkpt lat="30.8175300" lon="34.7663900">
<ele>489.600006</ele>
<time>2024-03-23T13:52:00.676Z</time>
</trkpt>
<trkpt lat="30.8178500" lon="34.7663300">
<ele>487.730011</ele>
<time>2024-03-23T13:52:00.676Z</time>
</trkpt>
<trkpt lat="30.8178900" lon="34.7660800">
<ele>498.180023</ele>
<time>2024-03-23T13:52:00.676Z</time>
</trkpt>
<trkpt lat="30.8179800" lon="34.7658000">
<ele>500.719971</ele>
<time>2024-03-23T13:52:00.676Z</time>
</trkpt>
<trkpt lat="30.8180000" lon="34.7657000">
<ele>499.730011</ele>
<time>2024-03-23T13:52:00.676Z</time>
</trkpt>
<trkpt lat="30.8183000" lon="34.7657400">
<ele>490.459991</ele>
<time>2024-03-23T13:52:00.676Z</time>
</trkpt>
<trkpt lat="30.8185100" lon="34.7656700">
<ele>483.580017</ele>
<time>2024-03-23T13:52:00.676Z</time>
</trkpt>
<trkpt lat="30.8187300" lon="34.7655100">
<ele>481.309998</ele>
<time>2024-03-23T13:52:00.676Z</time>
</trkpt>
<trkpt lat="30.8189500" lon="34.7653200">
<ele>486.570007</ele>
<time>2024-03-23T13:52:00.676Z</time>
</trkpt>
<trkpt lat="30.8192200" lon="34.7653200">
<ele>485.170013</ele>
<time>2024-03-23T13:52:00.676Z</time>
</trkpt>
<trkpt lat="30.8193700" lon="34.7652100">
<ele>488.110016</ele>
<time>2024-03-23T13:52:00.676Z</time>
</trkpt>
<trkpt lat="30.8194600" lon="34.7649400">
<ele>494.039978</ele>
<time>2024-03-23T13:52:00.676Z</time>
</trkpt>
<trkpt lat="30.8192200" lon="34.7646700">
<ele>501.220001</ele>
<time>2024-03-23T13:52:00.676Z</time>
</trkpt>
<trkpt lat="30.8188600" lon="34.7644700">
<ele>507.080017</ele>
<time>2024-03-23T13:52:00.676Z</time>
</trkpt>
<trkpt lat="30.8187500" lon="34.7644100">
<ele>507.750000</ele>
<time>2024-03-23T13:52:00.676Z</time>
</trkpt>
<trkpt lat="30.8185900" lon="34.7642600">
<ele>509.480011</ele>
<time>2024-03-23T13:52:00.676Z</time>
</trkpt>
<trkpt lat="30.8183600" lon="34.7642700">
<ele>511.059998</ele>
<time>2024-03-23T13:52:00.676Z</time>
</trkpt>
<trkpt lat="30.8181900" lon="34.7642300">
<ele>511.030029</ele>
<time>2024-03-23T13:52:00.676Z</time>
</trkpt>
<trkpt lat="30.8182000" lon="34.7640400">
<ele>513.539978</ele>
<time>2024-03-23T13:52:00.676Z</time>
</trkpt>
<trkpt lat="30.8183100" lon="34.7639400">
<ele>514.570007</ele>
<time>2024-03-23T13:52:00.676Z</time>
</trkpt>
<trkpt lat="30.8183100" lon="34.7639400">
<ele>514.570007</ele>
<time>2024-03-23T13:52:00.676Z</time>
</trkpt>
<trkpt lat="30.8184300" lon="34.7638300">
<ele>512.910034</ele>
<time>2024-03-23T13:52:00.676Z</time>
</trkpt>
<trkpt lat="30.8186700" lon="34.7635900">
<ele>508.939972</ele>
<time>2024-03-23T13:52:00.676Z</time>
</trkpt>
<trkpt lat="30.8189400" lon="34.7633300">
<ele>509.060028</ele>
<time>2024-03-23T13:52:00.676Z</time>
</trkpt>
<trkpt lat="30.8191500" lon="34.7630300">
<ele>512.589966</ele>
<time>2024-03-23T13:52:00.676Z</time>
</trkpt>
<trkpt lat="30.8193800" lon="34.7628300">
<ele>513.280029</ele>
<time>2024-03-23T13:52:00.676Z</time>
</trkpt>
<trkpt lat="30.8195900" lon="34.7625000">
<ele>514.380005</ele>
<time>2024-03-23T13:52:00.676Z</time>
</trkpt>
<trkpt lat="30.8197500" lon="34.7621800">
<ele>511.089996</ele>
<time>2024-03-23T13:52:00.676Z</time>
</trkpt>
<trkpt lat="30.8200900" lon="34.7618900">
<ele>503.459991</ele>
<time>2024-03-23T13:52:00.676Z</time>
</trkpt>
<trkpt lat="30.8202800" lon="34.7616000">
<ele>499.040009</ele>
<time>2024-03-23T13:52:00.676Z</time>
</trkpt>
<trkpt lat="30.8202400" lon="34.7612700">
<ele>502.349976</ele>
<time>2024-03-23T13:52:00.676Z</time>
</trkpt>
<trkpt lat="30.8200100" lon="34.7609000">
<ele>512.709961</ele>
<time>2024-03-23T13:52:00.676Z</time>
</trkpt>
<trkpt lat="30.8198000" lon="34.7605400">
<ele>514.500000</ele>
<time>2024-03-23T13:52:00.676Z</time>
</trkpt>
<trkpt lat="30.8194200" lon="34.7602500">
<ele>511.020020</ele>
<time>2024-03-23T13:52:00.676Z</time>
</trkpt>
<trkpt lat="30.8191500" lon="34.7599600">
<ele>507.660004</ele>
<time>2024-03-23T13:52:00.676Z</time>
</trkpt>
<trkpt lat="30.8191100" lon="34.7596700">
<ele>513.260010</ele>
<time>2024-03-23T13:52:00.676Z</time>
</trkpt>
<trkpt lat="30.8192300" lon="34.7592500">
<ele>516.820007</ele>
<time>2024-03-23T13:52:00.676Z</time>
</trkpt>
<trkpt lat="30.8192500" lon="34.7588800">
<ele>518.859985</ele>
<time>2024-03-23T13:52:00.676Z</time>
</trkpt>
<trkpt lat="30.8191200" lon="34.7587200">
<ele>521.470032</ele>
<time>2024-03-23T13:52:00.676Z</time>
</trkpt>
<trkpt lat="30.8190200" lon="34.7584600">
<ele>521.450012</ele>
<time>2024-03-23T13:52:00.676Z</time>
</trkpt>
<trkpt lat="30.8189600" lon="34.7581600">
<ele>517.849976</ele>
<time>2024-03-23T13:52:00.676Z</time>
</trkpt>
<trkpt lat="30.8188400" lon="34.7579000">
<ele>518.659973</ele>
<time>2024-03-23T13:52:00.676Z</time>
</trkpt>
<trkpt lat="30.8188200" lon="34.7576700">
<ele>517.559998</ele>
<time>2024-03-23T13:52:00.676Z</time>
</trkpt>
<trkpt lat="30.8190800" lon="34.7570200">
<ele>521.460022</ele>
<time>2024-03-23T13:52:00.676Z</time>
</trkpt>
<trkpt lat="30.8191900" lon="34.7567200">
<ele>528.619995</ele>
<time>2024-03-23T13:52:00.676Z</time>
</trkpt>
<trkpt lat="30.8193400" lon="34.7565100">
<ele>534.409973</ele>
<time>2024-03-23T13:52:00.676Z</time>
</trkpt>
<trkpt lat="30.8194600" lon="34.7564400">
<ele>536.489990</ele>
<time>2024-03-23T13:52:00.676Z</time>
</trkpt>
<trkpt lat="30.8195700" lon="34.7563300">
<ele>534.450012</ele>
<time>2024-03-23T13:52:00.676Z</time>
</trkpt>
<trkpt lat="30.8198200" lon="34.7558200">
<ele>517.669983</ele>
<time>2024-03-23T13:52:00.676Z</time>
</trkpt>
<trkpt lat="30.8199700" lon="34.7555400">
<ele>511.410004</ele>
<time>2024-03-23T13:52:00.676Z</time>
</trkpt>
<trkpt lat="30.8199800" lon="34.7554400">
<ele>509.759979</ele>
<time>2024-03-23T13:52:00.676Z</time>
</trkpt>
<trkpt lat="30.8199600" lon="34.7553400">
<ele>507.909973</ele>
<time>2024-03-23T13:52:00.676Z</time>
</trkpt>
<trkpt lat="30.8198400" lon="34.7552200">
<ele>505.980011</ele>
<time>2024-03-23T13:52:00.676Z</time>
</trkpt>
<trkpt lat="30.8198400" lon="34.7551500">
<ele>505.429993</ele>
<time>2024-03-23T13:52:00.676Z</time>
</trkpt>
<trkpt lat="30.8199600" lon="34.7551400">
<ele>506.220001</ele>
<time>2024-03-23T13:52:00.676Z</time>
</trkpt>
<trkpt lat="30.8201000" lon="34.7550100">
<ele>507.149994</ele>
<time>2024-03-23T13:52:00.676Z</time>
</trkpt>
<trkpt lat="30.8203000" lon="34.7547800">
<ele>507.739990</ele>
<time>2024-03-23T13:52:00.676Z</time>
</trkpt>
<trkpt lat="30.8204300" lon="34.7547800">
<ele>509.610016</ele>
<time>2024-03-23T13:52:00.676Z</time>
</trkpt>
<trkpt lat="30.8206200" lon="34.7546400">
<ele>510.049988</ele>
<time>2024-03-23T13:52:00.676Z</time>
</trkpt>
<trkpt lat="30.8206700" lon="34.7545500">
<ele>508.930023</ele>
<time>2024-03-23T13:52:00.676Z</time>
</trkpt>
<trkpt lat="30.8207500" lon="34.7544800">
<ele>508.209991</ele>
<time>2024-03-23T13:52:00.676Z</time>
</trkpt>
<trkpt lat="30.8208300" lon="34.7544600">
<ele>508.209991</ele>
<time>2024-03-23T13:52:00.676Z</time>
</trkpt>
<trkpt lat="30.8208800" lon="34.7545100">
<ele>509.239990</ele>
<time>2024-03-23T13:52:00.676Z</time>
</trkpt>
<trkpt lat="30.8210500" lon="34.7548200">
<ele>513.909973</ele>
<time>2024-03-23T13:52:00.676Z</time>
</trkpt>
<trkpt lat="30.8212700" lon="34.7549900">
<ele>518.710022</ele>
<time>2024-03-23T13:52:00.676Z</time>
</trkpt>
<trkpt lat="30.8214700" lon="34.7549800">
<ele>522.369995</ele>
<time>2024-03-23T13:52:00.676Z</time>
</trkpt>
<trkpt lat="30.8214700" lon="34.7549800">
<ele>522.369995</ele>
<time>2024-03-23T13:52:00.676Z</time>
</trkpt>
<trkpt lat="30.8216500" lon="34.7549200">
<ele>524.929993</ele>
<time>2024-03-23T13:52:00.676Z</time>
</trkpt>
<trkpt lat="30.8218300" lon="34.7549500">
<ele>526.829956</ele>
<time>2024-03-23T13:52:00.676Z</time>
</trkpt>
<trkpt lat="30.8221400" lon="34.7550800">
<ele>523.690002</ele>
<time>2024-03-23T13:52:00.676Z</time>
</trkpt>
<trkpt lat="30.8224300" lon="34.7549600">
<ele>519.899963</ele>
<time>2024-03-23T13:52:00.676Z</time>
</trkpt>
<trkpt lat="30.8227800" lon="34.7547500">
<ele>519.080017</ele>
<time>2024-03-23T13:52:00.676Z</time>
</trkpt>
<trkpt lat="30.8228600" lon="34.7546100">
<ele>517.419983</ele>
<time>2024-03-23T13:52:00.676Z</time>
</trkpt>
<trkpt lat="30.8229800" lon="34.7544900">
<ele>515.750000</ele>
<time>2024-03-23T13:52:00.676Z</time>
</trkpt>
<trkpt lat="30.8231200" lon="34.7544800">
<ele>515.760010</ele>
<time>2024-03-23T13:52:00.676Z</time>
</trkpt>
<trkpt lat="30.8232700" lon="34.7543600">
<ele>516.239990</ele>
<time>2024-03-23T13:52:00.676Z</time>
</trkpt>
<trkpt lat="30.8234500" lon="34.7543000">
<ele>517.619995</ele>
<time>2024-03-23T13:52:00.676Z</time>
</trkpt>
<trkpt lat="30.8237000" lon="34.7542800">
<ele>519.690002</ele>
<time>2024-03-23T13:52:00.676Z</time>
</trkpt>
<trkpt lat="30.8238100" lon="34.7543200">
<ele>519.710022</ele>
<time>2024-03-23T13:52:00.676Z</time>
</trkpt>
<trkpt lat="30.8239400" lon="34.7542800">
<ele>519.929993</ele>
<time>2024-03-23T13:52:00.676Z</time>
</trkpt>
<trkpt lat="30.8240800" lon="34.7543400">
<ele>521.860046</ele>
<time>2024-03-23T13:52:00.676Z</time>
</trkpt>
<trkpt lat="30.8241600" lon="34.7544200">
<ele>523.640015</ele>
<time>2024-03-23T13:52:00.676Z</time>
</trkpt>
<trkpt lat="30.8241700" lon="34.7544900">
<ele>524.030029</ele>
<time>2024-03-23T13:52:00.676Z</time>
</trkpt>
<trkpt lat="30.8241000" lon="34.7547000">
<ele>523.039978</ele>
<time>2024-03-23T13:52:00.676Z</time>
</trkpt>
<trkpt lat="30.8240900" lon="34.7548100">
<ele>522.950012</ele>
<time>2024-03-23T13:52:00.676Z</time>
</trkpt>
<trkpt lat="30.8241400" lon="34.7548900">
<ele>524.049988</ele>
<time>2024-03-23T13:52:00.676Z</time>
</trkpt>
<trkpt lat="30.8243200" lon="34.7550500">
<ele>525.459961</ele>
<time>2024-03-23T13:52:00.676Z</time>
</trkpt>
<trkpt lat="30.8244800" lon="34.7550900">
<ele>525.339966</ele>
<time>2024-03-23T13:52:00.676Z</time>
</trkpt>
<trkpt lat="30.8246500" lon="34.7551600">
<ele>521.950012</ele>
<time>2024-03-23T13:52:00.676Z</time>
</trkpt>
<trkpt lat="30.8248500" lon="34.7551700">
<ele>521.289978</ele>
<time>2024-03-23T13:52:00.676Z</time>
</trkpt>
<trkpt lat="30.8250000" lon="34.7551000">
<ele>522.359985</ele>
<time>2024-03-23T13:52:00.676Z</time>
</trkpt>
<trkpt lat="30.8251100" lon="34.7549800">
<ele>523.270020</ele>
<time>2024-03-23T13:52:00.676Z</time>
</trkpt>
<trkpt lat="30.8253300" lon="34.7550000">
<ele>525.380005</ele>
<time>2024-03-23T13:52:00.676Z</time>
</trkpt>
<trkpt lat="30.8255900" lon="34.7551100">
<ele>525.169983</ele>
<time>2024-03-23T13:52:00.676Z</time>
</trkpt>
<trkpt lat="30.8258100" lon="34.7550600">
<ele>525.150024</ele>
<time>2024-03-23T13:52:00.676Z</time>
</trkpt>
<trkpt lat="30.8260900" lon="34.7550500">
<ele>529.169983</ele>
<time>2024-03-23T13:52:00.676Z</time>
</trkpt>
<trkpt lat="30.8263800" lon="34.7551100">
<ele>533.229980</ele>
<time>2024-03-23T13:52:00.676Z</time>
</trkpt>
<trkpt lat="30.8265500" lon="34.7551000">
<ele>531.940002</ele>
<time>2024-03-23T13:52:00.676Z</time>
</trkpt>
<trkpt lat="30.8267200" lon="34.7551300">
<ele>529.299988</ele>
<time>2024-03-23T13:52:00.676Z</time>
</trkpt>
<trkpt lat="30.8268300" lon="34.7551100">
<ele>528.690002</ele>
<time>2024-03-23T13:52:00.676Z</time>
</trkpt>
<trkpt lat="30.8268800" lon="34.7550500">
<ele>528.729980</ele>
<time>2024-03-23T13:52:00.676Z</time>
</trkpt>
<trkpt lat="30.8268900" lon="34.7544800">
<ele>526.760010</ele>
<time>2024-03-23T13:52:00.676Z</time>
</trkpt>
<trkpt lat="30.8268700" lon="34.7542900">
<ele>524.649963</ele>
<time>2024-03-23T13:52:00.676Z</time>
</trkpt>
<trkpt lat="30.8268200" lon="34.7540500">
<ele>524.219971</ele>
<time>2024-03-23T13:52:00.676Z</time>
</trkpt>
<trkpt lat="30.8267400" lon="34.7538600">
<ele>525.280029</ele>
<time>2024-03-23T13:52:00.676Z</time>
</trkpt>
<trkpt lat="30.8267100" lon="34.7535400">
<ele>526.890015</ele>
<time>2024-03-23T13:52:00.676Z</time>
</trkpt>
<trkpt lat="30.8266100" lon="34.7533500">
<ele>528.869995</ele>
<time>2024-03-23T13:52:00.676Z</time>
</trkpt>
<trkpt lat="30.8265300" lon="34.7530100">
<ele>534.459961</ele>
<time>2024-03-23T13:52:00.676Z</time>
</trkpt>
<trkpt lat="30.8265200" lon="34.7528300">
<ele>538.460022</ele>
<time>2024-03-23T13:52:00.676Z</time>
</trkpt>
<trkpt lat="30.8263900" lon="34.7526100">
<ele>538.559998</ele>
<time>2024-03-23T13:52:00.676Z</time>
</trkpt>
<trkpt lat="30.8262500" lon="34.7524500">
<ele>533.290039</ele>
<time>2024-03-23T13:52:00.676Z</time>
</trkpt>
<trkpt lat="30.8262200" lon="34.7523800">
<ele>531.070007</ele>
<time>2024-03-23T13:52:00.676Z</time>
</trkpt>
<trkpt lat="30.8262400" lon="34.7523100">
<ele>528.679993</ele>
<time>2024-03-23T13:52:00.676Z</time>
</trkpt>
<trkpt lat="30.8266900" lon="34.7519700">
<ele>517.929993</ele>
<time>2024-03-23T13:52:00.676Z</time>
</trkpt>
<trkpt lat="30.8268400" lon="34.7518400">
<ele>522.500000</ele>
<time>2024-03-23T13:52:00.676Z</time>
</trkpt>
<trkpt lat="30.8272500" lon="34.7522400">
<ele>525.099976</ele>
<time>2024-03-23T13:52:00.676Z</time>
</trkpt>
<trkpt lat="30.8274700" lon="34.7526100">
<ele>522.679993</ele>
<time>2024-03-23T13:52:00.676Z</time>
</trkpt>
<trkpt lat="30.8275200" lon="34.7528000">
<ele>520.340027</ele>
<time>2024-03-23T13:52:00.676Z</time>
</trkpt>
<trkpt lat="30.8275500" lon="34.7530500">
<ele>516.890015</ele>
<time>2024-03-23T13:52:00.676Z</time>
</trkpt>
<trkpt lat="30.8277600" lon="34.7533000">
<ele>516.059998</ele>
<time>2024-03-23T13:52:00.676Z</time>
</trkpt>
<trkpt lat="30.8278500" lon="34.7533600">
<ele>514.700012</ele>
<time>2024-03-23T13:52:00.676Z</time>
</trkpt>
<trkpt lat="30.8278800" lon="34.7534500">
<ele>514.159973</ele>
<time>2024-03-23T13:52:00.676Z</time>
</trkpt>
<trkpt lat="30.8278800" lon="34.7536400">
<ele>514.299988</ele>
<time>2024-03-23T13:52:00.676Z</time>
</trkpt>
<trkpt lat="30.8279200" lon="34.7538200">
<ele>514.580017</ele>
<time>2024-03-23T13:52:00.676Z</time>
</trkpt>
<trkpt lat="30.8282100" lon="34.7542300">
<ele>510.760010</ele>
<time>2024-03-23T13:52:00.676Z</time>
</trkpt>
<trkpt lat="30.8284500" lon="34.7545400">
<ele>507.040009</ele>
<time>2024-03-23T13:52:00.676Z</time>
</trkpt>
<trkpt lat="30.8284500" lon="34.7545400">
<ele>507.040009</ele>
<time>2024-03-23T13:52:00.676Z</time>
</trkpt>
<trkpt lat="30.8285400" lon="34.7546500">
<ele>505.729980</ele>
<time>2024-03-23T13:52:00.676Z</time>
</trkpt>
<trkpt lat="30.8286900" lon="34.7547300">
<ele>502.500000</ele>
<time>2024-03-23T13:52:00.676Z</time>
</trkpt>
<trkpt lat="30.8290000" lon="34.7548300">
<ele>498.690002</ele>
<time>2024-03-23T13:52:00.676Z</time>
</trkpt>
<trkpt lat="30.8292000" lon="34.7550300">
<ele>500.059998</ele>
<time>2024-03-23T13:52:00.676Z</time>
</trkpt>
<trkpt lat="30.8293500" lon="34.7551200">
<ele>501.310028</ele>
<time>2024-03-23T13:52:00.676Z</time>
</trkpt>
<trkpt lat="30.8295300" lon="34.7553300">
<ele>505.529999</ele>
<time>2024-03-23T13:52:00.676Z</time>
</trkpt>
<trkpt lat="30.8295400" lon="34.7554400">
<ele>506.580017</ele>
<time>2024-03-23T13:52:00.676Z</time>
</trkpt>
<trkpt lat="30.8296000" lon="34.7554600">
<ele>508.230011</ele>
<time>2024-03-23T13:52:00.676Z</time>
</trkpt>
<trkpt lat="30.8298100" lon="34.7553100">
<ele>511.000000</ele>
<time>2024-03-23T13:52:00.676Z</time>
</trkpt>
<trkpt lat="30.8300900" lon="34.7548800">
<ele>516.419983</ele>
<time>2024-03-23T13:52:00.676Z</time>
</trkpt>
<trkpt lat="30.8303400" lon="34.7546600">
<ele>522.970032</ele>
<time>2024-03-23T13:52:00.676Z</time>
</trkpt>
<trkpt lat="30.8305300" lon="34.7545600">
<ele>524.950012</ele>
<time>2024-03-23T13:52:00.676Z</time>
</trkpt>
<trkpt lat="30.8307100" lon="34.7545200">
<ele>521.179993</ele>
<time>2024-03-23T13:52:00.676Z</time>
</trkpt>
<trkpt lat="30.8311600" lon="34.7545000">
<ele>511.800018</ele>
<time>2024-03-23T13:52:00.676Z</time>
</trkpt>
<trkpt lat="30.8312700" lon="34.7544800">
<ele>509.980011</ele>
<time>2024-03-23T13:52:00.676Z</time>
</trkpt>
<trkpt lat="30.8314400" lon="34.7545000">
<ele>510.579987</ele>
<time>2024-03-23T13:52:00.676Z</time>
</trkpt>
<trkpt lat="30.8318000" lon="34.7545900">
<ele>520.650024</ele>
<time>2024-03-23T13:52:00.676Z</time>
</trkpt>
<trkpt lat="30.8319600" lon="34.7546100">
<ele>521.580017</ele>
<time>2024-03-23T13:52:00.676Z</time>
</trkpt>
<trkpt lat="30.8321900" lon="34.7546300">
<ele>522.010010</ele>
<time>2024-03-23T13:52:00.676Z</time>
</trkpt>
<trkpt lat="30.8324100" lon="34.7547700">
<ele>524.679993</ele>
<time>2024-03-23T13:52:00.676Z</time>
</trkpt>
<trkpt lat="30.8326400" lon="34.7548800">
<ele>525.719971</ele>
<time>2024-03-23T13:52:00.676Z</time>
</trkpt>
<trkpt lat="30.8328500" lon="34.7549300">
<ele>525.459961</ele>
<time>2024-03-23T13:52:00.676Z</time>
</trkpt>
<trkpt lat="30.8329800" lon="34.7549400">
<ele>526.260010</ele>
<time>2024-03-23T13:52:00.676Z</time>
</trkpt>
<trkpt lat="30.8330700" lon="34.7548900">
<ele>526.799988</ele>
<time>2024-03-23T13:52:00.676Z</time>
</trkpt>
<trkpt lat="30.8334200" lon="34.7546900">
<ele>533.190002</ele>
<time>2024-03-23T13:52:00.676Z</time>
</trkpt>
<trkpt lat="30.8334200" lon="34.7546900">
<ele>533.190002</ele>
<time>2024-03-23T13:52:00.676Z</time>
</trkpt>
<trkpt lat="30.8335000" lon="34.7546500">
<ele>534.989990</ele>
<time>2024-03-23T13:52:00.676Z</time>
</trkpt>
<trkpt lat="30.8337600" lon="34.7544600">
<ele>534.950012</ele>
<time>2024-03-23T13:52:00.676Z</time>
</trkpt>
<trkpt lat="30.8338500" lon="34.7543500">
<ele>533.650024</ele>
<time>2024-03-23T13:52:00.676Z</time>
</trkpt>
<trkpt lat="30.8338900" lon="34.7541900">
<ele>532.119995</ele>
<time>2024-03-23T13:52:00.676Z</time>
</trkpt>
<trkpt lat="30.8338800" lon="34.7540800">
<ele>531.190002</ele>
<time>2024-03-23T13:52:00.676Z</time>
</trkpt>
<trkpt lat="30.8338100" lon="34.7539800">
<ele>531.409973</ele>
<time>2024-03-23T13:52:00.676Z</time>
</trkpt>
<trkpt lat="30.8336900" lon="34.7539100">
<ele>533.359985</ele>
<time>2024-03-23T13:52:00.676Z</time>
</trkpt>
<trkpt lat="30.8336500" lon="34.7538400">
<ele>533.460022</ele>
<time>2024-03-23T13:52:00.676Z</time>
</trkpt>
<trkpt lat="30.8336600" lon="34.7537000">
<ele>531.220032</ele>
<time>2024-03-23T13:52:00.676Z</time>
</trkpt>
<trkpt lat="30.8336300" lon="34.7535000">
<ele>528.619995</ele>
<time>2024-03-23T13:52:00.676Z</time>
</trkpt>
<trkpt lat="30.8334600" lon="34.7532200">
<ele>528.280029</ele>
<time>2024-03-23T13:52:00.676Z</time>
</trkpt>
<trkpt lat="30.8334300" lon="34.7530000">
<ele>525.250000</ele>
<time>2024-03-23T13:52:00.676Z</time>
</trkpt>
<trkpt lat="30.8333300" lon="34.7526200">
<ele>524.649963</ele>
<time>2024-03-23T13:52:00.676Z</time>
</trkpt>
<trkpt lat="30.8331800" lon="34.7523800">
<ele>530.320007</ele>
<time>2024-03-23T13:52:00.676Z</time>
</trkpt>
<trkpt lat="30.8329500" lon="34.7521800">
<ele>536.369995</ele>
<time>2024-03-23T13:52:00.676Z</time>
</trkpt>
<trkpt lat="30.8326800" lon="34.7521100">
<ele>535.309998</ele>
<time>2024-03-23T13:52:00.676Z</time>
</trkpt>
<trkpt lat="30.8325700" lon="34.7519700">
<ele>537.489990</ele>
<time>2024-03-23T13:52:00.676Z</time>
</trkpt>
<trkpt lat="30.8324200" lon="34.7519000">
<ele>535.399963</ele>
<time>2024-03-23T13:52:00.676Z</time>
</trkpt>
<trkpt lat="30.8324200" lon="34.7517900">
<ele>532.179993</ele>
<time>2024-03-23T13:52:00.676Z</time>
</trkpt>
<trkpt lat="30.8322600" lon="34.7516200">
<ele>527.960022</ele>
<time>2024-03-23T13:52:00.676Z</time>
</trkpt>
<trkpt lat="30.8321200" lon="34.7515400">
<ele>525.940002</ele>
<time>2024-03-23T13:52:00.676Z</time>
</trkpt>
<trkpt lat="30.8319100" lon="34.7511600">
<ele>516.779968</ele>
<time>2024-03-23T13:52:00.676Z</time>
</trkpt>
<trkpt lat="30.8318700" lon="34.7508400">
<ele>506.830017</ele>
<time>2024-03-23T13:52:00.676Z</time>
</trkpt>
<trkpt lat="30.8319500" lon="34.7507000">
<ele>501.549988</ele>
<time>2024-03-23T13:52:00.676Z</time>
</trkpt>
<trkpt lat="30.8320100" lon="34.7504800">
<ele>495.979980</ele>
<time>2024-03-23T13:52:00.676Z</time>
</trkpt>
<trkpt lat="30.8320400" lon="34.7497600">
<ele>493.900024</ele>
<time>2024-03-23T13:52:00.676Z</time>
</trkpt>
<trkpt lat="30.8320500" lon="34.7490800">
<ele>498.889984</ele>
<time>2024-03-23T13:52:00.676Z</time>
</trkpt>
<trkpt lat="30.8320100" lon="34.7482800">
<ele>500.039978</ele>
<time>2024-03-23T13:52:00.676Z</time>
</trkpt>
<trkpt lat="30.8320600" lon="34.7476200">
<ele>498.199982</ele>
<time>2024-03-23T13:52:00.676Z</time>
</trkpt>
<trkpt lat="30.8319900" lon="34.7471200">
<ele>497.570007</ele>
<time>2024-03-23T13:52:00.676Z</time>
</trkpt>
<trkpt lat="30.8319200" lon="34.7468100">
<ele>499.940002</ele>
<time>2024-03-23T13:52:00.676Z</time>
</trkpt>
<trkpt lat="30.8319200" lon="34.7468100">
<ele>499.940002</ele>
<time>2024-03-23T13:52:00.676Z</time>
</trkpt>
<trkpt lat="30.8319100" lon="34.7467600">
<ele>500.649994</ele>
<time>2024-03-23T13:52:00.676Z</time>
</trkpt>
<trkpt lat="30.8316700" lon="34.7463100">
<ele>509.510010</ele>
<time>2024-03-23T13:52:00.676Z</time>
</trkpt>
<trkpt lat="30.8316500" lon="34.7458400">
<ele>511.000000</ele>
<time>2024-03-23T13:52:00.676Z</time>
</trkpt>
<trkpt lat="30.8314700" lon="34.7451400">
<ele>511.559998</ele>
<time>2024-03-23T13:52:00.676Z</time>
</trkpt>
<trkpt lat="30.8313400" lon="34.7443500">
<ele>509.539978</ele>
<time>2024-03-23T13:52:00.676Z</time>
</trkpt>
<trkpt lat="30.8311900" lon="34.7440900">
<ele>508.160004</ele>
<time>2024-03-23T13:52:00.676Z</time>
</trkpt>
<trkpt lat="30.8311600" lon="34.7438700">
<ele>509.149994</ele>
<time>2024-03-23T13:52:00.676Z</time>
</trkpt>
<trkpt lat="30.8312400" lon="34.7434000">
<ele>513.880005</ele>
<time>2024-03-23T13:52:00.676Z</time>
</trkpt>
<trkpt lat="30.8310900" lon="34.7428900">
<ele>516.349976</ele>
<time>2024-03-23T13:52:00.676Z</time>
</trkpt>
<trkpt lat="30.8309500" lon="34.7424700">
<ele>513.150024</ele>
<time>2024-03-23T13:52:00.676Z</time>
</trkpt>
<trkpt lat="30.8308400" lon="34.7421900">
<ele>509.510010</ele>
<time>2024-03-23T13:52:00.676Z</time>
</trkpt>
<trkpt lat="30.8308400" lon="34.7420500">
<ele>507.470001</ele>
<time>2024-03-23T13:52:00.676Z</time>
</trkpt>
<trkpt lat="30.8309000" lon="34.7418500">
<ele>504.750000</ele>
<time>2024-03-23T13:52:00.676Z</time>
</trkpt>
<trkpt lat="30.8309100" lon="34.7416800">
<ele>503.889984</ele>
<time>2024-03-23T13:52:00.676Z</time>
</trkpt>
<trkpt lat="30.8309900" lon="34.7415600">
<ele>506.280029</ele>
<time>2024-03-23T13:52:00.676Z</time>
</trkpt>
<trkpt lat="30.8309800" lon="34.7413900">
<ele>508.619995</ele>
<time>2024-03-23T13:52:00.676Z</time>
</trkpt>
<trkpt lat="30.8309700" lon="34.7411900">
<ele>510.260010</ele>
<time>2024-03-23T13:52:00.676Z</time>
</trkpt>
<trkpt lat="30.8309500" lon="34.7409600">
<ele>510.940002</ele>
<time>2024-03-23T13:52:00.676Z</time>
</trkpt>
<trkpt lat="30.8312600" lon="34.7412100">
<ele>514.929993</ele>
<time>2024-03-23T13:52:00.676Z</time>
</trkpt>
<trkpt lat="30.8323100" lon="34.7420600">
<ele>514.619995</ele>
<time>2024-03-23T13:52:00.676Z</time>
</trkpt>
<trkpt lat="30.8326700" lon="34.7424100">
<ele>509.790009</ele>
<time>2024-03-23T13:52:00.676Z</time>
</trkpt>
<trkpt lat="30.8331400" lon="34.7428500">
<ele>504.770020</ele>
<time>2024-03-23T13:52:00.676Z</time>
</trkpt>
<trkpt lat="30.8333800" lon="34.7431300">
<ele>505.309998</ele>
<time>2024-03-23T13:52:00.676Z</time>
</trkpt>
<trkpt lat="30.8334100" lon="34.7432100">
<ele>504.160004</ele>
<time>2024-03-23T13:52:00.676Z</time>
</trkpt>
<trkpt lat="30.8334100" lon="34.7432100">
<ele>504.160004</ele>
<time>2024-03-23T13:52:00.676Z</time>
</trkpt>
<trkpt lat="30.8335200" lon="34.7434700">
<ele>500.700012</ele>
<time>2024-03-23T13:52:00.676Z</time>
</trkpt>
<trkpt lat="30.8339000" lon="34.7436800">
<ele>495.730011</ele>
<time>2024-03-23T13:52:00.676Z</time>
</trkpt>
<trkpt lat="30.8340200" lon="34.7441700">
<ele>498.919983</ele>
<time>2024-03-23T13:52:00.676Z</time>
</trkpt>
<trkpt lat="30.8340200" lon="34.7445000">
<ele>501.630005</ele>
<time>2024-03-23T13:52:00.676Z</time>
</trkpt>
<trkpt lat="30.8341300" lon="34.7448500">
<ele>503.669983</ele>
<time>2024-03-23T13:52:00.676Z</time>
</trkpt>
<trkpt lat="30.8343200" lon="34.7452900">
<ele>505.670013</ele>
<time>2024-03-23T13:52:00.676Z</time>
</trkpt>
<trkpt lat="30.8345200" lon="34.7453700">
<ele>501.050018</ele>
<time>2024-03-23T13:52:00.676Z</time>
</trkpt>
<trkpt lat="30.8348100" lon="34.7455900">
<ele>486.589996</ele>
<time>2024-03-23T13:52:00.676Z</time>
</trkpt>
<trkpt lat="30.8350100" lon="34.7456400">
<ele>481.109985</ele>
<time>2024-03-23T13:52:00.676Z</time>
</trkpt>
<trkpt lat="30.8352400" lon="34.7456400">
<ele>481.690002</ele>
<time>2024-03-23T13:52:00.676Z</time>
</trkpt>
<trkpt lat="30.8354400" lon="34.7456500">
<ele>483.590027</ele>
<time>2024-03-23T13:52:00.676Z</time>
</trkpt>
<trkpt lat="30.8357500" lon="34.7460900">
<ele>486.279999</ele>
<time>2024-03-23T13:52:00.676Z</time>
</trkpt>
<trkpt lat="30.8360100" lon="34.7465500">
<ele>486.549988</ele>
<time>2024-03-23T13:52:00.676Z</time>
</trkpt>
<trkpt lat="30.8362000" lon="34.7468200">
<ele>489.440002</ele>
<time>2024-03-23T13:52:00.676Z</time>
</trkpt>
<trkpt lat="30.8362000" lon="34.7468200">
<ele>489.440002</ele>
<time>2024-03-23T13:52:00.676Z</time>
</trkpt>
<trkpt lat="30.8363100" lon="34.7469700">
<ele>490.990021</ele>
<time>2024-03-23T13:52:00.676Z</time>
</trkpt>
<trkpt lat="30.8366500" lon="34.7474900">
<ele>496.799988</ele>
<time>2024-03-23T13:52:00.676Z</time>
</trkpt>
<trkpt lat="30.8369300" lon="34.7480100">
<ele>490.640015</ele>
<time>2024-03-23T13:52:00.676Z</time>
</trkpt>
<trkpt lat="30.8372300" lon="34.7485200">
<ele>484.220001</ele>
<time>2024-03-23T13:52:00.676Z</time>
</trkpt>
<trkpt lat="30.8374900" lon="34.7491000">
<ele>483.979980</ele>
<time>2024-03-23T13:52:00.676Z</time>
</trkpt>
<trkpt lat="30.8378200" lon="34.7494000">
<ele>484.779999</ele>
<time>2024-03-23T13:52:00.676Z</time>
</trkpt>
<trkpt lat="30.8382600" lon="34.7499500">
<ele>482.040009</ele>
<time>2024-03-23T13:52:00.676Z</time>
</trkpt>
<trkpt lat="30.8386300" lon="34.7503000">
<ele>479.220001</ele>
<time>2024-03-23T13:52:00.676Z</time>
</trkpt>
<trkpt lat="30.8388200" lon="34.7505100">
<ele>481.969971</ele>
<time>2024-03-23T13:52:00.676Z</time>
</trkpt>
<trkpt lat="30.8390600" lon="34.7508700">
<ele>486.399994</ele>
<time>2024-03-23T13:52:00.676Z</time>
</trkpt>
<trkpt lat="30.8393400" lon="34.7511800">
<ele>481.730011</ele>
<time>2024-03-23T13:52:00.676Z</time>
</trkpt>
<trkpt lat="30.8397900" lon="34.7513400">
<ele>471.040009</ele>
<time>2024-03-23T13:52:00.676Z</time>
</trkpt>
<trkpt lat="30.8402300" lon="34.7514200">
<ele>466.320007</ele>
<time>2024-03-23T13:52:00.676Z</time>
</trkpt>
<trkpt lat="30.8404100" lon="34.7514700">
<ele>467.329987</ele>
<time>2024-03-23T13:52:00.676Z</time>
</trkpt>
<trkpt lat="30.8404100" lon="34.7514700">
<ele>467.329987</ele>
<time>2024-03-23T13:52:00.676Z</time>
</trkpt>
<trkpt lat="30.8404100" lon="34.7514600">
<ele>467.400024</ele>
<time>2024-03-23T13:52:00.676Z</time>
</trkpt>
<trkpt lat="30.8405400" lon="34.7515000">
<ele>469.149994</ele>
<time>2024-03-23T13:52:00.676Z</time>
</trkpt>
<trkpt lat="30.8406600" lon="34.7514300">
<ele>470.390015</ele>
<time>2024-03-23T13:52:00.676Z</time>
</trkpt>
<trkpt lat="30.8407500" lon="34.7516000">
<ele>472.920013</ele>
<time>2024-03-23T13:52:00.676Z</time>
</trkpt>
<trkpt lat="30.8408000" lon="34.7517100">
<ele>474.130005</ele>
<time>2024-03-23T13:52:00.676Z</time>
</trkpt>
<trkpt lat="30.8408100" lon="34.7518500">
<ele>473.369995</ele>
<time>2024-03-23T13:52:00.676Z</time>
</trkpt>
<trkpt lat="30.8408100" lon="34.7518500">
<ele>473.369995</ele>
<time>2024-03-23T13:52:00.676Z</time>
</trkpt>
<trkpt lat="30.8408000" lon="34.7517100">
<ele>474.130005</ele>
<time>2024-03-23T13:52:00.676Z</time>
</trkpt>
<trkpt lat="30.8407500" lon="34.7516000">
<ele>472.920013</ele>
<time>2024-03-23T13:52:00.676Z</time>
</trkpt>
<trkpt lat="30.8406600" lon="34.7514300">
<ele>470.390015</ele>
<time>2024-03-23T13:52:00.676Z</time>
</trkpt>
<trkpt lat="30.8407200" lon="34.7512700">
<ele>469.139984</ele>
<time>2024-03-23T13:52:00.676Z</time>
</trkpt>
<trkpt lat="30.8407800" lon="34.7512100">
<ele>469.240021</ele>
<time>2024-03-23T13:52:00.676Z</time>
</trkpt>
<trkpt lat="30.8407800" lon="34.7512100">
<ele>469.240021</ele>
<time>2024-03-23T13:52:00.676Z</time>
</trkpt>
<trkpt lat="30.8407800" lon="34.7512100">
<ele>469.240021</ele>
<time>2024-03-23T13:52:00.676Z</time>
</trkpt>
<trkpt lat="30.8408600" lon="34.7511200">
<ele>469.370026</ele>
<time>2024-03-23T13:52:00.676Z</time>
</trkpt>
<trkpt lat="30.8410000" lon="34.7510500">
<ele>470.320007</ele>
<time>2024-03-23T13:52:00.676Z</time>
</trkpt>
<trkpt lat="30.8411600" lon="34.7509800">
<ele>472.049988</ele>
<time>2024-03-23T13:52:00.676Z</time>
</trkpt>
<trkpt lat="30.8413400" lon="34.7508900">
<ele>474.160004</ele>
<time>2024-03-23T13:52:00.676Z</time>
</trkpt>
<trkpt lat="30.8414800" lon="34.7508200">
<ele>473.759979</ele>
<time>2024-03-23T13:52:00.676Z</time>
</trkpt>
<trkpt lat="30.8415900" lon="34.7506300">
<ele>469.500000</ele>
<time>2024-03-23T13:52:00.676Z</time>
</trkpt>
<trkpt lat="30.8417800" lon="34.7507800">
<ele>469.429993</ele>
<time>2024-03-23T13:52:00.676Z</time>
</trkpt>
<trkpt lat="30.8419900" lon="34.7506600">
<ele>465.860016</ele>
<time>2024-03-23T13:52:00.676Z</time>
</trkpt>
<trkpt lat="30.8421700" lon="34.7507200">
<ele>463.529999</ele>
<time>2024-03-23T13:52:00.676Z</time>
</trkpt>
<trkpt lat="30.8423400" lon="34.7507100">
<ele>462.940002</ele>
<time>2024-03-23T13:52:00.676Z</time>
</trkpt>
<trkpt lat="30.8425800" lon="34.7508200">
<ele>463.000031</ele>
<time>2024-03-23T13:52:00.676Z</time>
</trkpt>
<trkpt lat="30.8427000" lon="34.7510900">
<ele>461.559998</ele>
<time>2024-03-23T13:52:00.676Z</time>
</trkpt>
<trkpt lat="30.8426600" lon="34.7512000">
<ele>460.279999</ele>
<time>2024-03-23T13:52:00.676Z</time>
</trkpt>
<trkpt lat="30.8426700" lon="34.7513200">
<ele>459.089996</ele>
<time>2024-03-23T13:52:00.676Z</time>
</trkpt>
<trkpt lat="30.8427700" lon="34.7516200">
<ele>453.889984</ele>
<time>2024-03-23T13:52:00.676Z</time>
</trkpt>
<trkpt lat="30.8429500" lon="34.7519500">
<ele>451.589996</ele>
<time>2024-03-23T13:52:00.676Z</time>
</trkpt>
<trkpt lat="30.8430100" lon="34.7520900">
<ele>450.869995</ele>
<time>2024-03-23T13:52:00.676Z</time>
</trkpt>
<trkpt lat="30.8429100" lon="34.7522700">
<ele>449.479980</ele>
<time>2024-03-23T13:52:00.676Z</time>
</trkpt>
<trkpt lat="30.8428500" lon="34.7524000">
<ele>447.769989</ele>
<time>2024-03-23T13:52:00.676Z</time>
</trkpt>
<trkpt lat="30.8428400" lon="34.7525600">
<ele>444.839996</ele>
<time>2024-03-23T13:52:00.676Z</time>
</trkpt>
<trkpt lat="30.8428300" lon="34.7526700">
<ele>441.859985</ele>
<time>2024-03-23T13:52:00.676Z</time>
</trkpt>
<trkpt lat="30.8427300" lon="34.7527400">
<ele>440.739990</ele>
<time>2024-03-23T13:52:00.676Z</time>
</trkpt>
<trkpt lat="30.8427000" lon="34.7528600">
<ele>439.989990</ele>
<time>2024-03-23T13:52:00.676Z</time>
</trkpt>
<trkpt lat="30.8427100" lon="34.7530200">
<ele>439.159973</ele>
<time>2024-03-23T13:52:00.676Z</time>
</trkpt>
<trkpt lat="30.8427500" lon="34.7532700">
<ele>430.890015</ele>
<time>2024-03-23T13:52:00.676Z</time>
</trkpt>
<trkpt lat="30.8427200" lon="34.7533100">
<ele>429.880005</ele>
<time>2024-03-23T13:52:00.676Z</time>
</trkpt>
<trkpt lat="30.8427200" lon="34.7533100">
<ele>429.880005</ele>
<time>2024-03-23T13:52:00.676Z</time>
</trkpt>
<trkpt lat="30.8426400" lon="34.7534700">
<ele>431.709991</ele>
<time>2024-03-23T13:52:00.676Z</time>
</trkpt>
<trkpt lat="30.8425600" lon="34.7535300">
<ele>433.489990</ele>
<time>2024-03-23T13:52:00.676Z</time>
</trkpt>
<trkpt lat="30.8425600" lon="34.7537100">
<ele>435.229980</ele>
<time>2024-03-23T13:52:00.676Z</time>
</trkpt>
<trkpt lat="30.8426700" lon="34.7539100">
<ele>437.829987</ele>
<time>2024-03-23T13:52:00.676Z</time>
</trkpt>
<trkpt lat="30.8427200" lon="34.7539700">
<ele>438.779999</ele>
<time>2024-03-23T13:52:00.676Z</time>
</trkpt>
<trkpt lat="30.8427600" lon="34.7541400">
<ele>441.380005</ele>
<time>2024-03-23T13:52:00.676Z</time>
</trkpt>
<trkpt lat="30.8427900" lon="34.7543700">
<ele>445.239990</ele>
<time>2024-03-23T13:52:00.676Z</time>
</trkpt>
<trkpt lat="30.8428000" lon="34.7545800">
<ele>447.660004</ele>
<time>2024-03-23T13:52:00.676Z</time>
</trkpt>
<trkpt lat="30.8427300" lon="34.7548000">
<ele>447.399994</ele>
<time>2024-03-23T13:52:00.676Z</time>
</trkpt>
<trkpt lat="30.8427300" lon="34.7549500">
<ele>448.579987</ele>
<time>2024-03-23T13:52:00.676Z</time>
</trkpt>
<trkpt lat="30.8427600" lon="34.7550400">
<ele>449.630005</ele>
<time>2024-03-23T13:52:00.676Z</time>
</trkpt>
<trkpt lat="30.8428500" lon="34.7550800">
<ele>451.339996</ele>
<time>2024-03-23T13:52:00.676Z</time>
</trkpt>
<trkpt lat="30.8430700" lon="34.7552200">
<ele>453.769989</ele>
<time>2024-03-23T13:52:00.676Z</time>
</trkpt>
<trkpt lat="30.8432200" lon="34.7554300">
<ele>453.309998</ele>
<time>2024-03-23T13:52:00.676Z</time>
</trkpt>
<trkpt lat="30.8432400" lon="34.7555200">
<ele>452.880005</ele>
<time>2024-03-23T13:52:00.676Z</time>
</trkpt>
<trkpt lat="30.8433300" lon="34.7555900">
<ele>452.869995</ele>
<time>2024-03-23T13:52:00.676Z</time>
</trkpt>
<trkpt lat="30.8434800" lon="34.7556200">
<ele>452.649994</ele>
<time>2024-03-23T13:52:00.676Z</time>
</trkpt>
<trkpt lat="30.8435600" lon="34.7557200">
<ele>451.919983</ele>
<time>2024-03-23T13:52:00.676Z</time>
</trkpt>
<trkpt lat="30.8436300" lon="34.7558400">
<ele>451.359985</ele>
<time>2024-03-23T13:52:00.676Z</time>
</trkpt>
<trkpt lat="30.8437200" lon="34.7560400">
<ele>453.410004</ele>
<time>2024-03-23T13:52:00.676Z</time>
</trkpt>
<trkpt lat="30.8439300" lon="34.7561600">
<ele>455.660004</ele>
<time>2024-03-23T13:52:00.676Z</time>
</trkpt>
<trkpt lat="30.8441200" lon="34.7563100">
<ele>453.130005</ele>
<time>2024-03-23T13:52:00.676Z</time>
</trkpt>
<trkpt lat="30.8443400" lon="34.7564600">
<ele>449.819977</ele>
<time>2024-03-23T13:52:00.676Z</time>
</trkpt>
<trkpt lat="30.8443900" lon="34.7565400">
<ele>448.390015</ele>
<time>2024-03-23T13:52:00.676Z</time>
</trkpt>
<trkpt lat="30.8444700" lon="34.7568500">
<ele>443.660004</ele>
<time>2024-03-23T13:52:00.676Z</time>
</trkpt>
<trkpt lat="30.8445200" lon="34.7570400">
<ele>442.769989</ele>
<time>2024-03-23T13:52:00.676Z</time>
</trkpt>
<trkpt lat="30.8445700" lon="34.7571900">
<ele>442.889984</ele>
<time>2024-03-23T13:52:00.676Z</time>
</trkpt>
<trkpt lat="30.8446100" lon="34.7572800">
<ele>443.040009</ele>
<time>2024-03-23T13:52:00.676Z</time>
</trkpt>
<trkpt lat="30.8447000" lon="34.7574500">
<ele>443.130005</ele>
<time>2024-03-23T13:52:00.676Z</time>
</trkpt>
<trkpt lat="30.8447100" lon="34.7575700">
<ele>443.550018</ele>
<time>2024-03-23T13:52:00.676Z</time>
</trkpt>
<trkpt lat="30.8446600" lon="34.7578600">
<ele>445.630005</ele>
<time>2024-03-23T13:52:00.676Z</time>
</trkpt>
<trkpt lat="30.8447100" lon="34.7580900">
<ele>448.140015</ele>
<time>2024-03-23T13:52:00.676Z</time>
</trkpt>
<trkpt lat="30.8447100" lon="34.7583100">
<ele>450.450012</ele>
<time>2024-03-23T13:52:00.676Z</time>
</trkpt>
<trkpt lat="30.8446600" lon="34.7585200">
<ele>451.820007</ele>
<time>2024-03-23T13:52:00.676Z</time>
</trkpt>
<trkpt lat="30.8446900" lon="34.7586100">
<ele>453.940002</ele>
<time>2024-03-23T13:52:00.676Z</time>
</trkpt>
<trkpt lat="30.8447400" lon="34.7586500">
<ele>455.800018</ele>
<time>2024-03-23T13:52:00.676Z</time>
</trkpt>
<trkpt lat="30.8448000" lon="34.7586700">
<ele>457.320007</ele>
<time>2024-03-23T13:52:00.676Z</time>
</trkpt>
<trkpt lat="30.8448300" lon="34.7587300">
<ele>458.609985</ele>
<time>2024-03-23T13:52:00.676Z</time>
</trkpt>
<trkpt lat="30.8448600" lon="34.7588800">
<ele>460.880005</ele>
<time>2024-03-23T13:52:00.676Z</time>
</trkpt>
<trkpt lat="30.8449200" lon="34.7590800">
<ele>462.470001</ele>
<time>2024-03-23T13:52:00.676Z</time>
</trkpt>
<trkpt lat="30.8449100" lon="34.7591700">
<ele>462.339996</ele>
<time>2024-03-23T13:52:00.676Z</time>
</trkpt>
<trkpt lat="30.8448700" lon="34.7592600">
<ele>460.609985</ele>
<time>2024-03-23T13:52:00.676Z</time>
</trkpt>
<trkpt lat="30.8447700" lon="34.7593600">
<ele>458.690002</ele>
<time>2024-03-23T13:52:00.676Z</time>
</trkpt>
<trkpt lat="30.8447500" lon="34.7594500">
<ele>458.039978</ele>
<time>2024-03-23T13:52:00.676Z</time>
</trkpt>
<trkpt lat="30.8447400" lon="34.7595900">
<ele>456.490021</ele>
<time>2024-03-23T13:52:00.676Z</time>
</trkpt>
<trkpt lat="30.8446700" lon="34.7599400">
<ele>450.899994</ele>
<time>2024-03-23T13:52:00.676Z</time>
</trkpt>
<trkpt lat="30.8446000" lon="34.7602300">
<ele>446.070007</ele>
<time>2024-03-23T13:52:00.676Z</time>
</trkpt>
<trkpt lat="30.8446000" lon="34.7602900">
<ele>445.559998</ele>
<time>2024-03-23T13:52:00.676Z</time>
</trkpt>
<trkpt lat="30.8446400" lon="34.7603100">
<ele>446.919983</ele>
<time>2024-03-23T13:52:00.676Z</time>
</trkpt>
<trkpt lat="30.8446900" lon="34.7603100">
<ele>448.720001</ele>
<time>2024-03-23T13:52:00.676Z</time>
</trkpt>
<trkpt lat="30.8447700" lon="34.7602700">
<ele>451.730011</ele>
<time>2024-03-23T13:52:00.676Z</time>
</trkpt>
<trkpt lat="30.8448900" lon="34.7602100">
<ele>455.839996</ele>
<time>2024-03-23T13:52:00.676Z</time>
</trkpt>
<trkpt lat="30.8450000" lon="34.7602200">
<ele>459.579987</ele>
<time>2024-03-23T13:52:00.676Z</time>
</trkpt>
<trkpt lat="30.8451500" lon="34.7601400">
<ele>460.359985</ele>
<time>2024-03-23T13:52:00.676Z</time>
</trkpt>
<trkpt lat="30.8452200" lon="34.7601200">
<ele>460.680023</ele>
<time>2024-03-23T13:52:00.676Z</time>
</trkpt>
<trkpt lat="30.8452800" lon="34.7601500">
<ele>461.710022</ele>
<time>2024-03-23T13:52:00.676Z</time>
</trkpt>
<trkpt lat="30.8454100" lon="34.7602400">
<ele>463.450012</ele>
<time>2024-03-23T13:52:00.676Z</time>
</trkpt>
<trkpt lat="30.8455300" lon="34.7602600">
<ele>463.800018</ele>
<time>2024-03-23T13:52:00.676Z</time>
</trkpt>
<trkpt lat="30.8456200" lon="34.7602800">
<ele>463.290009</ele>
<time>2024-03-23T13:52:00.676Z</time>
</trkpt>
<trkpt lat="30.8457500" lon="34.7602300">
<ele>461.750000</ele>
<time>2024-03-23T13:52:00.676Z</time>
</trkpt>
<trkpt lat="30.8458100" lon="34.7602400">
<ele>461.220001</ele>
<time>2024-03-23T13:52:00.676Z</time>
</trkpt>
<trkpt lat="30.8458700" lon="34.7603100">
<ele>460.420013</ele>
<time>2024-03-23T13:52:00.676Z</time>
</trkpt>
<trkpt lat="30.8460200" lon="34.7603700">
<ele>458.989990</ele>
<time>2024-03-23T13:52:00.676Z</time>
</trkpt>
<trkpt lat="30.8461300" lon="34.7603800">
<ele>458.360016</ele>
<time>2024-03-23T13:52:00.676Z</time>
</trkpt>
<trkpt lat="30.8461300" lon="34.7603800">
<ele>458.360016</ele>
<time>2024-03-23T13:52:00.676Z</time>
</trkpt>
<trkpt lat="30.8461600" lon="34.7603900">
<ele>458.370026</ele>
<time>2024-03-23T13:52:00.676Z</time>
</trkpt>
<trkpt lat="30.8462300" lon="34.7604200">
<ele>458.279999</ele>
<time>2024-03-23T13:52:00.676Z</time>
</trkpt>
<trkpt lat="30.8462800" lon="34.7605000">
<ele>457.949982</ele>
<time>2024-03-23T13:52:00.676Z</time>
</trkpt>
<trkpt lat="30.8462900" lon="34.7605900">
<ele>457.880005</ele>
<time>2024-03-23T13:52:00.676Z</time>
</trkpt>
<trkpt lat="30.8462900" lon="34.7607200">
<ele>458.509979</ele>
<time>2024-03-23T13:52:00.676Z</time>
</trkpt>
<trkpt lat="30.8462700" lon="34.7608800">
<ele>459.910004</ele>
<time>2024-03-23T13:52:00.676Z</time>
</trkpt>
<trkpt lat="30.8462100" lon="34.7611300">
<ele>463.300018</ele>
<time>2024-03-23T13:52:00.676Z</time>
</trkpt>
<trkpt lat="30.8461100" lon="34.7614000">
<ele>466.160004</ele>
<time>2024-03-23T13:52:00.676Z</time>
</trkpt>
<trkpt lat="30.8460700" lon="34.7615300">
<ele>467.809998</ele>
<time>2024-03-23T13:52:00.676Z</time>
</trkpt>
<trkpt lat="30.8460000" lon="34.7616900">
<ele>468.829987</ele>
<time>2024-03-23T13:52:00.676Z</time>
</trkpt>
<trkpt lat="30.8459800" lon="34.7617400">
<ele>468.709991</ele>
<time>2024-03-23T13:52:00.676Z</time>
</trkpt>
<trkpt lat="30.8459900" lon="34.7617900">
<ele>468.890015</ele>
<time>2024-03-23T13:52:00.676Z</time>
</trkpt>
<trkpt lat="30.8460300" lon="34.7618300">
<ele>469.299988</ele>
<time>2024-03-23T13:52:00.676Z</time>
</trkpt>
<trkpt lat="30.8460900" lon="34.7618600">
<ele>469.820007</ele>
<time>2024-03-23T13:52:00.676Z</time>
</trkpt>
<trkpt lat="30.8461400" lon="34.7618400">
<ele>470.350006</ele>
<time>2024-03-23T13:52:00.676Z</time>
</trkpt>
<trkpt lat="30.8463000" lon="34.7617600">
<ele>472.490021</ele>
<time>2024-03-23T13:52:00.676Z</time>
</trkpt>
<trkpt lat="30.8463500" lon="34.7617400">
<ele>473.209991</ele>
<time>2024-03-23T13:52:00.676Z</time>
</trkpt>
<trkpt lat="30.8464200" lon="34.7617600">
<ele>474.040009</ele>
<time>2024-03-23T13:52:00.676Z</time>
</trkpt>
<trkpt lat="30.8464600" lon="34.7618000">
<ele>474.300018</ele>
<time>2024-03-23T13:52:00.676Z</time>
</trkpt>
<trkpt lat="30.8465000" lon="34.7618100">
<ele>474.670013</ele>
<time>2024-03-23T13:52:00.676Z</time>
</trkpt>
<trkpt lat="30.8465700" lon="34.7618000">
<ele>475.500031</ele>
<time>2024-03-23T13:52:00.676Z</time>
</trkpt>
<trkpt lat="30.8467100" lon="34.7616600">
<ele>478.250000</ele>
<time>2024-03-23T13:52:00.676Z</time>
</trkpt>
<trkpt lat="30.8467600" lon="34.7616200">
<ele>478.390015</ele>
<time>2024-03-23T13:52:00.676Z</time>
</trkpt>
<trkpt lat="30.8468500" lon="34.7616200">
<ele>479.260010</ele>
<time>2024-03-23T13:52:00.676Z</time>
</trkpt>
<trkpt lat="30.8469100" lon="34.7616300">
<ele>479.820007</ele>
<time>2024-03-23T13:52:00.676Z</time>
</trkpt>
<trkpt lat="30.8471500" lon="34.7617600">
<ele>483.760010</ele>
<time>2024-03-23T13:52:00.676Z</time>
</trkpt>
<trkpt lat="30.8471800" lon="34.7617700">
<ele>484.250000</ele>
<time>2024-03-23T13:52:00.676Z</time>
</trkpt>
<trkpt lat="30.8472900" lon="34.7617700">
<ele>486.790009</ele>
<time>2024-03-23T13:52:00.676Z</time>
</trkpt>
<trkpt lat="30.8473900" lon="34.7618800">
<ele>487.709991</ele>
<time>2024-03-23T13:52:00.676Z</time>
</trkpt>
<trkpt lat="30.8474400" lon="34.7618900">
<ele>488.940002</ele>
<time>2024-03-23T13:52:00.676Z</time>
</trkpt>
<trkpt lat="30.8474900" lon="34.7619000">
<ele>490.199982</ele>
<time>2024-03-23T13:52:00.676Z</time>
</trkpt>
<trkpt lat="30.8475000" lon="34.7619600">
<ele>489.720001</ele>
<time>2024-03-23T13:52:00.676Z</time>
</trkpt>
<trkpt lat="30.8474600" lon="34.7621000">
<ele>485.890015</ele>
<time>2024-03-23T13:52:00.676Z</time>
</trkpt>
<trkpt lat="30.8474700" lon="34.7621800">
<ele>484.709991</ele>
<time>2024-03-23T13:52:00.676Z</time>
</trkpt>
<trkpt lat="30.8475200" lon="34.7623000">
<ele>483.540009</ele>
<time>2024-03-23T13:52:00.676Z</time>
</trkpt>
<trkpt lat="30.8476200" lon="34.7624200">
<ele>484.549988</ele>
<time>2024-03-23T13:52:00.676Z</time>
</trkpt>
<trkpt lat="30.8476700" lon="34.7625300">
<ele>484.239990</ele>
<time>2024-03-23T13:52:00.676Z</time>
</trkpt>
<trkpt lat="30.8477200" lon="34.7625900">
<ele>485.099976</ele>
<time>2024-03-23T13:52:00.676Z</time>
</trkpt>
<trkpt lat="30.8477600" lon="34.7626200">
<ele>486.169983</ele>
<time>2024-03-23T13:52:00.676Z</time>
</trkpt>
<trkpt lat="30.8478000" lon="34.7626400">
<ele>487.069977</ele>
<time>2024-03-23T13:52:00.676Z</time>
</trkpt>
<trkpt lat="30.8479500" lon="34.7626900">
<ele>490.199982</ele>
<time>2024-03-23T13:52:00.676Z</time>
</trkpt>
<trkpt lat="30.8479800" lon="34.7627200">
<ele>490.549988</ele>
<time>2024-03-23T13:52:00.676Z</time>
</trkpt>
<trkpt lat="30.8480100" lon="34.7627700">
<ele>490.650024</ele>
<time>2024-03-23T13:52:00.676Z</time>
</trkpt>
<trkpt lat="30.8480600" lon="34.7628500">
<ele>491.309998</ele>
<time>2024-03-23T13:52:00.676Z</time>
</trkpt>
<trkpt lat="30.8481000" lon="34.7628800">
<ele>491.810028</ele>
<time>2024-03-23T13:52:00.676Z</time>
</trkpt>
<trkpt lat="30.8482200" lon="34.7629000">
<ele>494.160004</ele>
<time>2024-03-23T13:52:00.676Z</time>
</trkpt>
<trkpt lat="30.8482800" lon="34.7629100">
<ele>495.380005</ele>
<time>2024-03-23T13:52:00.676Z</time>
</trkpt>
<trkpt lat="30.8483300" lon="34.7629700">
<ele>496.229980</ele>
<time>2024-03-23T13:52:00.676Z</time>
</trkpt>
<trkpt lat="30.8483300" lon="34.7630200">
<ele>496.049988</ele>
<time>2024-03-23T13:52:00.676Z</time>
</trkpt>
<trkpt lat="30.8483100" lon="34.7630600">
<ele>495.380005</ele>
<time>2024-03-23T13:52:00.676Z</time>
</trkpt>
<trkpt lat="30.8482900" lon="34.7631200">
<ele>494.410004</ele>
<time>2024-03-23T13:52:00.676Z</time>
</trkpt>
<trkpt lat="30.8481500" lon="34.7632500">
<ele>489.519989</ele>
<time>2024-03-23T13:52:00.676Z</time>
</trkpt>
<trkpt lat="30.8481100" lon="34.7633200">
<ele>487.700012</ele>
<time>2024-03-23T13:52:00.676Z</time>
</trkpt>
<trkpt lat="30.8480500" lon="34.7634600">
<ele>484.369995</ele>
<time>2024-03-23T13:52:00.676Z</time>
</trkpt>
<trkpt lat="30.8479500" lon="34.7636200">
<ele>478.549988</ele>
<time>2024-03-23T13:52:00.676Z</time>
</trkpt>
<trkpt lat="30.8478900" lon="34.7638000">
<ele>478.830017</ele>
<time>2024-03-23T13:52:00.676Z</time>
</trkpt>
<trkpt lat="30.8478700" lon="34.7638900">
<ele>479.669983</ele>
<time>2024-03-23T13:52:00.676Z</time>
</trkpt>
<trkpt lat="30.8478700" lon="34.7639600">
<ele>480.680023</ele>
<time>2024-03-23T13:52:00.676Z</time>
</trkpt>
<trkpt lat="30.8478700" lon="34.7639600">
<ele>480.680023</ele>
<time>2024-03-23T13:52:00.676Z</time>
</trkpt>
<trkpt lat="30.8478800" lon="34.7640000">
<ele>481.419983</ele>
<time>2024-03-23T13:52:00.676Z</time>
</trkpt>
<trkpt lat="30.8479000" lon="34.7640800">
<ele>482.609985</ele>
<time>2024-03-23T13:52:00.676Z</time>
</trkpt>
<trkpt lat="30.8479300" lon="34.7641500">
<ele>483.330017</ele>
<time>2024-03-23T13:52:00.676Z</time>
</trkpt>
<trkpt lat="30.8480000" lon="34.7642000">
<ele>482.789978</ele>
<time>2024-03-23T13:52:00.676Z</time>
</trkpt>
<trkpt lat="30.8480700" lon="34.7642500">
<ele>482.009979</ele>
<time>2024-03-23T13:52:00.676Z</time>
</trkpt>
<trkpt lat="30.8481700" lon="34.7642700">
<ele>483.160004</ele>
<time>2024-03-23T13:52:00.676Z</time>
</trkpt>
<trkpt lat="30.8483700" lon="34.7642500">
<ele>486.670013</ele>
<time>2024-03-23T13:52:00.676Z</time>
</trkpt>
<trkpt lat="30.8484400" lon="34.7642000">
<ele>488.920013</ele>
<time>2024-03-23T13:52:00.676Z</time>
</trkpt>
<trkpt lat="30.8485100" lon="34.7641100">
<ele>491.040009</ele>
<time>2024-03-23T13:52:00.676Z</time>
</trkpt>
<trkpt lat="30.8486700" lon="34.7640200">
<ele>493.410004</ele>
<time>2024-03-23T13:52:00.676Z</time>
</trkpt>
<trkpt lat="30.8487100" lon="34.7640600">
<ele>493.789978</ele>
<time>2024-03-23T13:52:00.676Z</time>
</trkpt>
<trkpt lat="30.8486900" lon="34.7642600">
<ele>493.369995</ele>
<time>2024-03-23T13:52:00.676Z</time>
</trkpt>
<trkpt lat="30.8487300" lon="34.7643300">
<ele>493.609985</ele>
<time>2024-03-23T13:52:00.676Z</time>
</trkpt>
<trkpt lat="30.8487300" lon="34.7645600">
<ele>492.429993</ele>
<time>2024-03-23T13:52:00.676Z</time>
</trkpt>
<trkpt lat="30.8487500" lon="34.7647100">
<ele>492.069977</ele>
<time>2024-03-23T13:52:00.676Z</time>
</trkpt>
<trkpt lat="30.8487500" lon="34.7648800">
<ele>490.300018</ele>
<time>2024-03-23T13:52:00.676Z</time>
</trkpt>
<trkpt lat="30.8487800" lon="34.7649600">
<ele>490.300018</ele>
<time>2024-03-23T13:52:00.676Z</time>
</trkpt>
<trkpt lat="30.8488400" lon="34.7650800">
<ele>490.539978</ele>
<time>2024-03-23T13:52:00.676Z</time>
</trkpt>
<trkpt lat="30.8489600" lon="34.7651400">
<ele>492.010010</ele>
<time>2024-03-23T13:52:00.676Z</time>
</trkpt>
<trkpt lat="30.8489700" lon="34.7652500">
<ele>490.799988</ele>
<time>2024-03-23T13:52:00.676Z</time>
</trkpt>
<trkpt lat="30.8490600" lon="34.7654500">
<ele>490.750000</ele>
<time>2024-03-23T13:52:00.676Z</time>
</trkpt>
<trkpt lat="30.8490700" lon="34.7656100">
<ele>489.360016</ele>
<time>2024-03-23T13:52:00.676Z</time>
</trkpt>
<trkpt lat="30.8491400" lon="34.7657500">
<ele>489.360016</ele>
<time>2024-03-23T13:52:00.676Z</time>
</trkpt>
<trkpt lat="30.8492600" lon="34.7659700">
<ele>489.370026</ele>
<time>2024-03-23T13:52:00.676Z</time>
</trkpt>
<trkpt lat="30.8493500" lon="34.7660600">
<ele>490.390015</ele>
<time>2024-03-23T13:52:00.676Z</time>
</trkpt>
<trkpt lat="30.8494100" lon="34.7661700">
<ele>491.019989</ele>
<time>2024-03-23T13:52:00.676Z</time>
</trkpt>
<trkpt lat="30.8494300" lon="34.7662500">
<ele>491.160004</ele>
<time>2024-03-23T13:52:00.676Z</time>
</trkpt>
<trkpt lat="30.8495600" lon="34.7665100">
<ele>492.830017</ele>
<time>2024-03-23T13:52:00.676Z</time>
</trkpt>
<trkpt lat="30.8496400" lon="34.7666200">
<ele>494.269989</ele>
<time>2024-03-23T13:52:00.676Z</time>
</trkpt>
<trkpt lat="30.8497300" lon="34.7667800">
<ele>495.649994</ele>
<time>2024-03-23T13:52:00.676Z</time>
</trkpt>
<trkpt lat="30.8497600" lon="34.7668900">
<ele>495.390015</ele>
<time>2024-03-23T13:52:00.676Z</time>
</trkpt>
<trkpt lat="30.8497700" lon="34.7670100">
<ele>493.959991</ele>
<time>2024-03-23T13:52:00.676Z</time>
</trkpt>
<trkpt lat="30.8497400" lon="34.7670900">
<ele>492.089996</ele>
<time>2024-03-23T13:52:00.676Z</time>
</trkpt>
<trkpt lat="30.8497100" lon="34.7671700">
<ele>489.690002</ele>
<time>2024-03-23T13:52:00.676Z</time>
</trkpt>
<trkpt lat="30.8497200" lon="34.7672400">
<ele>488.219971</ele>
<time>2024-03-23T13:52:00.676Z</time>
</trkpt>
<trkpt lat="30.8497500" lon="34.7673600">
<ele>484.440002</ele>
<time>2024-03-23T13:52:00.676Z</time>
</trkpt>
<trkpt lat="30.8497800" lon="34.7674600">
<ele>481.899994</ele>
<time>2024-03-23T13:52:00.676Z</time>
</trkpt>
<trkpt lat="30.8497900" lon="34.7675900">
<ele>479.000000</ele>
<time>2024-03-23T13:52:00.676Z</time>
</trkpt>
<trkpt lat="30.8498100" lon="34.7676400">
<ele>478.499969</ele>
<time>2024-03-23T13:52:00.676Z</time>
</trkpt>
<trkpt lat="30.8498400" lon="34.7676400">
<ele>479.359985</ele>
<time>2024-03-23T13:52:00.676Z</time>
</trkpt>
<trkpt lat="30.8499000" lon="34.7676200">
<ele>481.740021</ele>
<time>2024-03-23T13:52:00.676Z</time>
</trkpt>
<trkpt lat="30.8499700" lon="34.7675600">
<ele>486.299988</ele>
<time>2024-03-23T13:52:00.676Z</time>
</trkpt>
<trkpt lat="30.8500400" lon="34.7674400">
<ele>492.159973</ele>
<time>2024-03-23T13:52:00.676Z</time>
</trkpt>
<trkpt lat="30.8500900" lon="34.7673600">
<ele>494.290009</ele>
<time>2024-03-23T13:52:00.676Z</time>
</trkpt>
<trkpt lat="30.8501500" lon="34.7673100">
<ele>495.690002</ele>
<time>2024-03-23T13:52:00.676Z</time>
</trkpt>
<trkpt lat="30.8502000" lon="34.7673000">
<ele>496.449982</ele>
<time>2024-03-23T13:52:00.676Z</time>
</trkpt>
<trkpt lat="30.8502400" lon="34.7673400">
<ele>497.169983</ele>
<time>2024-03-23T13:52:00.676Z</time>
</trkpt>
<trkpt lat="30.8502900" lon="34.7674000">
<ele>498.429993</ele>
<time>2024-03-23T13:52:00.676Z</time>
</trkpt>
<trkpt lat="30.8503100" lon="34.7674700">
<ele>499.139984</ele>
<time>2024-03-23T13:52:00.676Z</time>
</trkpt>
<trkpt lat="30.8503100" lon="34.7675500">
<ele>498.100006</ele>
<time>2024-03-23T13:52:00.676Z</time>
</trkpt>
<trkpt lat="30.8502900" lon="34.7677000">
<ele>493.660004</ele>
<time>2024-03-23T13:52:00.676Z</time>
</trkpt>
<trkpt lat="30.8502800" lon="34.7678700">
<ele>486.459991</ele>
<time>2024-03-23T13:52:00.676Z</time>
</trkpt>
<trkpt lat="30.8502500" lon="34.7680800">
<ele>475.729980</ele>
<time>2024-03-23T13:52:00.676Z</time>
</trkpt>
<trkpt lat="30.8502400" lon="34.7682900">
<ele>470.709991</ele>
<time>2024-03-23T13:52:00.676Z</time>
</trkpt>
<trkpt lat="30.8502600" lon="34.7683800">
<ele>469.220001</ele>
<time>2024-03-23T13:52:00.676Z</time>
</trkpt>
<trkpt lat="30.8503000" lon="34.7684600">
<ele>468.589996</ele>
<time>2024-03-23T13:52:00.676Z</time>
</trkpt>
<trkpt lat="30.8503000" lon="34.7684600">
<ele>468.589996</ele>
<time>2024-03-23T13:52:00.676Z</time>
</trkpt>
<trkpt lat="30.8503200" lon="34.7685000">
<ele>468.300018</ele>
<time>2024-03-23T13:52:00.676Z</time>
</trkpt>
<trkpt lat="30.8503700" lon="34.7686600">
<ele>466.819977</ele>
<time>2024-03-23T13:52:00.676Z</time>
</trkpt>
<trkpt lat="30.8503900" lon="34.7687200">
<ele>466.819977</ele>
<time>2024-03-23T13:52:00.676Z</time>
</trkpt>
<trkpt lat="30.8504100" lon="34.7687600">
<ele>466.890015</ele>
<time>2024-03-23T13:52:00.676Z</time>
</trkpt>
<trkpt lat="30.8504800" lon="34.7687700">
<ele>467.610016</ele>
<time>2024-03-23T13:52:00.676Z</time>
</trkpt>
<trkpt lat="30.8505300" lon="34.7687300">
<ele>468.300018</ele>
<time>2024-03-23T13:52:00.676Z</time>
</trkpt>
<trkpt lat="30.8505900" lon="34.7686500">
<ele>469.800018</ele>
<time>2024-03-23T13:52:00.676Z</time>
</trkpt>
<trkpt lat="30.8506700" lon="34.7685200">
<ele>475.190002</ele>
<time>2024-03-23T13:52:00.676Z</time>
</trkpt>
<trkpt lat="30.8507300" lon="34.7683700">
<ele>482.059998</ele>
<time>2024-03-23T13:52:00.676Z</time>
</trkpt>
<trkpt lat="30.8507700" lon="34.7683400">
<ele>484.490021</ele>
<time>2024-03-23T13:52:00.676Z</time>
</trkpt>
<trkpt lat="30.8508200" lon="34.7683600">
<ele>485.569977</ele>
<time>2024-03-23T13:52:00.676Z</time>
</trkpt>
<trkpt lat="30.8508400" lon="34.7683900">
<ele>485.119995</ele>
<time>2024-03-23T13:52:00.676Z</time>
</trkpt>
<trkpt lat="30.8508700" lon="34.7684800">
<ele>482.789978</ele>
<time>2024-03-23T13:52:00.676Z</time>
</trkpt>
<trkpt lat="30.8509300" lon="34.7686100">
<ele>480.509979</ele>
<time>2024-03-23T13:52:00.676Z</time>
</trkpt>
<trkpt lat="30.8509400" lon="34.7687300">
<ele>478.799988</ele>
<time>2024-03-23T13:52:00.676Z</time>
</trkpt>
<trkpt lat="30.8509500" lon="34.7688300">
<ele>477.389984</ele>
<time>2024-03-23T13:52:00.676Z</time>
</trkpt>
<trkpt lat="30.8509700" lon="34.7688500">
<ele>477.630005</ele>
<time>2024-03-23T13:52:00.676Z</time>
</trkpt>
<trkpt lat="30.8510100" lon="34.7688500">
<ele>478.830017</ele>
<time>2024-03-23T13:52:00.676Z</time>
</trkpt>
<trkpt lat="30.8510300" lon="34.7688100">
<ele>480.200012</ele>
<time>2024-03-23T13:52:00.676Z</time>
</trkpt>
<trkpt lat="30.8510500" lon="34.7687200">
<ele>482.619995</ele>
<time>2024-03-23T13:52:00.676Z</time>
</trkpt>
<trkpt lat="30.8511400" lon="34.7686500">
<ele>486.840027</ele>
<time>2024-03-23T13:52:00.676Z</time>
</trkpt>
<trkpt lat="30.8511900" lon="34.7686100">
<ele>489.010010</ele>
<time>2024-03-23T13:52:00.676Z</time>
</trkpt>
<trkpt lat="30.8512700" lon="34.7686100">
<ele>491.029999</ele>
<time>2024-03-23T13:52:00.676Z</time>
</trkpt>
<trkpt lat="30.8514500" lon="34.7686500">
<ele>495.160004</ele>
<time>2024-03-23T13:52:00.676Z</time>
</trkpt>
<trkpt lat="30.8515200" lon="34.7686400">
<ele>498.260010</ele>
<time>2024-03-23T13:52:00.676Z</time>
</trkpt>
<trkpt lat="30.8516200" lon="34.7686200">
<ele>502.859985</ele>
<time>2024-03-23T13:52:00.676Z</time>
</trkpt>
<trkpt lat="30.8516900" lon="34.7686200">
<ele>504.149994</ele>
<time>2024-03-23T13:52:00.676Z</time>
</trkpt>
<trkpt lat="30.8518200" lon="34.7687200">
<ele>499.989990</ele>
<time>2024-03-23T13:52:00.676Z</time>
</trkpt>
<trkpt lat="30.8519700" lon="34.7688100">
<ele>499.929993</ele>
<time>2024-03-23T13:52:00.676Z</time>
</trkpt>
<trkpt lat="30.8521800" lon="34.7688700">
<ele>503.540009</ele>
<time>2024-03-23T13:52:00.676Z</time>
</trkpt>
<trkpt lat="30.8523400" lon="34.7688900">
<ele>500.150024</ele>
<time>2024-03-23T13:52:00.676Z</time>
</trkpt>
<trkpt lat="30.8524700" lon="34.7689600">
<ele>494.550018</ele>
<time>2024-03-23T13:52:00.676Z</time>
</trkpt>
<trkpt lat="30.8527400" lon="34.7691200">
<ele>492.419983</ele>
<time>2024-03-23T13:52:00.676Z</time>
</trkpt>
<trkpt lat="30.8529000" lon="34.7692700">
<ele>491.819977</ele>
<time>2024-03-23T13:52:00.676Z</time>
</trkpt>
<trkpt lat="30.8530500" lon="34.7693900">
<ele>493.080017</ele>
<time>2024-03-23T13:52:00.676Z</time>
</trkpt>
<trkpt lat="30.8531600" lon="34.7694700">
<ele>491.410004</ele>
<time>2024-03-23T13:52:00.676Z</time>
</trkpt>
<trkpt lat="30.8533100" lon="34.7696000">
<ele>489.880005</ele>
<time>2024-03-23T13:52:00.676Z</time>
</trkpt>
<trkpt lat="30.8533900" lon="34.7696800">
<ele>490.899994</ele>
<time>2024-03-23T13:52:00.676Z</time>
</trkpt>
<trkpt lat="30.8535100" lon="34.7697800">
<ele>492.539978</ele>
<time>2024-03-23T13:52:00.676Z</time>
</trkpt>
<trkpt lat="30.8536500" lon="34.7699100">
<ele>494.630005</ele>
<time>2024-03-23T13:52:00.676Z</time>
</trkpt>
<trkpt lat="30.8538600" lon="34.7701300">
<ele>496.330017</ele>
<time>2024-03-23T13:52:00.676Z</time>
</trkpt>
<trkpt lat="30.8539000" lon="34.7702100">
<ele>494.979980</ele>
<time>2024-03-23T13:52:00.676Z</time>
</trkpt>
<trkpt lat="30.8539300" lon="34.7703500">
<ele>491.779999</ele>
<time>2024-03-23T13:52:00.676Z</time>
</trkpt>
<trkpt lat="30.8540400" lon="34.7705200">
<ele>490.679993</ele>
<time>2024-03-23T13:52:00.676Z</time>
</trkpt>
<trkpt lat="30.8540700" lon="34.7705800">
<ele>490.789978</ele>
<time>2024-03-23T13:52:00.676Z</time>
</trkpt>
<trkpt lat="30.8540400" lon="34.7706600">
<ele>489.440002</ele>
<time>2024-03-23T13:52:00.676Z</time>
</trkpt>
<trkpt lat="30.8540200" lon="34.7707700">
<ele>487.750000</ele>
<time>2024-03-23T13:52:00.676Z</time>
</trkpt>
<trkpt lat="30.8541100" lon="34.7708000">
<ele>491.399994</ele>
<time>2024-03-23T13:52:00.676Z</time>
</trkpt>
<trkpt lat="30.8543300" lon="34.7708300">
<ele>496.940002</ele>
<time>2024-03-23T13:52:00.676Z</time>
</trkpt>
<trkpt lat="30.8543300" lon="34.7708300">
<ele>496.940002</ele>
<time>2024-03-23T13:52:00.676Z</time>
</trkpt>
<trkpt lat="30.8541100" lon="34.7708000">
<ele>491.399994</ele>
<time>2024-03-23T13:52:00.676Z</time>
</trkpt>
<trkpt lat="30.8540900" lon="34.7708800">
<ele>489.350006</ele>
<time>2024-03-23T13:52:00.676Z</time>
</trkpt>
<trkpt lat="30.8539500" lon="34.7714700">
<ele>478.410004</ele>
<time>2024-03-23T13:52:00.676Z</time>
</trkpt>
<trkpt lat="30.8538100" lon="34.7720500">
<ele>477.149994</ele>
<time>2024-03-23T13:52:00.676Z</time>
</trkpt>
<trkpt lat="30.8536700" lon="34.7726400">
<ele>475.929993</ele>
<time>2024-03-23T13:52:00.676Z</time>
</trkpt>
<trkpt lat="30.8535300" lon="34.7732200">
<ele>475.710022</ele>
<time>2024-03-23T13:52:00.676Z</time>
</trkpt>
<trkpt lat="30.8533900" lon="34.7738100">
<ele>474.389984</ele>
<time>2024-03-23T13:52:00.676Z</time>
</trkpt>
<trkpt lat="30.8532900" lon="34.7742000">
<ele>473.239990</ele>
<time>2024-03-23T13:52:00.676Z</time>
</trkpt>
<trkpt lat="30.8531500" lon="34.7745700">
<ele>471.500000</ele>
<time>2024-03-23T13:52:00.676Z</time>
</trkpt>
<trkpt lat="30.8529400" lon="34.7749900">
<ele>468.919983</ele>
<time>2024-03-23T13:52:00.676Z</time>
</trkpt>
<trkpt lat="30.8527400" lon="34.7753600">
<ele>466.750000</ele>
<time>2024-03-23T13:52:00.676Z</time>
</trkpt>
<trkpt lat="30.8525700" lon="34.7756400">
<ele>465.539978</ele>
<time>2024-03-23T13:52:00.676Z</time>
</trkpt>
<trkpt lat="30.8522800" lon="34.7760700">
<ele>464.480011</ele>
<time>2024-03-23T13:52:00.676Z</time>
</trkpt>
<trkpt lat="30.8520000" lon="34.7765000">
<ele>465.319977</ele>
<time>2024-03-23T13:52:00.676Z</time>
</trkpt>
<trkpt lat="30.8517100" lon="34.7769400">
<ele>465.619995</ele>
<time>2024-03-23T13:52:00.676Z</time>
</trkpt>
<trkpt lat="30.8514300" lon="34.7773700">
<ele>465.679993</ele>
<time>2024-03-23T13:52:00.676Z</time>
</trkpt>
<trkpt lat="30.8511400" lon="34.7778000">
<ele>465.799988</ele>
<time>2024-03-23T13:52:00.676Z</time>
</trkpt>
<trkpt lat="30.8506400" lon="34.7785400">
<ele>465.209991</ele>
<time>2024-03-23T13:52:00.676Z</time>
</trkpt>
<trkpt lat="30.8506400" lon="34.7785400">
<ele>465.209991</ele>
<time>2024-03-23T13:52:00.676Z</time>
</trkpt>
<trkpt lat="30.8504600" lon="34.7788200">
<ele>466.169983</ele>
<time>2024-03-23T13:52:00.676Z</time>
</trkpt>
<trkpt lat="30.8504400" lon="34.7788400">
<ele>466.269989</ele>
<time>2024-03-23T13:52:00.676Z</time>
</trkpt>
<trkpt lat="30.8504200" lon="34.7788600">
<ele>466.389984</ele>
<time>2024-03-23T13:52:00.676Z</time>
</trkpt>
<trkpt lat="30.8504000" lon="34.7788700">
<ele>466.479980</ele>
<time>2024-03-23T13:52:00.676Z</time>
</trkpt>
<trkpt lat="30.8503900" lon="34.7788900">
<ele>466.599976</ele>
<time>2024-03-23T13:52:00.676Z</time>
</trkpt>
<trkpt lat="30.8503700" lon="34.7789000">
<ele>466.760010</ele>
<time>2024-03-23T13:52:00.676Z</time>
</trkpt>
<trkpt lat="30.8503500" lon="34.7789200">
<ele>467.020020</ele>
<time>2024-03-23T13:52:00.676Z</time>
</trkpt>
<trkpt lat="30.8503300" lon="34.7789300">
<ele>467.199982</ele>
<time>2024-03-23T13:52:00.676Z</time>
</trkpt>
<trkpt lat="30.8503100" lon="34.7789400">
<ele>467.390015</ele>
<time>2024-03-23T13:52:00.676Z</time>
</trkpt>
<trkpt lat="30.8502900" lon="34.7789400">
<ele>467.490021</ele>
<time>2024-03-23T13:52:00.676Z</time>
</trkpt>
<trkpt lat="30.8502600" lon="34.7789500">
<ele>467.610016</ele>
<time>2024-03-23T13:52:00.676Z</time>
</trkpt>
<trkpt lat="30.8502400" lon="34.7789600">
<ele>467.669983</ele>
<time>2024-03-23T13:52:00.676Z</time>
</trkpt>
<trkpt lat="30.8502300" lon="34.7789600">
<ele>467.639984</ele>
<time>2024-03-23T13:52:00.676Z</time>
</trkpt>
<trkpt lat="30.8502100" lon="34.7789700">
<ele>467.700012</ele>
<time>2024-03-23T13:52:00.676Z</time>
</trkpt>
<trkpt lat="30.8502000" lon="34.7789800">
<ele>467.799988</ele>
<time>2024-03-23T13:52:00.676Z</time>
</trkpt>
<trkpt lat="30.8501900" lon="34.7790000">
<ele>468.009979</ele>
<time>2024-03-23T13:52:00.676Z</time>
</trkpt>
<trkpt lat="30.8501700" lon="34.7789900">
<ele>467.850006</ele>
<time>2024-03-23T13:52:00.676Z</time>
</trkpt>
<trkpt lat="30.8501600" lon="34.7789800">
<ele>467.700012</ele>
<time>2024-03-23T13:52:00.676Z</time>
</trkpt>
<trkpt lat="30.8501500" lon="34.7789700">
<ele>467.549988</ele>
<time>2024-03-23T13:52:00.676Z</time>
</trkpt>
<trkpt lat="30.8501300" lon="34.7789600">
<ele>467.369995</ele>
<time>2024-03-23T13:52:00.676Z</time>
</trkpt>
<trkpt lat="30.8501100" lon="34.7789600">
<ele>467.320007</ele>
<time>2024-03-23T13:52:00.676Z</time>
</trkpt>
<trkpt lat="30.8501000" lon="34.7789500">
<ele>467.159973</ele>
<time>2024-03-23T13:52:00.676Z</time>
</trkpt>
<trkpt lat="30.8500800" lon="34.7789500">
<ele>467.100006</ele>
<time>2024-03-23T13:52:00.676Z</time>
</trkpt>
<trkpt lat="30.8500700" lon="34.7789500">
<ele>467.079987</ele>
<time>2024-03-23T13:52:00.676Z</time>
</trkpt>
<trkpt lat="30.8500500" lon="34.7789500">
<ele>467.020020</ele>
<time>2024-03-23T13:52:00.676Z</time>
</trkpt>
<trkpt lat="30.8500400" lon="34.7789500">
<ele>466.989990</ele>
<time>2024-03-23T13:52:00.676Z</time>
</trkpt>
<trkpt lat="30.8497800" lon="34.7789500">
<ele>467.050018</ele>
<time>2024-03-23T13:52:00.676Z</time>
</trkpt>
<trkpt lat="30.8497600" lon="34.7789500">
<ele>467.069977</ele>
<time>2024-03-23T13:52:00.676Z</time>
</trkpt>
<trkpt lat="30.8497400" lon="34.7789500">
<ele>467.089996</ele>
<time>2024-03-23T13:52:00.676Z</time>
</trkpt>
<trkpt lat="30.8497200" lon="34.7789500">
<ele>467.100006</ele>
<time>2024-03-23T13:52:00.676Z</time>
</trkpt>
<trkpt lat="30.8497100" lon="34.7789500">
<ele>467.110016</ele>
<time>2024-03-23T13:52:00.676Z</time>
</trkpt>
<trkpt lat="30.8496900" lon="34.7789500">
<ele>467.130005</ele>
<time>2024-03-23T13:52:00.676Z</time>
</trkpt>
<trkpt lat="30.8496700" lon="34.7789400">
<ele>466.949982</ele>
<time>2024-03-23T13:52:00.676Z</time>
</trkpt>
<trkpt lat="30.8496600" lon="34.7789400">
<ele>466.959991</ele>
<time>2024-03-23T13:52:00.676Z</time>
</trkpt>
<trkpt lat="30.8496400" lon="34.7789300">
<ele>466.779999</ele>
<time>2024-03-23T13:52:00.676Z</time>
</trkpt>
<trkpt lat="30.8496200" lon="34.7789200">
<ele>466.599976</ele>
<time>2024-03-23T13:52:00.676Z</time>
</trkpt>
<trkpt lat="30.8496000" lon="34.7789100">
<ele>466.410004</ele>
<time>2024-03-23T13:52:00.676Z</time>
</trkpt>
<trkpt lat="30.8495800" lon="34.7789400">
<ele>467.010010</ele>
<time>2024-03-23T13:52:00.676Z</time>
</trkpt>
<trkpt lat="30.8495500" lon="34.7789700">
<ele>467.639984</ele>
<time>2024-03-23T13:52:00.676Z</time>
</trkpt>
<trkpt lat="30.8495300" lon="34.7790000">
<ele>468.279999</ele>
<time>2024-03-23T13:52:00.676Z</time>
</trkpt>
<trkpt lat="30.8495100" lon="34.7790200">
<ele>468.720001</ele>
<time>2024-03-23T13:52:00.676Z</time>
</trkpt>
<trkpt lat="30.8494800" lon="34.7790500">
<ele>469.410004</ele>
<time>2024-03-23T13:52:00.676Z</time>
</trkpt>
<trkpt lat="30.8494500" lon="34.7790700">
<ele>469.899994</ele>
<time>2024-03-23T13:52:00.676Z</time>
</trkpt>
<trkpt lat="30.8494200" lon="34.7790900">
<ele>470.089996</ele>
<time>2024-03-23T13:52:00.676Z</time>
</trkpt>
<trkpt lat="30.8493800" lon="34.7791100">
<ele>470.040009</ele>
<time>2024-03-23T13:52:00.676Z</time>
</trkpt>
<trkpt lat="30.8493300" lon="34.7791300">
<ele>469.779999</ele>
<time>2024-03-23T13:52:00.676Z</time>
</trkpt>
<trkpt lat="30.8492800" lon="34.7791500">
<ele>469.410004</ele>
<time>2024-03-23T13:52:00.676Z</time>
</trkpt>
</trkseg>
</trk>
</gpx>
